     2              OBSERVATION DATA    GPS                 RINEX VERSION / TYPE
TRRINEXO-V2.3.4-LH UCLA/SCEC 10-AUG-1994                    PGM / RUN BY / DATE
                                                            COMMENT
Original Marker Name: PEARBLOSSOM NCMN 1983                 COMMENT
Campaign Name: Intercounty 1992                             COMMENT
4-Character Station Name: PEAR                              COMMENT
6-Character Antenna Code: TRMSST                            COMMENT
Vertical Measurement Point: BPA                             COMMENT
Vertical Offset to Rinex Ref. Point: 0.0000                 COMMENT
Radial Measurement Point: RRP                               COMMENT
Radial Offset to Rinex Ref. Point: 0.0000                   COMMENT
Antenna Height from Field Measurement: 1.1080 m             COMMENT
Original XYZ: -2464089.9417 -4649465.6751 3593936.4728      COMMENT
New XYZ position is based on association with SCEC monument COMMENT
E1F2D3B2+0011. Position of that monument is believed to be  COMMENT
valid to within 1 m horizontally; vertical accuracy         COMMENT
should be no worse than 3-times this value.                 COMMENT
                                                            COMMENT
Revised Rinex header created by UCSD GPS archive for        COMMENT
GSAC on 14-Apr-1999 (1999:104) 21:15:45 GMT                 COMMENT
For assistance contact dagnew@ucsd.edu or hjohnson@ucsd.edu COMMENT
                                                            COMMENT
PEARBLOSSOM NCMN 1983                                       MARKER NAME
MILLS UCLA                                                  OBSERVER / AGENCY
491 TRIMBLE 4000 SST 4.53                                   REC # / TYPE / VERS
27 TR 4000SST L1/L2 GEO                                     ANT # / TYPE
 -2464071.0000 -4649425.0000  3593906.0000                  APPROX POSITION XYZ
        1.1080        0.0000        0.0000                  ANTENNA: DELTA H/E/N
     1     2     0                                          WAVELENGTH FACT L1/2
     3    C1    L1    L2                                    # / TYPES OF OBSERV
    30                                                      INTERVAL
  1992     4    15    18    50   30.000000                  TIME OF FIRST OBS
  1992     4    16     0    49   30.000000                  TIME OF LAST OBS
     0                                                      # OF SATELLITES
                                                            END OF HEADER
 92  4 15 18 50 30.0000000  0  4 18 11 14 19
  20269266.844          -0.89218
  24816416.711          -0.53214
  24432063.594          -0.83715
  21062615.031          -0.31016
 92  4 15 18 51  0.0000000  0  4 18 11 14 19
  20257833.477      -60088.607 8        -0.26218
  24791843.477     -129094.422 4        -0.44212
  24444686.289       66312.313 5
  21048925.992      -71936.447 6        -0.44518
 92  4 15 18 51 30.0000000  0  4 18 11 14 19
  20246455.570     -119884.186 8    -46594.246 8
  24767280.453     -258226.352 5   -100622.257 1
  24457265.953      132419.092 5     25734.41911
  21035243.281     -143826.525 6    -56018.659 8
 92  4 15 18 52  0.0000000  0  4 18 11 14 19
  20235130.836     -179402.179 8    -92971.925 8
  24742691.055     -387402.582 4   -201278.600 3
  24469809.875      198320.823 5     77085.767 1
  21021567.789     -215685.178 6   -112012.389 8
 92  4 15 18 52 30.0000000  0  4 18 11 14 19
  20223864.281     -238595.315 8   -139096.473 8
  24718111.602     -516588.707 5   -301942.687 2
  24482310.055      264041.879 5    128296.358 2
  21007909.813     -287470.173 6   -167948.712 8
 92  4 15 18 53  0.0000000  0  4 18 11 14 19
  20212662.219     -297461.715 8   -184966.420 8
  24693526.406     -645782.377 5   -402612.691 2
  24494786.906      329583.569 3    179367.190 1
  20994269.742     -359169.221 6   -223818.074 8
 92  4 15 18 53 30.0000000  0  4 18 11 14 19
  20201521.508     -356018.947 8   -230595.463 8
  24668933.094     -774989.426 4   -503293.106 2
  24507234.805      394955.961 3    230306.017 1
  20980635.500     -430785.667 6   -279623.074 8
 92  4 15 18 54  0.0000000  0  4 18 11 14 19
  20190428.109     -414310.494 8   -276017.471 8
  24644343.305     -904233.171 5   -604002.094 1
  24519632.516      460128.475 3    281089.180 1
  20967017.922     -502354.017 6   -335390.594 8
 92  4 15 18 54 29.9990000  0  5 18 11 14 19  2
  20179379.651     -472369.190 8   -321258.040 8
  24619737.495    -1033528.485 5   -704751.357 1
  24531989.120      525063.283 3    331687.025 1
  20953401.776     -573907.617 6   -391146.622 8
  24784759.245          -0.59915
 92  4 15 18 54 59.9990000  0  5 18 11 14 19  2
  20168371.722     -530213.259 8   -366331.364 8
  24595120.948    -1162871.429 5   -805537.715 2
  24544300.948      589765.910 3    382104.047 1
  20939786.026     -645464.447 6   -446905.167 8
  24756509.722     -148453.694 5
 92  4 15 18 55 29.9990000  0  5 18 11 14 19  2
  20157404.479     -587845.608 8   -411239.718 8
  24570507.987    -1292251.395 5   -906352.987 2
  24556562.034      654226.403 3    432332.372 1
  20926167.253     -717041.716 6   -502679.635 8
  24728243.581     -296997.594 5
 92  4 15 18 55 59.9990000  0  5 18 11 14 19  2
  20146479.979     -645253.216 8   -455972.938 8
  24545883.917    -1421661.253 5  -1007191.536 1
  24568784.245      718435.546 3    482364.897 2
  20912538.886     -788638.672 6   -558469.439 8
  24699955.261     -445632.704 4
 92  4 15 18 56 29.9990000  0  4 18 11 19  2
  20135602.839     -702423.536 8   -500521.266 8
  24521241.917    -1551103.614 5  -1108055.448 2
  20898910.534     -860258.710 6   -614277.241 8
  24671646.542     -594355.466 3    -57953.82411
 92  4 15 18 56 59.9990000  0  4 18 11 19  2
  20124774.198     -759319.029 8   -544855.448 8
  24496615.331    -1680548.955 5  -1208921.659 2
  20885286.261     -931859.348 6   -670069.921 8
  24643339.245     -743146.266 4   -173894.277 1
 92  4 15 18 57 29.9990000  0  4 18 11 19  2
  20114003.644     -815916.800 8   -588957.634 8
  24471983.464    -1809981.922 5  -1309778.264 2
  20871670.690    -1003412.277 6   -725825.432 8
  24615017.792     -891998.561 5   -289882.683 3
 92  4 15 18 57 59.9990000  0  4 18 11 19  2
  20103300.495     -872171.516 8   -632792.512 8
  24447362.050    -1939359.910 4  -1410592.024 2
  20858071.214    -1074870.412 6   -781507.070 8
  24586689.479    -1040857.118 5   -405875.967 3
 92  4 15 18 58 29.9990000  0  4 18 11 19  2
  20092664.261     -928065.992 8   -676346.679 8
  24422758.769    -2068647.742 3  -1511335.582 2
  20844498.261    -1146200.316 6   -837088.794 8
  24558366.823    -1189687.797 5   -521847.550 2
 92  4 15 18 58 59.9990000  0  4 18 11 19  2
  20082086.729     -983646.583 8   -719656.266 8
  24398169.159    -2197882.518 4  -1612037.797 3
  20830944.433    -1217440.955 6   -892600.960 8
  24530042.753    -1338531.029 5   -637828.910 2
 92  4 15 18 59 29.9990000  0  4 18 11 19  2
  20071570.487    -1038911.158 8   -762719.594 8
  24373580.862    -2327062.568 3  -1712697.380 4
  20817398.987    -1288599.726 6   -948049.333 8
  24501717.620    -1487370.479 5   -753807.366 1
 92  4 15 18 59 59.9990000  0  4 18 11 19  2
  20061108.425    -1093887.722 8   -805558.504 8
  24349006.440    -2456220.706 3  -1813339.844 3
  20803865.354    -1359711.827 6  -1003461.344 8
  24473388.644    -1636225.008 4   -869797.544 2
 92  4 15 19  0 29.9990000  0  4 18 11 19  2
  20050710.417    -1148535.414 8   -848141.150 8
  24324436.878    -2585323.673 3  -1913939.358 3
  20790350.495    -1430747.886 6  -1058814.097 8
  24445066.261    -1785071.773 4   -985781.692 2
 92  4 15 19  0 59.9990000  0  4 18 11 19  2
  20040369.979    -1202868.051 8   -890478.296 8
  24299877.722    -2714386.284 3  -2014507.426 3
  20776839.378    -1501741.772 6  -1114133.991 8
  24416746.058    -1933924.662 5  -1101770.601 3
 92  4 15 19  1 29.9990000  0  4 18 11 19  2
  20030089.151    -1256891.579 8   -932574.582 8
  24275326.339    -2843406.184 3  -2115042.216 5
  20763336.722    -1572698.367 6  -1169424.830 8
  24388416.823    -2082783.490 5  -1217764.145 2
 92  4 15 19  1 59.9990000  0  4 18 11 19  2
  20019863.722    -1310632.508 8   -974450.653 8
  24250777.480    -2972402.631 3  -2215558.686 4
  20749836.901    -1643651.333 6  -1224712.838 8
  24360078.440    -2231684.976 4  -1333790.932 4
 92  4 15 19  2 29.9990000  0  4 18 11 19  2
  20009698.987    -1364049.371 8  -1016074.202 8
  24226249.636    -3101315.039 4  -2316009.695 4
  20736344.058    -1714545.620 6  -1279955.127 8
  24331740.651    -2380583.276 3  -1449815.235 4
 92  4 15 19  2 59.9990000  0  4 18 11 19  2
  19999599.347    -1417124.028 8  -1057431.105 8
  24201737.323    -3230115.525 4  -2416373.489 4
  20722871.112    -1785353.019 6  -1335129.714 8
  24303409.573    -2529444.917 3  -1565810.985 5
 92  4 15 19  3 29.9990000  0  4 18 11 19  2
  19989560.487    -1469876.572 8  -1098537.001 8
  24177237.386    -3358837.842 5  -2516676.363 5
  20709412.870    -1856088.242 6  -1390248.053 8
  24275089.237    -2678314.386 4  -1681812.817 4
 92  4 15 19  3 59.9990000  0  4 18 11 19  2
  19979583.854    -1522307.291 8  -1139392.133 8
  24152764.808    -3487490.810 5  -2616925.195 5
  20695961.776    -1926759.817 6  -1445316.799 8
  24246755.229    -2827203.531 5  -1797829.976 5
 92  4 15 19  4 29.9990000  0  4 18 11 19  2
  19969663.058    -1574441.014 8  -1180015.832 8
  24128291.987    -3616099.021 5  -2717139.170 5
  20682522.019    -1997389.596 6  -1500352.984 8
  24218416.745    -2976121.155 5  -1913869.320 5
 92  4 15 19  4 59.9990000  0  4 18 11 19  2
  19959802.026    -1626259.949 8  -1220394.244 8
  24103825.854    -3744650.521 5  -2817308.940 5
  20669092.237    -2067970.943 6  -1555351.417 8
  24190074.347    -3125052.594 5  -2029919.423 5
 92  4 15 19  5 29.9990000  0  4 18 11 19  2
  19949997.823    -1677780.312 8  -1260540.000 8
  24079371.667    -3873155.105 5  -2917442.141 4
  20655669.136    -2138516.584 6  -1610322.035 8
  24161728.628    -3274020.401 5  -2145997.873 4
 92  4 15 19  5 59.9990000  0  4 18 11 19  2
  19940249.323    -1729013.361 8  -1300461.877 8
  24054928.261    -4001611.268 5  -3017537.620 3
  20642246.480    -2209036.835 6  -1665272.869 8
  24133375.433    -3423014.058 5  -2262096.463 5
 92  4 15 19  6 29.9990000  0  4 18 11 19  2
  19930552.964    -1779966.875 8  -1340165.933 8
  24030492.315    -4130013.039 5  -3117590.699 4
  20628831.026    -2279529.254 6  -1720202.016 8
  24105017.394    -3572041.469 5  -2378221.372 4
 92  4 15 19  6 59.9990000  0  5 18 11  6 19  2
  19920912.354    -1830626.396 8  -1379640.899 8
  24006071.620    -4258337.291 5  -3217583.371 5
  24509279.933          -0.73412
  20615428.190    -2349966.851 6  -1775088.444 8
  24076649.667    -3721100.040 5  -2494370.555 5
 92  4 15 19  7 29.9990000  0  5 18 11  6 19  2
  19911335.081    -1880957.194 8  -1418859.728 8
  23981673.870    -4386551.367 5  -3317490.212 4
  24485796.104     -123406.204 2
  20602040.589    -2420312.722 6  -1829903.395 8
  24048282.323    -3870160.753 5  -2610521.402 4
 92  4 15 19  7 59.9990000  0  5 18 11  6 19  2
  19901819.034    -1930964.705 8  -1457826.644 8
  23957296.675    -4514653.452 5  -3417309.739 4
  24462318.644     -246805.054 3    -48077.97813
  20588668.120    -2490582.414 6  -1884658.982 9
  24019921.269    -4019222.032 5  -2726672.687 3
 92  4 15 19  8 29.9990000  0  5 18 11  6 19  2
  19892369.511    -1980617.605 8  -1496517.227 8
  23932947.675    -4642612.210 5  -3517017.615 2
  24438842.839     -370169.545 3   -144205.940 2
  20575316.425    -2560759.367 6  -1939342.299 9
  23991557.979    -4168252.142 5  -2842799.722 3
 92  4 15 19  8 59.9990000  0  5 18 11  6 19  2
  19882990.995    -2029903.699 8  -1534922.000 8
  23908630.479    -4770417.159 5  -3616605.615 3
  24415374.495     -493492.739 3   -240301.758 2
  20561980.784    -2630838.187 6  -1993949.160 9
  23963212.651    -4317217.408 5  -2958876.223 4
 92  4 15 19  9 29.9990000  0  5 18 11  6 19  2
  19873680.003    -2078831.325 8  -1573047.442 8
  23884334.073    -4898076.305 5  -3716080.023 1
  24391907.386     -616786.356 3   -336374.490 2
  20548661.972    -2700847.945 6  -2048502.205 9
  23934877.542    -4466107.654 5  -3074894.256 3
 92  4 15 19  9 59.9990000  0  5 18 11  6 19  2
  19864437.269    -2127401.043 8  -1610893.992 8
  23860068.745    -5025586.875 5  -3815438.634 1
  24368453.167     -740051.226 2   -432424.806 1
  20535347.050    -2770804.817 6  -2103014.035 9
  23906564.948    -4614919.373 5  -3190851.121 2
 92  4 15 19 10 29.9980000  0  5 18 11  6 19  2
  19855264.529    -2175611.148 8  -1648460.335 8
  23835833.693    -5152948.511 5  -3914681.181 2
  24345003.037     -863290.705 3   -528455.291 1
  20522047.725    -2840688.345 6  -2157468.724 9
  23878259.943    -4763635.802 5  -3306733.735 2
 92  4 15 19 10 59.9980000  0  5 18 11  6 19  2
  19846158.334    -2223460.487 8  -1685745.559 8
  23811625.092    -5280163.121 5  -4013809.164 2
  24321557.803     -986509.839 3   -624469.981 2
  20508765.451    -2910486.726 6  -2211857.064 9
  23849972.342    -4912272.775 5  -3422554.460 4
 92  4 15 19 11 29.9980000  0  6 18 11  6 19  2 16
  19837125.240    -2270934.482 8  -1722738.310 8
  23787452.092    -5407219.793 5  -4112814.067 4
  24298115.748    -1109701.554 3   -720463.284 2
  20495502.670    -2980189.111 6  -2266170.598 9
  23821706.904    -5060840.236 5  -3538321.008 3
  24350252.053          -0.93114
 92  4 15 19 11 59.9980000  0  6 18 11  6 19  2 16
  19828159.107    -2318048.722 8  -1759450.737 8
  23763293.701    -5534140.525 5  -4211713.063 3
  24274671.225    -1232891.385 3   -816455.113 2
  20482253.912    -3049805.797 6  -2320417.354 9
  23793444.068    -5209378.786 5  -3654064.987 4
  24326172.146     -126475.558 3
 92  4 15 19 12 29.9980000  0  6 18 11  6 19  2 16
  19819257.240    -2364826.216 8  -1795900.760 8
  23739163.951    -5660943.652 5  -4310520.413 2
  24251223.475    -1356101.205 3   -912462.533 2
  20469022.936    -3119351.176 6  -2374608.549 9
  23765172.467    -5357918.589 5  -3769809.982 3
  24302160.865     -252713.149 4
 92  4 15 19 12 59.9980000  0  6 18 11  6 19  2 16
  19810430.225    -2411219.831 8  -1832051.662 8
  23715064.865    -5787581.088 5  -4409198.652 4
  24227782.686    -1479287.024 4  -1008451.217 2
  20455804.092    -3188804.813 6  -2428728.261 9
  23736903.522    -5506439.905 5  -3885540.590 4
  24278193.482     -378684.775 5    -49050.60713
 92  4 15 19 13 29.9980000  0  6 18 11  6 19  2 16
  19801685.272    -2457173.277 8  -1867859.578 8
  23691006.295    -5913993.379 5  -4507701.486 3
  24204357.686    -1602392.557 4  -1104377.377 1
  20442613.928    -3258116.218 6  -2482737.143 9
  23708659.475    -5654886.964 5  -4001213.313 4
  24254280.717     -504335.198 5   -146960.036 3
 92  4 15 19 13 59.9980000  0  6 18 11  6 19  2 16
  19793019.951    -2502707.798 8  -1903341.055 8
  23666998.201    -6040189.628 5  -4606035.945 3
  24180942.295    -1725430.697 3  -1200251.035 1
  20429452.381    -3327299.494 6  -2536646.184 9
  23680426.162    -5803266.324 5  -4116833.290 4
  24230431.850     -629656.858 5   -244613.238 2
 92  4 15 19 14 29.9980000  0  6 18 11  6 19  2 16
  19784426.490    -2547864.569 8  -1938528.184 8
  23643017.217    -6166198.215 5  -4704224.193 4
  24157539.725    -1848433.488 4  -1296097.167 2
  20416303.592    -3396388.934 6  -2590482.101 9
  23652198.990    -5951591.281 5  -4232410.886 4
  24206643.717     -754670.711 5   -342026.653 1
 92  4 15 19 14 59.9980000  0  6 18 11  6 19  2 16
  19775914.865    -2592595.736 8  -1973383.670 8
  23619081.045    -6291976.974 5  -4802233.379 5
  24134145.131    -1971362.269 4  -1391885.608 1
  20403179.545    -3465335.083 6  -2644206.371 9
  23623994.818    -6099799.659 5  -4347897.634 2
  24182920.818     -879327.678 4   -439161.963 1
 92  4 15 19 15 29.9980000  0  6 18 11  6 19  2 16
  19767475.436    -2636945.641 8  -2007942.072 8
  23595185.709    -6417561.143 5  -4900090.942 4
  24110760.881    -2094255.948 4  -1487646.717 2
  20390083.576    -3534159.999 6  -2697836.168 9
  23595814.725    -6247910.722 5  -4463308.556 5
  24159260.654    -1003646.401 4   -536033.696 2
 92  4 15 19 15 59.9980000  0  6 18 11  6 19  2 16
  19759104.123    -2680935.293 8  -2042219.770 8
  23571322.084    -6542964.562 5  -4997807.666 4
  24087376.982    -2217131.725 3  -1583393.914 1
  20377008.951    -3602873.673 6  -2751379.287 9
  23567644.029    -6395927.100 5  -4578645.680 4
  24135668.014    -1127645.207 5   -632656.137 1
 92  4 15 19 16 29.9980000  0  6 18 11  6 19  2 16
  19750806.311    -2724544.728 8  -2076201.178 8
  23547494.084    -6668165.433 5  -5095366.585 4
  24064001.592    -2339971.533 3  -1679113.055 1
  20363955.342    -3671465.670 6  -2804827.595 9
  23539500.623    -6543835.162 5  -4693898.417 4
  24112135.240    -1251330.090 5
 92  4 15 19 16 59.9980000  0  6 18 11  6 19  2 16
  19742577.264    -2767787.082 8  -2109896.565 8
  23523705.959    -6793174.321 5  -5192775.895 4
  24040626.850    -2462789.601 3  -1774815.312 1
  20350921.326    -3739961.304 6  -2858200.811 9
  23511366.084    -6691670.159 5  -4809094.201 5
  24088644.014    -1374720.680 4        -0.01311
 92  4 15 19 17 29.9980000  0  6 18 11  6 19  2 16
  19734414.498    -2810679.987 8  -2143319.645 8
  23499954.443    -6917993.732 5  -5290037.583 4
  24017258.100    -2585592.075 3
  20337899.529    -3808391.439 6  -2911522.987 9
  23483245.639    -6839443.994 5  -4924242.322 4
  24065223.631    -1497821.673 5
 92  4 15 19 17 59.9980000  0  6 18 11  6 19  2 16
  19726321.576    -2853212.166 8  -2176461.643 8
  23476242.584    -7042614.341 5  -5387144.361 5
  23993892.678    -2708373.003 3
  20324889.779    -3876766.074 6  -2964801.924 9
  23455130.186    -6987153.029 5  -5039339.964 5
  24041855.693    -1620636.243 5
 92  4 15 19 18 29.9980000  0  6 18 11  6 19  2 16
  19718294.053    -2895393.570 8  -2209330.301 8
  23452560.537    -7167053.830 5  -5484110.031 3
  23970526.654    -2831153.848 3  -2061851.897 2
  20311880.959    -3945126.030 6  -3018069.420 9
  23427033.147    -7134819.921 5  -5154404.758 5
  24018537.264    -1743177.441 5   -287109.122 1
 92  4 15 19 18 59.9980000  0  6 18 11  6 19  2 16
  19710335.732    -2937222.281 8  -2241924.145 8
  23428908.053    -7291320.946 5  -5580941.363 3
  23947160.764    -2953946.673 2  -2157534.464 1
  20298873.311    -4013477.054 6  -3071329.959 9
  23398945.662    -7282432.927 5  -5269427.554 5
  23995266.811    -1865441.807 5   -382380.052 1
 92  4 15 19 19 29.9980000  0  6 18 11  6 19  2 16
  19702446.545    -2978674.282 8  -2274224.448 8
  23405300.014    -7415395.166 5  -5677622.416 5
  23923795.600    -3076734.926 3  -2253213.431 1
  20285873.506    -4081790.794 6  -3124561.447 9
  23370873.006    -7429968.777 5  -5384390.204 5
  23972059.365    -1987414.601 5   -477423.798 1
 92  4 15 19 19 59.9980000  0  6 18 11  6 19  2 16
  19694629.107    -3019751.904 8  -2306233.024 8
  23381723.678    -7539285.142 5  -5774159.878 5
  23900428.662    -3199530.802 2  -2348898.335 2
  20272882.115    -4150062.708 6  -3177760.348 9
  23342804.053    -7577455.051 5  -5499314.233 5
  23948900.412    -2109094.686 5   -572239.405 1
 92  4 15 19 20 29.9980000  0  6 18 11  6 19  2 16
  19686881.076    -3060477.366 8  -2337967.189 8
  23358184.662    -7663010.386 5  -5870568.983 4
  23877056.943    -3322357.102 3  -2444606.952 2
  20259896.545    -4218302.159 6  -3230933.941 9
  23314743.045    -7724914.672 5  -5614217.518 5
  23925803.061    -2230492.213 5   -666834.868 1
 92  4 15 19 20 59.9980000  0  6 18 11  6 19  2 16
  19679190.178    -3100889.026 8  -2369456.829 8
  23334668.123    -7786580.044 5  -5966856.872 4
  23853673.334    -3445226.484 2  -2540349.108 3
  20246919.662    -4286500.009 6  -3284075.125 9
  23286686.568    -7872366.627 5  -5729114.801 5
  23902754.568    -2351619.985 5   -761220.181 1
 92  4 15 19 21 29.9980000  0  6 18 11  6 19  2 16
  19671558.826    -3140990.328 8  -2400704.635 8
  23311187.490    -7909974.788 5  -6063008.434 5
  23830289.092    -3568123.700 2  -2636112.999 2
  20233953.139    -4354637.712 6  -3337169.445 9
  23258626.943    -8019815.364 5  -5844009.573 5
  23879756.006    -2472453.957 5   -855376.491 2
 92  4 15 19 21 59.9980000  0  6 18 11  6 19  2 16
  19663985.717    -3180786.028 8  -2431714.313 8
  23287738.850    -8033192.414 5
  23806897.311    -3691049.877 3
  20220999.920    -4422717.326 6  -3390218.500 9
  23230569.592    -8167246.150 5  -5958890.376 5
  23856819.787    -2592998.445 5   -949307.261 4
 92  4 15 19 22 29.9980000  0  6 18 11  6 19  2 16
  19656468.537    -3220294.430 8  -2462500.118 8
  23264320.967    -8156243.346 5
  23783498.232    -3814018.793 3
  20208052.514    -4490748.353 6  -3443229.695 9
  23202519.553    -8314647.854 5  -6073748.517 5
  23833926.959    -2713288.562 3  -1043039.771 3
 92  4 15 19 22 59.9980000  0  6 18 11  6 19  2 16
  19649004.139    -3259515.931 8  -2493062.362 8
  23240935.990    -8279129.162 5  -6350660.602 5
  23760084.443    -3937035.702 3  -2923576.151 3
  20195113.889    -4558737.618 6  -3496208.343 9
  23174479.920    -8462015.844 5  -6188580.369 5
  23811087.357    -2833339.527 4  -1136585.962 4
 92  4 15 19 23 29.9980000  0  6 18 11  6 19  2 16
  19641605.639    -3298398.692 8  -2523360.656 8
  23217586.873    -8401827.738 5  -6446269.675 5
  23736664.193    -4060082.219 3  -3019456.312 2
  20182187.959    -4626675.263 6  -3549146.765 9
  23146445.881    -8609324.978 5  -6303366.365 5
  23788290.717    -2953127.090 4  -1229926.931 4
 92  4 15 19 23 59.9980000  0  6 18 11  6 19  2 16
  19634272.998    -3336935.412 8  -2553389.311 8
  23194275.537    -8524345.148 5  -6541737.586 5
  23713246.982    -4183167.864 2  -3115366.951 3
  20169264.311    -4694584.505 6  -3602063.058 9
  23118423.709    -8756572.854 5  -6418104.648 5
  23765538.693    -3072654.771 3  -1323065.376 5
 92  4 15 19 24 29.9980000  0  6 18 11  6 19  2 16
  19627004.537    -3375129.350 8  -2583150.863 8
  23170995.420    -8646690.003 5  -6637071.007 5
  23689816.170    -4306304.662 3  -3211317.473 4
  20156343.787    -4762476.361 6  -3654965.800 9
  23090413.248    -8903775.195 5  -6532807.442 5
  23742848.928    -3191917.210 3  -1415997.147 5
 92  4 15 19 24 59.9970000  0  6 18 11  6 19  2 16
  19619801.728    -3412979.937 8  -2612644.873 8
  23147743.110    -8768861.516 5  -6732269.351 5
  23666373.876    -4429495.523 3  -3307310.097 4
  20143428.321    -4830366.453 6  -3707867.168 9
  23062406.142    -9050956.049 5  -6647493.502 5
  23720211.228    -3310891.120 3  -1508704.114 4
 92  4 15 19 25 29.9970000  0  6 18 11  6 19  2 16
  19612661.821    -3450502.021 8  -2641882.905 8
  23124526.899    -8890871.823 5  -6827342.090 5
  23642917.681    -4552755.971 3  -3403356.921 3
  20130502.634    -4898276.070 6  -3760783.757 9
  23034395.431    -9198140.522 5  -6762182.393 5
  23697626.485    -3429582.975 3  -1601191.310 4
 92  4 15 19 25 59.9970000  0  6 18 11  6 19  2 16
  19605583.267    -3487699.682 8  -2670868.145 8
  23101342.759    -9012697.501 5  -6922270.936 5
  23619453.720    -4676066.073 3  -3499442.446 3
  20117579.626    -4966184.477 6  -3813699.405 9
  23006390.017    -9345309.486 5  -6876859.208 5
  23675088.501    -3547981.146 3  -1693449.601 4
 92  4 15 19 26 29.9970000  0  6 18 11  6 19  2 16
  19598568.157    -3524562.861 8  -2699592.749 8
  23078198.064    -9134308.568 5  -7017032.550 5
  23595984.954    -4799399.548 3  -3595546.181 3
  20104669.790    -5034041.093 6  -3866574.695 9
  22978392.392    -9492439.398 5  -6991505.599 5
  23652623.118    -3666069.368 4  -1785466.394 5
 92  4 15 19 26 59.9970000  0  6 18 11  6 19  2 16
  19591616.665    -3561090.528 7  -2728055.921 8
  23055099.728    -9255691.343 5  -7111616.263 5
  23572512.665    -4922745.966 3  -3691659.995 4
  20091766.384    -5101841.595 6  -3919406.256 9
  22950407.251    -9639522.978 5  -7106115.878 5
  23630212.228    -3783844.287 4  -1877239.064 4
 92  4 15 19 27 29.9970000  0  6 18 11  6 19  2 16
  19584729.696    -3597283.943 8  -2756258.632 8
  23032046.673    -9376833.557 5  -7206012.531 5
  23549039.892    -5046096.806 3  -3787777.292 5
  20078874.470    -5169571.445 6  -3972182.765 9
  22922430.314    -9786537.677 5  -7220672.500 5
  23607854.071    -3901307.754 4  -1968769.024 4
 92  4 15 19 27 59.9970000  0  6 18 11  6 19  2 16
  19577905.892    -3633144.126 8  -2784201.687 8
  23009040.298    -9497735.829 5  -7300221.834 5
  23525565.228    -5169456.141 4  -3883901.179 5
  20066002.149    -5237222.573 6  -4024897.937 9
  22894463.915    -9933480.056 5  -7335172.790 5
  23585558.306    -4018452.056 4  -2060050.303 3
 92  4 15 19 28 29.9970000  0  6 18 11  6 19  2 16
  19571142.313    -3668690.423 8  -2811900.160 8
  22986074.360    -9618429.977 5  -7394268.972 5
  23502080.220    -5292859.200 4  -3980059.173 4
  20053137.321    -5304831.695 6  -4077580.382 9
  22866512.868   -10080376.112 5  -7449636.997 5
  23563329.103    -4135297.940 5  -2151099.068 3
 92  4 15 19 28 59.9970000  0  6 18 11  6 19  2 16
  19564443.032    -3703892.822 7  -2839330.661 8
  22963150.517    -9738895.466 5  -7488137.912 5
  23478589.009    -5416288.971 3  -4076237.944 3
  20040279.259    -5372401.355 6  -4130232.070 9
  22838570.423   -10227205.744 5  -7564049.423 5
  23541156.454    -4251823.359 4  -2241898.082 2
 92  4 15 19 29 29.9970000  0  6 18 11  6 19  2 16
  19557823.774    -3738681.308 8  -2866438.624 8
  22940283.321    -9859061.532 5  -7581773.572 5
  23455110.017    -5539678.001 3  -4172385.020 2
  20027443.923    -5439856.700 6  -4182794.682 9
  22810654.243   -10373893.697 5  -7678351.467 5
  23519058.501    -4367955.893 5  -2332390.950 2
 92  4 15 19 29 59.9970000  0  6 18 11  6 19  2 16
  19551292.517    -3773004.216 8  -2893183.806 7
  22917483.290    -9978888.563 6  -7675145.028 5
  23431644.610    -5662990.267 3  -4268472.244 2
  20014635.689    -5507158.496 6  -4235237.651 9
  22782775.595   -10520394.198 5  -7792507.467 5
  23497038.751    -4483664.531 5  -2422553.530 2
 92  4 15 19 30 29.9970000  0  6 18 11  6 19  2 16
  19544846.399    -3806876.118 8  -2919577.557 8
  22894742.946   -10098382.888 5  -7768257.252 5
  23408193.149    -5786235.521 4  -4364507.242 2
  20001858.915    -5574319.700 6  -4287571.065 9
  22754933.095   -10666722.078 5  -7906528.941 5
  23475097.423    -4598973.058 5  -2512404.322 3
 92  4 15 19 30 59.9970000  0  6 18 11  6 19  2 16
  19538473.532    -3840369.033 8  -2945675.989 8
  22872055.243   -10217598.498 5  -7861152.301 5
  23384741.189    -5909471.094 4  -4460534.718 4
  19989089.196    -5641405.906 6  -4339846.039 9
  22727109.509   -10812942.924 5  -8020467.008 5
  23453217.157    -4713940.341 4  -2601989.233 1
 92  4 15 19 31 29.9970000  0  6 18 11  6 19  2 16
  19532167.064    -3873506.320 7  -2971497.308 8
  22849420.970   -10336550.130 5  -7953841.672 5
  23361284.579    -6032715.338 4  -4556568.955 5
  19976335.243    -5708429.929 6  -4392072.562 9
  22699299.001   -10959078.546 5  -8134338.696 5
  23431403.142    -4828580.149 5  -2691318.947 2
 92  4 15 19 31 59.9970000  0  6 18 11  6 19  2 16
  19525927.524    -3906297.506 8  -2997048.939 8
  22826832.884   -10455248.523 5  -8046333.720 5
  23337828.829    -6155982.443 3  -4652621.034 4
  19963588.853    -5775411.552 6  -4444266.045 9
  22671499.735   -11105159.089 5  -8248167.459 5
  23409646.790    -4942910.956 4  -2780407.904 1
 92  4 15 19 32 29.9970000  0  6 18 11  6 19  2 16
  19519752.837    -3938744.918 8  -3022332.695 8
  22804294.118   -10573684.525 5  -8138621.323 5
  23314367.274    -6279266.562 3  -4748686.325 2
  19950849.024    -5842363.295 6  -4496436.242 9
  22643713.360   -11251195.254 5  -8361961.636 5
  23387951.728    -5056915.272 4  -2869242.430 3
 92  4 15 19 32 59.9970000  0  6 18 11  6 19  2 16
  19513645.595    -3970840.480 8  -3047342.276 8
  22781806.587   -10691853.190 5  -8230700.606 5
  23290904.884    -6402566.071 4  -4844763.654 3
  19938112.399    -5909281.365 6  -4548580.205 9
  22615928.962   -11397174.137 5  -8475711.185 5
  23366320.040    -5170589.393 4  -2957819.684 3
 92  4 15 19 33 29.9970000  0  6 18 11  6 19  2 16
  19507607.196    -4002570.533 8  -3072067.044 8
  22759368.048   -10809754.186 5  -8322571.309 5
  23267436.181    -6525884.294 4  -4940855.547 2
  19925389.579    -5976154.752 6  -4600689.348 9
  22588163.923   -11543090.742 6  -8589412.226 5
  23344750.884    -5283946.151 4  -3046149.647 2
 92  4 15 19 33 59.9970000  0  6 18 11  6 19  2 16
  19501642.446    -4033914.978 7  -3096491.340 8
  22736986.118   -10927374.814 5  -8414223.570 5
  23243966.774    -6649211.692 4  -5036954.594 2
  19912671.392    -6042981.314 6  -4652762.006 9
  22560416.876   -11688920.052 6  -8703045.211 5
  23323243.204    -5396970.898 3  -3134220.933 3
 92  4 15 19 34 29.9970000  0  6 18 11  6 19  2 16
  19495753.251    -4064865.087 8  -3120608.356 8
  22714662.462   -11044698.534 5  -8505644.493 5
  23220503.454    -6772535.157 4  -5133050.571 2
  19899970.603    -6109736.240 6  -4704778.840 9
  22532688.548   -11834622.466 6  -8816579.330 5
  23301803.626    -5509632.577 3  -3222009.256 3
 92  4 15 19 34 59.9970000  0  6 18 11  6 19  2 16
  19489947.009    -4095376.304 8  -3144383.375 8
  22692403.798   -11161678.101 5  -8596797.231 5
  23197045.095    -6895810.457 4  -5229109.030 3
  19887293.501    -6176352.965 6  -4756687.988 9
  22504992.907   -11980142.971 5  -8929971.710 6
  23280442.079    -5621887.005 4  -3309480.269 2
 92  4 15 19 35 29.9970000  0  6 18 11  6 19  2 16
  19484227.087    -4125438.529 8  -3167808.537 8
  22670209.110   -11278299.457 5  -8687670.859 5
  23173596.821    -7019027.559 3  -5325122.142 1
  19874642.696    -6242822.641 6  -4808482.556 9
  22477339.938   -12125474.388 6  -9043216.752 5
  23259163.595    -5733712.020 4  -3396616.699 2
 92  4 15 19 35 59.9970000  0  6 18 11  6 19  2 16
  19478582.774    -4155100.656 8  -3190921.924 8
  22648077.509   -11394599.657 5  -8778294.243 5
  23150155.899    -7142226.542 4  -5421121.168 4
  19862014.493    -6309186.814 6  -4860194.909 9
  22449713.235   -12270651.280 6  -9156341.380 5
  23237959.681    -5845126.398 4  -3483433.118 3
 92  4 15 19 36 29.9970000  0  6 18 11  6 19  2 16
  19473006.517    -4184397.836 7  -3213750.943 8
  22626004.939   -11510592.778 5  -8868678.357 5
  23126710.626    -7265424.674 4  -5517119.479 2
  19849406.157    -6375446.552 6  -4911825.884 9
  22422110.009   -12415697.174 6  -9269363.932 5
  23216835.399    -5956151.584 5  -3569946.300 4
 92  4 15 19 36 59.9970000  0  6 18 11  6 19  2 16
  19467508.681    -4213297.835 8  -3236270.460 8
  22603998.243   -11626242.971 6  -8958795.254 5
  23103272.634    -7388589.483 4  -5613091.837 2
  19836822.126    -6441574.385 6  -4963354.081 9
  22394541.884   -12560585.411 6  -9382263.651 5
  23195786.423    -6066762.805 5  -3656136.912 4
 92  4 15 19 37 29.9970000  0  6 18 11  6 19  2 16
  19462090.657    -4241761.138 7  -3258449.711 8
  22582064.626   -11741509.578 5  -9048613.255 5
  23079848.673    -7511683.714 4  -5709009.210 2
  19824272.438    -6507545.780 6  -5014760.379 9
  22367007.571   -12705268.727 6  -9495003.692 5
  23174822.478    -6176908.905 5  -3741965.043 4
 92  4 15 19 37 59.9970000  0  6 18 11  6 19  2 16
  19456752.837    -4269812.078 7  -3280307.622 8
  22560197.540   -11856414.532 6  -9138149.453 5
  23056434.313    -7634732.542 4  -5804891.207 3
  19811740.493    -6573382.182 6  -5066061.493 9
  22339504.603   -12849775.708 5  -9607606.328 5
  23153951.001    -6286614.036 5  -3827449.600 4
 92  4 15 19 38 29.9960000  0  6 18 11  6 19  2 16
  19451499.270    -4297428.363 7  -3301826.845 8
  22538407.152   -11970936.090 6  -9227386.911 5
  23033029.551    -7757717.283 3  -5900723.251 3
  19799240.293    -6639071.864 6  -5117248.274 9
  22312046.113   -12994092.624 6  -9720060.872 5
  23133155.066    -6395880.638 5  -3912592.435 4
 92  4 15 19 38 59.9960000  0  6 18 11  6 19  2 16
  19446325.363    -4324611.239 7  -3323008.353 8
  22516681.449   -12085097.447 6  -9316343.703 5
  23009634.082    -7880664.683 3  -5996526.240 2
  19786762.754    -6704661.223 6  -5168356.886 9
  22284615.832   -13138249.735 6  -9832390.866 5
  23112443.910    -6504731.365 5  -3997411.235 4
 92  4 15 19 39 29.9960000  0  6 18 11  6 19  2 16
  19441230.535    -4351383.378 7  -3343869.807 8
  22495021.145   -12198915.670 6  -9405033.102 5
  22986242.277    -8003595.152 4  -6092316.033 2
  19774294.816    -6770172.861 6  -5219404.930 9
  22257204.066   -13282277.573 6  -9944620.141 5
  23091802.363    -6613187.521 5  -4081922.546 3
 92  4 15 19 39 59.9960000  0  6 18 11  6 19  2 16
  19436210.207    -4377767.530 7  -3364428.933 8
  22473424.879   -12312407.209 6  -9493467.963 5
  22962842.316    -8126528.495 3  -6188108.076 3
  19761837.098    -6835618.757 6  -5270401.754 9
  22229813.004   -13426213.870 5 -10056778.094 5
  23071236.941    -6721282.311 5  -4166152.295 3
 92  4 15 19 40 29.9960000  0  6 18 11  6 19  2 16
  19431252.965    -4403814.876 7  -3384725.617 8
  22451881.262   -12425615.830 6  -9581682.377 5
  22939441.246    -8249511.230 3  -6283938.570 3
  19749386.434    -6901052.503 6  -5321389.109 9
  22202435.559   -13570101.545 6 -10168898.154 6
  23050725.840    -6829055.659 5  -4250131.575 2
 92  4 15 19 40 59.9960000  0  6 18 11  6 19  2 16
  19426366.238    -4429493.239 7  -3404734.771 8
  22430401.535   -12538501.662 6  -9669645.258 5
  22916035.457    -8372506.679 3  -6379778.973 3
  19736947.285    -6966431.384 6  -5372333.713 9
  22175069.496   -13713908.271 6 -10280955.136 5
  23030289.746    -6936444.895 5  -4333811.508 3
 92  4 15 19 41 29.9960000  0  6 18 11  6 19  2 16
  19421560.731    -4454751.963 8  -3424416.941 8
  22408991.793   -12651007.629 5  -9757312.134 5
  22892638.918    -8495461.314 3  -6475587.598 3
  19724528.449    -7031682.815 6  -5423179.007 9
  22147731.613   -13857568.555 6 -10392898.007 6
  23009936.793    -7043403.354 5  -4417155.791 4
 92  4 15 19 41 59.9960000  0  6 18 11  6 19  2 16
  19416843.559    -4479543.438 7  -3443735.027 8
  22387662.004   -12763088.533 6  -9844647.819 5
  22869258.441    -8618332.918 3  -6571331.489 3
  19712143.082    -7096768.517 6  -5473895.163 9
  22120434.160   -14001015.947 6 -10504674.999 5
  22989675.941    -7149888.151 5  -4500131.020 4
 92  4 15 19 42 29.9960000  0  6 18 11  6 19  2 16
  19412211.918    -4503876.885 7  -3462696.206 8
  22366411.293   -12874755.169 5  -9931660.695 5
  22845888.387    -8741135.478 3  -6667021.601 3
  19699783.934    -7161710.004 6  -5524498.939 9
  22093177.973   -14144241.687 6 -10616279.258 6
  22969496.066    -7255908.739 5  -4582744.467 3
 92  4 15 19 42 59.9960000  0  6 18 11  6 19  2 16
  19407663.887    -4527779.162 7  -3481321.413 8
  22345239.809   -12986031.883 6 -10018369.760 5
  22822529.160    -8863896.433 3  -6762679.298 2
  19687454.832    -7226527.471 6  -5575006.071 9
  22065962.652   -14287256.516 6 -10727719.193 6
  22949406.074    -7361497.690 5  -4665021.622 4
 92  4 15 19 43 29.9960000  0  6 18 11  6 19  2 16
  19403190.801    -4551286.124 7  -3499638.579 8
  22324131.066   -13096942.809 5 -10104793.765 5
  22799170.340    -8986643.095 4  -6858325.848 4
  19675135.934    -7291245.895 6  -5625436.042 9
  22038786.512   -14430074.431 6 -10839005.675 6
  22929387.738    -7466688.387 5  -4746988.426 2
 92  4 15 19 43 59.9960000  0  6 18 11  6 19  2 16
  19398789.566    -4574412.773 7  -3517659.410 8
  22303094.574   -13207493.766 6 -10190937.294 5
  22775812.699    -9109384.208 4  -6953968.084 4
  19662835.566    -7355875.942 6  -5675797.140 9
  22011639.582   -14572724.302 6 -10950161.214 6
  22909449.254    -7571469.634 5  -4828636.201 1
 92  4 15 19 44 29.9960000  0  6 18 11  6 19  2 16
  19394461.777    -4597155.832 7  -3535381.335 8
  22282128.652   -13317672.959 6 -10276791.125 5
  22752461.848    -9232111.666 4  -7049599.674 4
  19650557.926    -7420402.187 6  -5726077.349 9
  21984525.465   -14715218.188 6 -11061195.234 6
  22889589.949    -7675822.808 5  -4909950.390 2
 92  4 15 19 44 59.9960000  0  6 18 11  6 19  2 16
  19390208.941    -4619505.980 7  -3552797.096 8
  22261236.066   -13427467.559 6 -10362345.291 5
  22729111.934    -9354815.158 4  -7145212.585 4
  19638303.910    -7484799.941 6  -5776257.443 9
  21957440.410   -14857558.145 6 -11172109.265 6
  22869818.777    -7779732.375 5  -4990918.884 3
 92  4 15 19 45 29.9960000  0  6 18 11  6 19  2 16
  19386036.207    -4641437.042 7  -3569886.297 8
  22240420.668   -13536855.300 6 -10447582.426 5
  22705763.863    -9477475.728 3  -7240792.055 3
  19626073.566    -7549061.129 6  -5826331.115 9
  21930381.152   -14999745.812 6 -11282904.657 5
  22850132.465    -7883177.838 5  -5071525.815 2
 92  4 15 19 45 59.9960000  0  6 18 11  6 19  2 16
  19381946.566    -4662928.182 7  -3586632.709 8
  22219681.027   -13645838.549 6 -10532504.358 5
  22682434.035    -9600098.743 4  -7336342.250 4
  19613868.762    -7613203.718 6  -5876312.373 9
  21903349.863   -15141794.066 6 -11393591.435 6
  22830534.738    -7986169.525 5  -5151779.097 2
 92  4 15 19 46 29.9960000  0  6 18 11  6 19  2 16
  19377937.801    -4683996.674 7  -3603049.785 8
  22199015.762   -13754431.559 6 -10617122.206 5
  22659101.160    -9722701.562 4  -7431876.723 3
  19601683.707    -7677238.937 6  -5926209.963 9
  21876348.441   -15283695.526 6 -11504163.816 6
  22811013.988    -8088739.127 5  -5231703.474 2
 92  4 15 19 46 59.9960000  0  6 18 11  6 19  2 16
  19374007.980    -4704646.879 7  -3619140.925 8
  22178424.981   -13862641.090 6 -10701441.251 5
  22635772.606    -9845293.811 4  -7527402.947 4
  19589519.449    -7741180.113 6  -5976034.270 9
  21849373.582   -15425446.045 6 -11614618.588 6
  22791576.902    -8190905.125 5  -5311313.392 2
 92  4 15 19 47 29.9960000  0  6 18 11  6 19  2 16
  19370157.121    -4724880.470 7  -3634907.428 8
  22157909.285   -13970463.644 6 -10785458.739 5
  22612450.105    -9967875.134 4  -7622920.656 4
  19577366.465    -7805033.607 6  -6025790.250 9
  21822427.863   -15567043.384 6 -11724954.005 6
  22772209.707    -8292673.511 5  -5390613.484 2
 92  4 15 19 47 59.9960000  0  6 18 11  6 19  2 16
  19366386.043    -4744704.165 7  -3650354.551 8
  22137463.137   -14077892.733 6 -10869169.632 5
  22589125.379   -10090441.940 4  -7718427.071 5
  19565236.981    -7868768.878 6  -6075454.112 9
  21795517.793   -15708462.175 6 -11835150.290 6
  22752916.145    -8394046.789 4  -5469605.692 2
 92  4 15 19 48 29.9960000  0  6 18 11  6 19  2 16
  19362687.949    -4764138.137 7  -3665497.975 8
  22117096.121   -14184919.477 6 -10952567.027 5
  22565801.629   -10212988.691 4  -7813917.880 4
  19553133.981    -7932376.335 6  -6125018.379 9
  21768642.168   -15849685.164 6 -11945194.017 6
  22733709.285    -8495007.624 5  -5548276.513 3
 92  4 15 19 48 59.9960000  0  6 18 11  6 19  2 16
  19359067.809    -4783157.634 7  -3680318.446 8
  22096811.824   -14291514.765 6 -11035628.197 5
  22542489.848   -10335488.619 4  -7909372.192 4
  19541055.504    -7995848.543 6  -6174477.254 9
  21741808.543   -15990700.920 6 -12055076.267 6
  22714576.152    -8595521.413 4  -5626599.001 2
 92  4 15 19 49 29.9960000  0  6 18 11  6 19  2 16
  19355527.676    -4801758.887 7  -3694813.017 8
  22076611.184   -14397664.715 6 -11118342.358 6
  22519191.816   -10457931.049 4  -8004781.714 4
  19529003.340    -8059176.704 6  -6223823.877 9
  21715014.879   -16131500.224 6 -12164789.846 6
  22695539.957    -8695570.420 4  -5704559.266 2
 92  4 15 19 49 59.9960000  0  6 18 11  6 19  2 16
  19352065.809    -4819955.714 7  -3708992.443 8
  22056498.449   -14503372.034 6 -11200711.586 6
  22495902.949   -10580321.366 5  -8100150.629 4
  19516980.434    -8122378.493 6  -6273072.029 9
  21688260.152   -16272082.672 6 -12274334.454 6
  22676593.520    -8795147.671 5  -5782151.993 3
 92  4 15 19 50 29.9960000  0  6 18 11  6 19  2 16
  19348680.340    -4837747.472 7  -3722856.245 8
  22036465.371   -14608638.025 6 -11282736.924 5
  22472621.184   -10702663.955 5  -8195482.330 4
  19504970.723    -8185483.378 6  -6322244.679 9
  21661546.426   -16412467.560 6 -12383725.127 6
  22657728.832    -8894253.465 4  -5859377.289 3
 92  4 15 19 50 59.9960000  0  6 18 11  6 19  2 16
  19345375.715    -4855108.278 7  -3736384.232 8
  22016520.949   -14713447.848 6 -11364406.809 5
  22449350.465   -10824946.914 5  -8290767.578 4
  19492986.152    -8248453.585 6  -6371312.378 9
  21634871.207   -16552647.771 6 -12492956.311 6
  22638964.731    -8992881.394 5  -5936230.229 3
 92  4 15 19 51 29.9950000  0  6 18 11  6 19  2 16
  19342157.491    -4872027.974 7  -3749568.506 9
  21996665.601   -14817786.823 6 -11445709.809 5
  22426097.608   -10947157.639 5  -8385996.530 4
  19481038.796    -8311250.088 6  -6420244.720 9
  21608241.226   -16692602.541 6 -12602011.832 6
  22620286.515    -9091018.150 4  -6012700.442 2
 92  4 15 19 51 59.9950000  0  6 18 11  6 19  2 16
  19339024.147    -4888489.472 7  -3762395.746 8
  21976901.851   -14921649.534 6 -11526641.691 5
  22402854.827   -11069294.960 5  -8481168.284 4
  19469125.687    -8373850.028 6  -6469023.899 9
  21581649.366   -16832327.691 6 -12710888.432 6
  22601707.523    -9188656.350 5  -6088782.196 2
 92  4 15 19 52 29.9950000  0  6 18 11  6 19  2 16
  19335976.054    -4904501.152 7  -3774872.476 8
  21957223.155   -15025056.995 6 -11607218.833 5
  22379620.312   -11191381.847 4  -8576300.724 4
  19457249.077    -8436252.852 6  -6517649.482 9
  21555099.788   -16971848.914 6 -12819606.121 6
  22583221.077    -9285822.797 5  -6164496.358 3
 92  4 15 19 52 59.9950000  0  6 18 11  6 19  2 16
  19333018.624    -4920050.914 7  -3786989.273 8
  21937634.991   -15127998.908 6 -11687433.218 5
  22356399.538   -11313410.779 5  -8671388.028 5
  19445414.671    -8498445.306 6  -6566111.136 9
  21528591.687   -17111143.717 6 -12928147.396 6
  22564824.452    -9382497.469 5  -6239827.257 3
 92  4 15 19 53 29.9950000  0  6 18 11  6 19  2 16
  19330147.273    -4935143.246 7  -3798749.631 8
  21918132.679   -15230479.078 6 -11767287.795 6
  22333182.960   -11435388.678 4  -8766435.549 5
  19433610.577    -8560474.968 6  -6614445.948 9
  21502132.468   -17250210.357 6 -13036510.864 6
  22546518.601    -9478684.363 5  -6314778.103 3
 92  4 15 19 53 59.9950000  0  6 18 11  6 19  2 16
  19327361.515    -4949784.192 7  -3810158.258 8
  21898713.890   -15332507.516 6 -11846790.393 5
  22309981.601   -11557327.815 4  -8861452.864 5
  19421828.390    -8622383.988 6  -6662686.751 9
  21475708.827   -17389048.980 6 -13144696.644 6
  22528304.538    -9574400.339 5  -6389362.013 2
 92  4 15 19 54 29.9950000  0  6 18 11  6 19  2 16
  19324656.866    -4963987.975 7  -3821226.254 8
  21879386.608   -15434085.040 6 -11925941.615 5
  22286786.522   -11679231.929 5  -8956442.871 4
  19410065.530    -8684192.753 6  -6710849.435 9
  21449330.374   -17527672.876 6 -13252715.115 6
  22510180.710    -9669647.459 5  -6463580.568 3
 92  4 15 19 54 59.9950000  0  6 18 11  6 19  2 16
  19322038.968    -4977754.311 7  -3831953.358 9
  21860148.296   -15535192.960 6 -12004726.921 5
  22263598.569   -11801085.300 5  -9051393.363 5
  19398322.038    -8745913.939 6  -6758943.883 9
  21422994.991   -17666062.294 6 -13360550.865 6
  22492143.132    -9764416.899 4  -6537426.922 4
 92  4 15 19 55 29.9950000  0  6 18 11  6 19  2 16
  19319495.499    -4991114.689 7  -3842364.153 9
  21840993.155   -15635845.684 6 -12083157.520 5
  22240416.163   -11922904.849 5  -9146317.482 5
  19386594.288    -8807551.187 6  -6806972.922 9
  21396699.280   -17804251.039 6 -13468230.257 6
  22474195.937    -9858736.544 5  -6610922.768 4
 92  4 15 19 55 59.9950000  0  6 18 11  6 19  2 16
  19317031.608    -5004067.762 7  -3852457.563 8
  21821929.757   -15736027.614 6 -12161221.262 5
  22217242.765   -12044677.567 5  -9241205.122 4
  19374887.874    -8869056.831 6  -6854899.410 9
  21370439.710   -17942246.461 6 -13575759.017 6
  22456339.601    -9952589.699 5  -6684055.148 3
 92  4 15 19 56 29.9950000  0  6 18 11  6 19  2 16
  19314649.398    -5016584.326 7  -3862210.825 8
  21802962.163   -15835705.106 6 -12238891.934 5
  22194082.952   -12166372.507 4  -9336032.166 4
  19363220.132    -8930376.422 6  -6902680.925 9
  21344220.702   -18080032.244 6 -13683124.405 6
  22438574.491   -10045937.575 4  -6756793.793 3
 92  4 15 19 56 59.9950000  0  6 18 11  6 19  2 16
  19312352.312    -5028656.506 7  -3871617.822 9
  21784092.608   -15934865.749 6 -12316159.861 5
  22170943.694   -12287979.642 5  -9430790.805 5
  19351591.796    -8991483.836 6  -6950297.107 9
  21318045.273   -18217582.051 6 -13790305.923 6
  22420910.624   -10138765.412 5  -6829127.166 3
 92  4 15 19 57 29.9950000  0  6 18 11  6 19  2 16
  19310139.507    -5040288.272 7  -3880681.624 9
  21765319.202   -16033519.115 6 -12393032.492 6
  22147817.077   -12409511.310 5  -9525490.614 4
  19340007.562    -9052361.872 6  -6997734.554 9
  21291913.093   -18354901.602 6 -13897308.018 6
  22403345.187   -10231061.305 5  -6901046.114 4
 92  4 15 19 57 59.9950000  0  6 18 11  6 19  2 16
  19308010.562    -5051471.159 7  -3889395.662 9
  21746642.116   -16131663.666 6 -12469508.647 5
  22124704.429   -12530968.780 5  -9620132.619 5
  19328462.358    -9113018.476 6  -7044999.456 9
  21265829.819   -18491973.095 6 -14004116.829 6
  22385884.796   -10322810.960 5  -6972539.378 5
 92  4 15 19 58 29.9950000  0  6 18 11  6 19  2 16
  19305969.890    -5062196.326 7  -3897753.029 9
  21728065.624   -16229283.633 6 -12545576.039 5
  22101607.327   -12652338.625 5  -9714706.348 4
  19316963.163    -9173461.792 6  -7092098.157 9
  21239800.601   -18628760.652 6 -14110704.384 6
  22368533.358   -10413995.940 4  -7043592.632 4
 92  4 15 19 58 59.9950000  0  6 18 11  6 19  2 16
  19304015.640    -5072462.905 7  -3905753.043 9
  21709590.983   -16326368.643 6 -12621226.561 6
  22078529.382   -12773612.850 5  -9809205.555 5
  19305499.882    -9233698.662 6  -7139035.997 9
  21213826.694   -18765250.802 6 -14217060.185 6
  22351291.741   -10504615.714 5  -7114205.489 5
 92  4 15 19 59 29.9950000  0  6 18 11  6 19  2 16
  19302150.038    -5082271.095 7  -3913395.870 9
  21691213.796   -16422930.197 6 -12696469.223 6
  22055470.069   -12894805.424 5  -9903641.167 4
  19294071.921    -9293762.359 6  -7185838.892 9
  21187905.179   -18901468.282 6 -14323203.518 6
  22334146.523   -10594699.727 5  -7184400.885 4
 92  4 15 19 59 59.9950000  0  6 18 11  6 19  2 16
  19300373.921    -5091610.978 7  -3920673.782 8
  21672941.140   -16518960.524 6 -12771297.919 6
  22032421.437   -13015911.340 5  -9998009.225 4
  19282672.101    -9353670.675 6  -7232520.706 9
  21162033.202   -19037415.002 6 -14429135.874 6
  22317103.952   -10684267.103 5  -7254193.682 5
 92  4 15 20  0 29.9950000  0  6 18 11  6 19  2 16
  19298683.444    -5100488.674 7  -3927591.543 9
  21654767.858   -16614472.291 6 -12845722.537 6
  22009388.694   -13136945.503 5 -10092321.391 4
  19271297.202    -9413438.067 6  -7279092.710 9
  21136210.421   -19173117.477 6 -14534877.920 6
  22300150.632   -10773356.890 5  -7323614.311 3
 92  4 15 20  0 59.9950000  0  6 18 11  6 19  2 16
  19297084.249    -5108885.821 7  -3934134.851 9
  21636690.601   -16709457.979 6 -12919737.213 6
  21986371.155   -13257902.977 5 -10186573.778 4
  19259955.046    -9473035.665 6  -7325532.408 9
  21110434.866   -19308581.020 6 -14640433.787 6
  22283288.898   -10861984.998 5  -7392675.225 4
 92  4 15 20  1 29.9950000  0  6 18 11  6 19  2 16
  19295580.921    -5116795.235 7  -3940298.106 9
  21618716.452   -16803912.966 6 -12993338.359 6
  21963370.616   -13378781.382 5 -10280764.561 4
  19248649.390    -9532450.161 6  -7371829.434 9
  21084701.780   -19443795.669 6 -14745795.709 6
  22266509.718   -10950150.758 5  -7461375.879 3
 92  4 15 20  1 59.9950000  0  6 18 11  6 19  2 16
  19294163.718    -5124240.080 7  -3946099.357 8
  21600841.569   -16897844.005 6 -13066531.247 6
  21940380.366   -13499590.004 5 -10374900.964 5
  19237378.733    -9591672.950 6  -7417977.068 9
  21059019.069   -19578764.431 6 -14850966.035 6
  22249819.343   -11037844.010 5  -7529708.320 5
 92  4 15 20  2 29.9950000  0  6 18 11  6 19  2 16
  19292835.765    -5131220.580 7  -3951538.773 8
  21583070.780   -16991236.333 6 -13139304.363 6
  21917406.069   -13620316.308 5 -10468973.247 4
  19226154.976    -9650678.954 6  -7463955.783 9
  21033386.710   -19713459.644 6 -14955923.208 6
  22233229.179   -11125046.560 5  -7597658.393 5
 92  4 15 20  2 59.9950000  0  6 18 11  6 19  2 16
  19291593.171    -5137750.989 7  -3956627.478 9
  21565401.116   -17084088.122 6 -13211656.287 6
  21894445.944   -13740960.620 4 -10562981.617 4
  19214961.687    -9709483.283 6  -7509777.355 9
  21007809.655   -19847866.830 6 -15060655.947 6
  22216729.444   -11211727.460 5  -7665201.976 5
 92  4 15 20  3 29.9950000  0  6 18 11  6 19  2 16
  19290435.944    -5143832.222 7  -3961366.163 8
  21547833.937   -17176395.218 6 -13283583.783 6
  21871505.202   -13861521.413 5 -10656924.909 4
  19203805.030    -9768105.178 6  -7555456.766 9
  20982292.007   -19981968.803 6 -15165150.863 7
  22200340.702   -11297850.764 5  -7732311.112 4
 92  4 15 20  3 59.9950000  0  6 18 11  6 19  2 16
  19289366.999    -5149448.718 7  -3965742.724 9
  21530377.273   -17268138.611 6 -13355072.035 6
  21848583.687   -13981981.796 5 -10750789.959 5
  19192691.577    -9826527.529 6  -7600980.688 9
  20956834.827   -20115751.954 6 -15269397.353 7
  22184064.788   -11383394.135 5  -7798968.329 4
 92  4 15 20  4 29.9940000  0  6 18 11  6 19  2 16
  19288389.268    -5154589.179 7  -3969748.340 9
  21513029.150   -17359304.676 6 -13426110.413 6
  21825681.260   -14102329.352 5 -10844567.116 4
  19181610.322    -9884751.465 6  -7646350.001 9
  20931439.354   -20249200.504 6 -15373383.114 7
  22167898.143   -11468344.509 5  -7865163.461 4
 92  4 15 20  4 59.9940000  0  6 18 11  6 19  2 16
  19287498.822    -5159268.860 7  -3973394.911 9
  21495786.385   -17449918.036 6 -13496718.152 6
  21802796.057   -14222592.961 5 -10938278.852 4
  19170561.846    -9942800.194 6  -7691582.784 9
  20906100.135   -20382354.658 6 -15477139.475 7
  22151846.807   -11552712.607 5  -7930904.894 5
 92  4 15 20  5 29.9940000  0  6 18 11  6 19  2 16
  19286692.541    -5163496.385 7  -3976689.155 9
  21478647.221   -17539987.693 6 -13566902.222 6
  21779924.393   -14342782.719 5 -11031933.040 4
  19159552.408   -10000650.640 6  -7736661.063 9
  20880812.197   -20515237.496 6 -15580684.426 6
  22135893.182   -11636531.884 5  -7996218.640 5
 92  4 15 20  5 59.9940000  0  6 18 11  6 19  2 16
  19285977.627    -5167263.720 7  -3979624.817 9
  21461609.775   -17629507.848 6 -13636658.125 5
  21757068.104   -14462895.095 5 -11125526.922 4
  19148584.299   -10058296.038 6  -7781579.577 9
  20855576.025   -20647860.739 6 -15684027.090 7
  22120043.768   -11719822.322 5  -8061120.343 5
 92  4 15 20  6 29.9940000  0  6 18 11  6 19  2 16
  19285345.432    -5170581.980 7  -3982210.545 9
  21444678.932   -17718485.210 6 -13705991.079 6
  21734223.932   -14582938.945 5 -11219067.417 4
  19137652.283   -10115743.631 6  -7826343.955 9
  20830386.447   -20780234.352 6 -15787175.245 7
  22104295.307   -11802587.368 5  -8125612.655 5
 92  4 15 20  6 59.9940000  0  6 18 11  6 19  2 16
  19284801.111    -5173442.285 7  -3984439.433 9
  21427853.744   -17806904.360 6 -13774889.075 5
  21711398.611   -14702901.006 5 -11312544.182 5
  19126762.807   -10172969.138 6  -7870935.271 9
  20805245.799   -20912350.807 6 -15890123.019 7
  22088646.783   -11884824.195 5  -8189693.361 4
 92  4 15 20  7 29.9940000  0  6 18 11  6 19  2 16
  19284349.283    -5175818.469 7  -3986291.078 9
  21411140.619   -17894728.888 6 -13843323.741 6
  21688590.752   -14822746.961 5 -11405930.477 5
  19115918.018   -10229950.120 6  -7915336.053 9
  20780158.236   -21044177.193 6 -15992844.762 7
  22073097.994   -11966512.476 5  -8253346.621 5
 92  4 15 20  7 59.9940000  0  6 18 11  6 19  2 16
  19283989.650    -5177714.654 7  -3987768.706 9
  21394541.721   -17981955.843 6 -13911292.787 6
  21665806.854   -14942475.985 5 -11499225.660 4
  19105119.666   -10286716.534 6  -7959569.645 9
  20755130.182   -21175713.998 6 -16095340.858 7
  22057659.400   -12047637.683 5  -8316561.116 5
 92  4 15 20  8 29.9940000  0  6 18 11  6 19  2 16
  19283709.299    -5179186.420 7  -3988915.615 9
  21378052.072   -18068619.452 6 -13978822.869 6
  21643038.830   -15062124.040 5 -11592457.736 5
  19094349.229   -10343294.224 6  -8003656.178 9
  20730147.666   -21306985.999 6 -16197630.605 7
  22042329.502   -12128219.422 5  -8379352.120 5
 92  4 15 20  8 59.9940000  0  6 18 11  6 19  2 16
  19283509.479    -5180237.724 7  -3989734.898 9
  21361663.924   -18154725.929 6 -14045918.833 6
  21620283.986   -15181699.354 5 -11685633.142 5
  19083618.252   -10399692.316 6  -8047602.761 9
  20705217.557   -21437998.436 6 -16299718.092 7
  22027101.393   -12208268.618 5  -8441728.182 5
 92  4 15 20  9 29.9940000  0  6 18 11  6 19  2 16
  19283393.002    -5180842.233 7  -3990206.020 9
  21345385.830   -18240267.681 6 -14112574.754 6
  21597544.002   -15301196.715 5 -11778747.795 5
  19072922.213   -10455905.005 6  -8091404.878 9
  20680338.549   -21568740.845 6 -16401595.162 7
  22011964.400   -12287776.044 5  -8503682.089 5
 92  4 15 20  9 59.9940000  0  6 18 11  6 19  2 16
  19283365.127    -5180994.714 7
  21329215.330   -18325245.510 6 -14178791.269 6
  21574818.424   -15420618.785 5 -11871803.795 5
  19062263.729   -10511917.146 6  -8135050.722 9
  20655513.861   -21699203.371 6 -16503254.154 7
  21996941.432   -12366730.870 5  -8565205.380 5
 92  4 15 20 10 29.9940000  0  6 18 11  6 19  2 16
  19283420.229    -5180699.558 7
  21313151.088   -18409663.544 6 -14244571.585 6
  21552104.947   -15539971.113 5 -11964805.451 5
  19051645.815   -10567715.180 6  -8178529.729 9
  20630742.385   -21829370.033 6 -16604682.594 7
  21982019.807   -12445146.130 5  -8626308.226 5
 92  4 15 20 10 59.9940000  0  6 18 11  6 19  2 16
  19283568.971    -5179913.279 7  -3989482.430 9
  21297196.666   -18493500.767 6 -14309899.316 6
  21529408.705   -15659235.077 5 -12057738.233 3
  19041071.150   -10623285.277 6  -8221831.124 9
  20606030.393   -21959229.399 6 -16705871.575 7
  21967200.244   -12523026.869 5  -8686994.585 5
 92  4 15 20 11 29.9940000  0  6 18 11  6 19  2 16
  19283814.416    -5178634.438 7  -3988486.023 9
  21281356.119   -18576749.343 6 -14374768.374 6
  21506732.775   -15778404.495 5 -12150597.351 5
  19030538.291   -10678633.533 6  -8264959.656 9
  20581378.940   -22088772.144 6 -16806813.841 7
  21952478.025   -12600366.464 5  -8747259.255 5
 92  4 15 20 11 59.9940000  0  6 18 11  6 19  2 16
  19284145.525    -5176901.946 7  -3987136.119 9
  21265624.252   -18659421.587 6 -14439188.344 6
  21484069.557   -15897493.756 5 -12243394.009 5
  19020048.080   -10733783.969 6  -8307934.039 9
  20556786.775   -22218009.017 6 -16907517.776 7
  21937863.963   -12677184.703 5  -8807117.670 5
 92  4 15 20 12 29.9940000  0  6 18 11  6 19  2 16
  19284559.416    -5174718.860 7  -3985435.118 9
  21250002.400   -18741519.918 6 -14503161.098 6
  21461424.541   -16016506.768 5 -12336131.271 5
  19009584.690   -10788748.878 6  -8350763.855 9
  20532248.104   -22346957.987 6 -17007997.355 7
  21923346.182   -12753493.841 5  -8866579.380 5
 92  4 15 20 12 59.9940000  0  6 18 11  6 19  2 16
  19285060.916    -5172076.432 7  -3983376.183 9
  21234492.080   -18823021.331 6 -14566668.715 6
  21438796.416   -16135422.796 5 -12428792.931 5
  18999164.166   -10843509.787 6  -8393434.705 9
  20507766.463   -22475608.365 6 -17108244.270 7
  21908928.361   -12829260.243 5  -8925618.208 5
 92  4 15 20 13 29.9940000  0  6 18 11  6 19  2 16
  19285647.854    -5168995.563 7  -3980975.603 9
  21219097.994   -18903919.227 6 -14629706.055 6
  21416185.236   -16254236.381 5 -12521374.790 5
  18988785.236   -10898054.524 6  -8435937.117 9
  20483344.682   -22603941.125 6 -17208243.699 7
  21894615.041   -12904467.262 5  -8984221.145 5
 92  4 15 20 13 59.9940000  0  6 18 11  6 19  2 16
  19286317.627    -5165482.635 7  -3978238.365 9
  21203818.932   -18984218.972 6 -14692277.276 6
  21393593.775   -16372955.078 5 -12613882.714 5
  18978449.658   -10952368.259 6  -8478259.528 9
  20458980.432   -22731970.710 6 -17308006.905 7
  21880407.424   -12979128.777 5  -9042399.003 5
 92  4 15 20 14 29.9940000  0  6 18 11  6 19  2 16
  19287066.963    -5161537.276 7  -3975164.165 9
  21188650.307   -19063925.558 6 -14754386.292 6
  21371020.736   -16491585.157 5 -12706321.585 5
  18968156.096   -11006453.596 6  -8520403.959 9
  20434675.479   -22859701.087 6 -17407536.947 7
  21866303.885   -13053247.672 5  -9100154.048 5
 92  4 15 20 14 59.9940000  0  6 18 11  6 19  2 16
  19287900.291    -5157162.834 7  -3971755.633 9
  21173595.041   -19143032.315 6 -14816027.893 6
  21348460.236   -16610121.914 5 -12798687.737 5
  18957909.580   -11060315.197 6  -8562374.051 9
  20410430.065   -22987114.828 6 -17506820.264 7
  21852304.143   -13126820.284 5  -9157483.420 5
 92  4 15 20 15 29.9940000  0  6 18 11  6 19  2 16
  19288814.158    -5152361.659 7  -3968014.556 9
  21158654.486   -19221557.592 6 -14877216.380 6
  21325918.315   -16728585.353 5 -12890996.764 5
  18947694.018   -11113979.470 6  -8604190.385 9
  20386238.205   -23114240.392 6 -17605879.034 7
  21838402.463   -13199871.353 5  -9214406.390 5
 92  4 15 20 15 59.9940000  0  6 18 11  6 19  2 16
  19289813.174    -5147109.815 7  -3963922.328 9
  21143827.229   -19299481.943 6 -14937936.592 6
  21303394.619   -16846957.374 5 -12983234.553 5
  18937522.369   -11167433.528 6  -8645842.913 8
  20362103.588   -23241069.340 6 -17704706.683 7
  21824606.088   -13272361.967 5  -9270892.657 5
 92  4 15 20 16 29.9940000  0  6 18 11  6 19  2 16
  19290899.596    -5141409.164 7  -3959480.384 8
  21129112.916   -19376801.566 6 -14998185.581 6
  21280886.236   -16965235.911 5 -13075399.502 5
  18927392.971   -11220686.038 6  -8687338.394 9
  20338027.244   -23367585.152 6 -17803290.332 7
  21810924.689   -13344270.232 5  -9326925.138 5
 92  4 15 20 16 59.9940000  0  6 18 11  6 19  2 16
  19292069.322    -5135253.481 7  -3954683.869 9
  21114516.150   -19453510.834 6 -15057958.955 6
  21258395.565   -17083416.887 5 -13167488.434 5
  18917299.635   -11273717.637 6  -8728661.732 9
  20314012.736   -23493792.133 6 -17901633.319 7
  21797354.533   -13415587.361 5  -9382497.001 5
 92  4 15 20 17 29.9930000  0  6 18 11  6 19  2 16
  19293327.286    -5128649.722 7  -3949538.203 9
  21100030.896   -19529613.913 6 -15117259.963 6
  21235925.146   -17201504.506 5 -13259504.626 5
  18907250.544   -11326511.611 6  -8769799.906 9
  20290050.060   -23619699.336 6 -17999742.720 7
  21783893.794   -13486317.582 5  -9437611.529 5
 92  4 15 20 17 59.9930000  0  6 18 11  6 19  2 16
  19294668.411    -5121601.483 7  -3944046.182 9
  21085663.192   -19605111.161 6 -15176088.881 6
  21213469.997   -17319503.252 5 -13351451.584 5
  18897249.403   -11379067.607 6  -8810752.642 9
  20266152.403   -23745297.082 6 -18097610.991 7
  21770542.231   -13556466.654 5  -9492273.203 5
 92  4 15 20 18 29.9930000  0  6 18 11  6 19  2 16
  19296095.646    -5114104.711 7  -3938204.673 8
  21071415.091   -19679998.709 6 -15234442.697 6
  21191035.778   -17437409.492 5 -13443326.441 5
  18887294.239   -11431387.415 6  -8851521.341 9
  20242310.403   -23870584.160 6 -18195237.176 7
  21757300.646   -13626058.548 5  -9546500.723 5
 92  4 15 20 18 59.9930000  0  6 18 11  6 19  2 16
  19297604.466    -5106165.229 7  -3932018.181 8
  21057280.794   -19754272.476 6 -15292318.241 6
  21168614.575   -17555220.364 5 -13535126.978 5
  18877382.739   -11483471.728 6  -8892106.539 9
  20218524.810   -23995575.100 6 -18292632.610 7
  21744156.466   -13695117.472 5  -9600312.947 5
 92  4 15 20 19 29.9930000  0  6 18 11  6 19  2 16
  19299198.880    -5097796.755 7  -3925497.410 8
  21043263.028   -19827939.372 6 -15349720.905 6
  21146212.966   -17672944.257 5 -13626859.754 5
  18867511.911   -11535345.038 6  -8932527.313 9
  20194796.442   -24120270.145 6 -18389797.474 7
  21731117.224   -13763666.540 5  -9653727.896 5
 92  4 15 20 19 59.9930000  0  6 18 11  6 19  2 16
  19300868.653    -5089018.070 7  -3918656.986 8
  21029354.286   -19901017.427 6 -15406664.716 6
  21123820.341   -17790600.746 5 -13718539.992 5
  18857673.442   -11587042.447 6  -8972811.020 9
  20171121.489   -24244685.364 6 -18486744.297 7
  21718167.192   -13831721.664 5  -9706757.949 5
 92  4 15 20 20 29.9930000  0  6 18 11  6 19  2 16
  19302618.271    -5079824.388 7  -3911493.199 8
  21015566.372   -19973494.998 6 -15463140.629 6
  21101450.544   -17908179.440 5 -13810159.642 5
  18847877.872   -11638541.343 6  -9012940.044 9
  20147500.739   -24368803.785 6 -18583459.845 7
  21705306.349   -13899281.992 5  -9759402.438 5
 92  4 15 20 20 59.9930000  0  6 18 11  6 19  2 16
  19304448.716    -5070212.276 7  -3904003.347 8
  21001886.661   -20045368.620 6 -15519145.939 6
  21079091.466   -18025677.884 5 -13901716.732 5
  18838113.747   -11689826.001 6  -9052902.122 9
  20123943.942   -24492603.617 6 -18679927.137 7
  21692547.552   -13966337.558 5  -9811653.580 5
 92  4 15 20 21 29.9930000  0  6 18 11  6 19  2 16
  19306357.872    -5060169.509 7  -3896177.931 8
  20988325.810   -20116636.601 6 -15574679.335 6
  21056743.700   -18143095.755 5 -13993211.056 5
  18828397.841   -11740885.916 6  -9092689.076 9
  20100445.950   -24616073.419 6 -18776137.263 7
  21679891.153   -14032861.333 5  -9863490.377 5
 92  4 15 20 21 59.9930000  0  6 18 11  6 19  2 16
  19308350.646    -5049698.637 7  -3888018.909 8
  20974877.810   -20187300.739 6 -15629742.216 6
  21034416.677   -18260436.142 5 -14084644.974 5
  18818726.005   -11791717.839 6  -9132298.382 8
  20077012.942   -24739219.729 6 -18872095.338 7
  21667336.364   -14098834.786 5  -9914898.367 5
 92  4 15 20 22 29.9930000  0  6 18 11  6 19  2 16
  19310424.310    -5038803.459 7  -3879529.273 8
  20961545.411   -20257364.294 6 -15684337.128 6
  21012099.974   -18377703.472 5 -14176021.952 5
  18809098.013   -11842312.430 6  -9171722.745 9
  20053639.958   -24862053.869 6 -18967810.139 7
  21654887.067   -14164256.087 5  -9965876.104 5
 92  4 15 20 22 59.9930000  0  6 18 11  6 19  2 16
  19312577.567    -5027492.322 7  -3870715.511 8
  20948326.536   -20326838.159 6 -15738472.537 6
  20989798.177   -18494909.623 5 -14267351.294 5
  18799511.739   -11892683.804 6  -9210973.178 9
  20030318.122   -24984608.618 6 -19063307.248 7
  21642538.153   -14229123.318 5 -10016422.101 5
 92  4 15 20 23 29.9930000  0  6 18 11  6 19  2 16
  19314805.466    -5015783.884 7  -3861592.164 8
  20935214.755   -20395732.578 6 -15792156.442 6
  20967503.677   -18612065.999 5 -14358641.855 5
  18789965.966   -11942851.859 6  -9250065.180 9
  20007042.638   -25106910.213 6 -19158607.099 7
  21630303.896   -14293445.095 5 -10066543.058 5
 92  4 15 20 23 59.9930000  0  6 18 11  6 19  2 16
  19317109.599    -5003676.773 7  -3852158.151 8
  20922217.474   -20464034.006 6 -15845378.293 6
  20945219.552   -18729160.434 5 -14449884.133 5
  18780457.825   -11992809.531 6  -9288993.254 9
  19983825.411   -25228931.423 6 -19253688.464 7
  21618166.903   -14357220.534 5 -10116238.304 5
 92  4 15 20 24 29.9930000  0  6 18 11  6 19  2 16
  19319489.271    -4991175.225 7  -3842416.807 8
  20909331.356   -20531743.256 6 -15898138.719 6
  20922949.638   -18846194.471 5 -14541079.333 5
  18770997.169   -12042558.019 6  -9327758.318 9
  19960660.513   -25350662.620 6 -19348543.851 7
  21606129.325   -14420474.898 5 -10165527.532 4
 92  4 15 20 24 59.9930000  0  6 18 11  6 19  2 16
  19321942.692    -4978279.561 7  -3832368.345 8
  20896561.841   -20598849.344 6 -15950429.164 6
  20900691.481   -18963158.316 5 -14632219.864 5
  18761564.958   -12092100.707 6  -9366363.023 9
  19937553.692   -25472083.700 6 -19443157.588 7
  21594191.810   -14483210.486 5 -10214412.528 4
 92  4 15 20 25 29.9930000  0  6 18 11  6 19  2 16
  19324466.778    -4965014.132 7  -3822031.767 8
  20883905.614   -20665362.814 6 -16002257.831 6
  20878448.028   -19080063.377 5 -14723314.590 5
  18752171.669   -12141458.618 6  -9404823.761 9
  19914507.278   -25593191.521 6 -19537527.240 7
  21582348.341   -14545438.877 5 -10262902.309 5
 92  4 15 20 25 59.9930000  0  6 18 11  6 19  2 16
  19327067.349    -4951355.085 7  -3811388.467 8
  20871363.677   -20731266.089 6 -16053611.030 6
  20856212.216   -19196893.282 5 -14814350.754 5
  18742818.403   -12190609.448 6  -9443123.123 9
  19891522.583   -25713972.219 6 -19631641.972 7
  21570608.036   -14607147.708 5 -10310987.216 5
 92  4 15 20 26 29.9930000  0  6 18 11  6 19  2 16
  19329743.372    -4937293.105 7  -3800431.203 8
  20858940.200   -20796559.309 6 -16104488.864 6
  20833995.138   -19313649.048 5 -14905329.146 5
  18733507.958   -12239549.580 6  -9481258.305 9
  19868597.606   -25834454.821 6 -19725524.428 7
  21558964.950   -14668331.976 5 -10358663.383 5
 92  4 15 20 26 59.9930000  0  6 18 11  6 19  2 16
  19332490.474    -4922850.186 7  -3789177.108 8
  20846627.317   -20861263.419 6 -16154907.643 6
  20811788.091   -19430352.421 5 -14996266.728 5
  18724228.747   -12288305.207 6  -9519249.725 9
  19845720.489   -25954680.668 7 -19819206.826 7
  21547421.278   -14728996.979 5 -10405934.931 5
 92  4 15 20 27 29.9930000  0  6 18 11  6 19  2 16
  19335314.677    -4908013.715 7  -3777616.348 8
  20834426.622   -20925376.093 6 -16204865.581 6
  20789590.481   -19547001.810 5 -15087162.237 5
  18714990.474   -12336869.840 6  -9557092.318 9
  19822890.161   -26074644.594 6 -19912685.120 7
  21535976.614   -14789136.328 5 -10452796.878 5
 92  4 15 20 27 59.9930000  0  6 18 11  6 19  2 16
  19338212.778    -4892791.744 7  -3765755.207 8
  20822334.981   -20988914.618 6 -16254376.134 6
  20767397.403   -19663615.435 5 -15178029.866 5
  18705780.599   -12385250.741 6  -9594791.746 9
  19800106.458   -26194369.239 6 -20005976.970 8
  21524628.536   -14848776.653 5 -10499269.964 5
 92  4 15 20 28 29.9930000  0  6 18 11  6 19  2 16
  19341180.036    -4877181.038 7  -3753591.143 8
  20810356.583   -21051861.060 6 -16303425.319 6
  20745217.403   -19780176.041 5 -15268856.171 5
  18696609.614   -12433441.278 6  -9632342.830 9
  19777374.505   -26313833.151 6 -20099065.648 7
  21513372.294   -14907906.225 5 -10545345.051 5
 92  4 15 20 28 59.9930000  0  6 18 11  6 19  2 16
  19344223.685    -4861197.046 7  -3741136.215 8
  20798491.661   -21114216.296 6 -16352013.828 6
  20723047.911   -19896685.630 5 -15359642.753 6
  18687482.263   -12481432.350 6  -9669738.500 9
  19754692.599   -26433019.222 6 -20191937.818 7
  21502220.435   -14966534.150 5 -10591029.278 5
 92  4 15 20 29 29.9930000  0  6 18 11  6 19  2 16
  19347340.833    -4844820.504 7  -3728375.409 8
  20786741.575   -21175960.811 6 -16400126.456 6
  20700890.552   -20013125.133 5 -15450374.709 5
  18678392.161   -12529192.392 6  -9706954.142 9
  19732072.591   -26551898.466 7 -20284570.912 8
  21491163.271   -15024649.065 5 -10636313.753 5
 92  4 15 20 29 59.9920000  0  6 18 11  6 19  2 16
  19350533.836    -4828034.345 7  -3715295.432 8
  20775113.492   -21237069.643 6 -16447743.737 6
  20678751.148   -20129468.316 5 -15541031.612 6
  18669349.188   -12576695.104 6  -9743969.262 9
  19709512.024   -26670451.655 7 -20376949.925 8
  21480201.492   -15082228.225 5 -10681180.760 5
 92  4 15 20 30 29.9920000  0  6 18 11  6 19  2 16
  19353805.406    -4810839.813 7  -3701897.221 8
  20763603.203   -21297548.828 6 -16494870.391 6
  20656625.266   -20245725.683 5 -15631621.656 5
  18660356.016   -12623949.465 6  -9780790.871 9
  19687011.969   -26788679.650 6 -20469075.545 8
  21469350.094   -15139263.091 5 -10725623.617 4
 92  4 15 20 30 59.9920000  0  6 18 11  6 19  2 16
  19357156.570    -4793239.151 7  -3688182.565 8
  20752214.969   -21357409.282 6 -16541514.910 6
  20634518.297   -20361906.853 5 -15722152.318 5
  18651412.703   -12670960.992 6  -9817423.251 9
  19664578.063   -26906582.844 6 -20560948.075 8
  21458600.195   -15195755.620 5 -10769643.888 5
 92  4 15 20 31 29.9920000  0  6 18 11  6 19  2 16
  19360582.773    -4775232.540 7  -3674151.587 8
  20740938.836   -21416658.256 6 -16587682.962 6
  20612420.414   -20478019.907 5 -15812629.913 5
  18642507.445   -12717754.367 6  -9853885.650 9
  19642202.500   -27024162.694 6 -20652568.645 8
  21447953.391   -15251707.281 5 -10813242.714 5
 92  4 15 20 31 59.9920000  0  6 18 11  6 19  2 16
  19364087.938    -4756808.847 7  -3659795.611 8
  20729782.023   -21475282.220 6 -16633363.980 6
  20590342.883   -20594051.851 5 -15903044.305 5
  18633644.781   -12764329.016 6  -9890177.612 9
  19619892.492   -27141404.046 6 -20743925.443 8
  21437412.047   -15307100.999 5 -10856406.805 5
 92  4 15 20 32 29.9920000  0  6 18 11  6 19  2 16
  19367665.586    -4738009.618 7  -3645147.006 8
  20718738.883   -21533319.253 6 -16678587.657 6
  20568271.664   -20710040.943 5 -15993425.322 5
  18624816.281   -12810716.327 6  -9926323.592 9
  19597637.742   -27258350.034 7 -20835052.088 8
  21426969.758   -15361977.993 5 -10899168.255 4
 92  4 15 20 32 59.9920000  0  6 18 11  6 19  2 16
  19371313.500    -4718843.122 7  -3630212.231 8
  20707806.141   -21590767.096 6 -16723352.216 6
  20546204.617   -20825985.583 5 -16083771.676 5
  18616029.297   -12856911.064 6  -9962319.524 9
  19575438.266   -27375014.092 7 -20925959.061 8
  21416616.375   -15416361.251 5 -10941544.951 4
 92  4 15 20 33 29.9920000  0  6 18 11  6 19  2 16
  19375027.133    -4699330.272 7  -3615007.561 8
  20696985.875   -21647632.085 6 -16767662.612 6
  20524147.539   -20941892.764 5 -16174088.839 5
  18607270.633   -12902917.117 6  -9998168.420 9
  19553286.875   -27491413.598 7 -21016659.886 8
  21406360.461   -15470276.024 5 -10983556.596 5
 92  4 15 20 33 59.9920000  0  6 18 11  6 19  2 16
  19378802.344    -4679491.222 7  -3599548.727 8
  20686275.484   -21703915.749 6 -16811520.013 6
  20502101.242   -21057764.109 5
  18598554.227   -12948727.858 6 -10033865.125 9
  19531184.609   -27607563.864 7
  21396190.266   -15523740.827 5 -11025217.620 5
 92  4 15 20 34 29.9920000  0  6 18 11  6 19  2 16
  19382640.070    -4659328.333 7  -3583837.540 8
  20675677.648   -21759606.721 6 -16854915.576 6
  20480059.672   -21173588.852 5
  18589878.094   -12994320.045 6 -10069391.522 9
  19509133.258   -27723450.782 7
  21386099.524   -15576750.935 5 -11066524.337 5
 92  4 15 20 34 59.9920000  0  6 18 11  6 19  2 16
  19386538.578    -4638840.505 7  -3567873.163 8
  20665196.914   -21814693.709 6 -16897840.501 6
  20458028.914   -21289355.825 5 -16444838.905 6
  18581243.039   -13039695.873 6 -10104749.332 9
  19487134.352   -27839043.666 6 -21287540.194 8
  21376101.836   -15629300.834 5 -11107472.463 5
 92  4 15 20 35 29.9920000  0  6 18 11  6 19  2 16
  19390493.453    -4618053.031 7  -3551675.310 8
  20654823.922   -21869196.438 6 -16940310.155 6
  20436007.039   -21405085.106 5 -16535017.459 6
  18572644.781   -13084878.521 6 -10139956.608 9
  19465193.359   -27954347.695 6 -21377387.400 8
  21366188.273   -15681390.858 5 -11148062.216 5
 92  4 15 20 35 59.9920000  0  6 18 11  6 19  2 16
  19394509.211    -4596955.429 7  -3535235.783 7
  20644562.703   -21923116.340 6 -16982325.659 6
  20413992.945   -21520778.745 5 -16625168.227 6
  18564084.219   -13129866.623 6 -10175012.288 9
  19443306.867   -28069355.109 7 -21467003.484 8
  21356364.781   -15733006.640 5 -11188282.430 5
 92  4 15 20 36 29.9920000  0  6 18 11  6 19  2 16
  19398586.477    -4575530.064 7  -3518540.865 7
  20634414.727   -21976447.351 6 -17023882.284 6
  20391981.133   -21636430.507 5 -16715286.369 6
  18555563.125   -13174651.073 6 -10209909.279 9
  19421480.766   -28184059.105 6 -21556383.140 8
  21346636.453   -15784129.171 5 -11228118.306 4
 92  4 15 20 36 59.9920000  0  6 18 11  6 19  2 16
  19402729.211    -4553762.258 7  -3501579.123 7
  20624377.477   -22029186.524 6 -17064977.727 6
  20369984.742   -21752037.982 5 -16805369.998 6
  18547081.320   -13219233.224 6 -10244648.633 9
  19399711.523   -28298468.953 7 -21645533.593 8
  21337005.945   -15834754.298 5 -11267566.574 5
 92  4 15 20 37 29.9920000  0  6 18 11  6 19  2 16
  19406938.609    -4531634.250 7  -3484336.687 7
  20614454.617   -22081336.449 6 -17105614.025 6
  20347991.219   -21867603.846 5 -16895421.214 6
  18538638.078   -13263601.899 6 -10279221.650 9
  19377988.008   -28412603.279 6 -21734469.364 8
  21327467.781   -15884873.659 5 -11306620.771 5
 92  4 15 20 37 59.9920000  0  6 18 11  6 19  2 16
  19411223.891    -4509125.176 7  -3466797.323 7
  20604644.289   -22132886.517 6 -17145782.897 6
  20326010.508   -21983117.188 5 -16985431.505 5
  18530235.305   -13307747.066 6 -10313620.492 9
  19356323.774   -28526465.949 7 -21823193.443 8
  21318027.953   -15934490.832 5 -11345283.628 5
 92  4 15 20 38 29.9920000  0  6 18 11  6 19  2 16
  19415574.797    -4486244.509 7  -3448968.427 7
  20594948.773   -22183841.171 6 -17185487.819 6
  20304036.992   -22098582.963 5 -17075404.719 5
  18521874.742   -13351679.848 6 -10347853.845 9
  19334702.961   -28640077.604 7 -21911721.933 8
  21308679.453   -15983617.777 5 -11383564.499 5
 92  4 15 20 38 59.9920000  0  6 18 11  6 19  2 16
  19420006.102    -4462980.625 7  -3430840.898 7
  20585365.258   -22234197.410 6 -17224726.434 6
  20282078.047   -22213998.206 5 -17165338.560 6
  18513557.438   -13395400.193 6 -10381921.666 9
  19313130.555   -28753430.960 6 -22000049.154 8
  21299421.094   -16032251.159 5 -11421460.802 4
 92  4 15 20 39 29.9920000  0  6 18 11  6 19  2 16
  19424493.609    -4439367.645 7  -3412441.349 7
  20575891.664   -22283974.545 6 -17263513.817 6
  20260118.000   -22329382.164 5 -17255248.021 6
  18505273.508   -13438934.521 6 -10415844.544 9
  19291608.984   -28866538.886 7 -22088185.137 8
  21290257.313   -16080412.880 5 -11458989.537 4
 92  4 15 20 39 59.9920000  0  6 18 11  6 19  2 16
  19429052.328    -4415441.612 7  -3393797.863 7
  20566529.352   -22333188.492 6 -17301862.340 6
  20238165.016   -22444750.880 5 -17345145.619 6
  18497023.031   -13482295.275 6 -10449632.166 9
  19270129.977   -28979410.537 7 -22176136.998 8
  21281178.031   -16128119.330 5 -11496163.550 4
 92  4 15 20 40 29.9920000  0  6 18 11  6 19  2 16
  19433665.805    -4391179.543 7  -3374892.537 7
  20557277.594   -22381807.246 6 -17339747.075 6
  20216218.375   -22560072.386 5 -17435006.421 6
  18488808.938   -13525445.469 6 -10483255.714 9
  19248706.648   -29091992.060 7 -22263862.785 8
  21272194.766   -16175329.760 5 -11532951.035 2
 92  4 15 20 40 59.9920000  0  6 18 11  6 19  2 16
  19438349.930    -4366590.893 7  -3355732.734 7
  20548140.586   -22429822.496 6 -17377161.559 6
  20194284.586   -22675337.911 5 -17524823.590 6
  18480640.633   -13568370.122 6 -10516703.519 9
  19227343.469   -29204250.223 7 -22351336.604 8
  21263309.602   -16222035.516 5 -11569345.290 4
 92  4 15 20 41 29.9920000  0  6 18 11  6 19  2 16
  19443077.969    -4341699.419 6  -3336336.952 7
  20539115.984   -22477242.513 6 -17414112.221 6
  20172359.023   -22790555.913 5 -17614603.747 6
  18472518.391   -13611074.439 6 -10549979.636 9
  19206042.680   -29316189.111 7 -22438561.634 8
  21254517.406   -16268245.984 5 -11605353.593 5
 92  4 15 20 41 59.9920000  0  6 18 11  6 19  2 16
  19447877.891    -4316511.895 7  -3316710.476 7
  20530204.594   -22524081.810 6 -17450610.362 6
  20150442.516   -22905740.771 5 -17704358.065 6
  18464430.898   -13653560.054 6 -10583085.333 9
  19184800.953   -29427818.026 7 -22525545.124 8
  21245811.961   -16313975.584 5 -11640987.192 5
 92  4 15 20 42 29.9920000  0  6 18 11  6 19  2 16
  19452723.578    -4291041.412 7  -3296863.523 7
  20521397.094   -22570352.014 6 -17486665.065 6
  20128522.977   -23020903.909 5 -17794095.483 6
  18456381.922   -13695846.115 6 -10616035.539 9
  19163614.188   -29539156.704 7 -22612302.464 8
  21237197.406   -16359249.470 5 -11676265.681 5
 92  4 15 20 42 59.9910000  0  6 18 11  6 19  2 16
  19457624.276    -4265297.853 7  -3276803.802 7
  20512701.112   -22616062.457 6 -17522283.587 6
  20106612.925   -23136051.955 5 -17883821.125 6
  18448369.526   -13737948.015 6 -10648842.240 9
  19142476.034   -29650234.459 7 -22698856.472 8
  21228670.511   -16404080.734 5 -11711199.301 5
 92  4 15 20 43 29.9910000  0  6 18 11  6 19  2 16
  19462574.355    -4239264.574 6  -3256518.292 7
  20504110.987   -22661204.173 6 -17557458.944 6
  20084708.972   -23251180.507 6 -17973531.582 6
  18440395.925   -13779862.196 6 -10681502.660 9
  19121384.198   -29761074.493 7 -22785225.247 8
  21220219.784   -16448469.695 5 -11745788.238 5
 92  4 15 20 43 59.9910000  0  6 18 11  6 19  2 16
  19467588.519    -4212942.720 7  -3236007.936 7
  20495629.183   -22705774.664 6 -17592189.184 6
  20062802.558   -23366284.377 5 -18063222.808 6
  18432453.526   -13821589.959 6 -10714017.824 9
  19100336.815   -29871673.049 7 -22871405.852 8
  21211858.175   -16492430.549 5 -11780043.598 5
 92  4 15 20 44 29.9910000  0  6 18 11  6 19  2 16
  19472650.917    -4186323.572 7  -3215265.933 7
  20487257.487   -22749757.713 6 -17626461.687 6
  20040908.472   -23481347.165 6 -18152882.040 6
  18424548.722   -13863134.064 6 -10746389.874 9
  19079339.183   -29982018.895 7 -22957389.550 8
  21203574.597   -16535941.056 5 -11813948.040 5
 92  4 15 20 44 59.9910000  0  6 18 11  6 19  2 16
  19477777.073    -4159392.634 7  -3194280.980 7
  20479000.659   -22793149.702 6 -17660273.603 6
  20019018.034   -23596364.881 6 -18242506.125 6
  18416674.651   -13904501.054 6 -10778623.919 9
  19058392.167   -30092103.148 7 -23043169.398 8
  21195384.089   -16578983.291 5 -11847487.612 4
 92  4 15 20 45 29.9910000  0  6 18 11  6 19  2 16
  19482956.628    -4132155.329 6  -3173057.287 7
  20470856.269   -22835950.858 6
  19997139.065   -23711336.985 6 -18332094.671 6
  18408841.245   -13945685.845 6 -10810715.992 9
  19037495.433   -30201912.182 7 -23128734.793 8
  21187281.745   -16621556.182 5
 92  4 15 20 45 59.9910000  0  6 18 11  6 19  2 16
  19488200.964    -4104617.018 7  -3151599.051 7
  20462819.261   -22878181.017 6
  19975266.409   -23826283.338 6 -18421663.169 6
  18401034.792   -13986701.752 6 -10842676.466 9
  19016648.167   -30311452.563 7 -23214090.852 8
  21179265.316   -16663673.933 5
 92  4 15 20 46 29.9910000  0  6 18 11  6 19  2 16
  19493501.987    -4076760.422 7  -3129892.808 7
  20454895.089   -22919820.716 6
  19953402.839   -23941183.908 6 -18511195.978 6
  18393267.089   -14027520.827 6 -10874483.568 9
  18995858.276   -30420716.217 7 -23299231.276 8
  21171340.105   -16705316.214 5
 92  4 15 20 46 59.9910000  0  6 18 11  6 19  2 16
  19498866.784    -4048566.435 6  -3107923.660 7
  20447088.526   -22960847.537 6 -17790947.158 6
  19931548.378   -24056015.737 6 -18600675.228 6
  18385548.784   -14068088.779 6 -10906094.987 9
  18975121.362   -30529679.499 7 -23384137.652 8
  21163507.933   -16746481.304 5 -11978006.172 4
 92  4 15 20 47 29.9910000  0  6 18 11  6 19  2 16
  19504292.730    -4020043.451 6  -3085698.149 7
  20439399.089   -23001253.681 6
  19909710.909   -24170770.360 6 -18690094.314 6
  18377882.136   -14108374.402 6
  18954449.315   -30638328.344 7 -23468799.013 8
  21155767.831   -16787178.693 5 -12009718.589 4
 92  4 15 20 47 59.9910000  0  6 18 11  6 19  2 16
  19509789.839    -3991172.802 6  -3063201.740 7
  20431829.222   -23041028.420 6 -17853425.729 6
  19887891.198   -24285436.708 6 -18779444.621 6
  18370270.394   -14148363.072 6
  18933835.003   -30746646.892 7 -23553203.000 8
  21148110.800   -16827406.322 5
 92  4 15 20 48 29.9910000  0  6 18 11  6 19  2 16
  19515346.722    -3961961.342 6  -3040439.762 7
  20424385.284   -23080160.177 6 -17883917.989 6
  19866092.862   -24400002.410 6 -18868716.507 6
  18362721.019   -14188043.391 6
  18913289.144   -30854607.884 7 -23637328.368 8
  21140546.573   -16867143.191 5
 92  4 15 20 48 59.9910000  0  6 18 11  6 19  2 16
  19520976.355    -3932383.371 6  -3017392.189 7
  20417061.480   -23118631.482 6 -17913895.609 6
  19844311.972   -24514449.528 6 -18957895.986 6
  18355230.542   -14227408.515 6 -11030240.355 9
  18892821.503   -30962176.325 7 -23721147.861 8
  21133092.909   -16906349.869 5 -12102578.763 4
 92  4 15 20 49 29.9910000  0  6 18 11  6 19  2 16
  19526675.612    -3902435.844 6  -2994056.665 7
  20409865.425   -23156452.481 6 -17943366.508 6
  19822555.112   -24628787.440 6 -19046990.359 6
  18347795.706   -14266486.524 6 -11060690.780 9
  18872425.401   -31069355.061 7 -23804663.689 8
  21125734.237   -16945012.585 5 -12132705.715 5
 92  4 15 20 49 59.9910000  0  6 18 11  6 19  2 16
  19532447.198    -3872112.175 6  -2970428.019 7
  20402792.511   -23193624.468 6 -17972331.699 6
  19800820.940   -24743016.637 6 -19136000.032 6
  18340412.526   -14305286.105 6 -11090924.255 9
  18852101.714   -31176155.892 7 -23887885.048 8
  21118477.581   -16983121.232 4 -12162400.930 4
 92  4 15 20 50 29.9910000  0  6 18 11  6 19  2 16
  19538283.980    -3841426.364 6  -2946517.202 7
  20395840.659   -23230149.643 6 -18000792.873 6
  19779101.972   -24857138.838 6 -19224926.320 6
  18333081.401   -14343812.977 6 -11120945.228 9
  18831847.855   -31282595.634 7 -23970825.043 8
  21111333.136   -17020672.476 4 -12191661.780 4
 92  4 15 20 50 59.9910000  0  6 18 11  6 19  2 16
  19544193.503    -3810387.159 6  -2922331.018 7
  20389012.925   -23266043.006 6 -18028761.735 6
  19757403.089   -24971168.021 6 -19313780.129 6
  18325795.737   -14382082.777 6 -11150765.892 9
  18811653.355   -31388706.621 7 -24053508.861 8
  21104291.987   -17057695.422 5 -12220511.001 4
 92  4 15 20 51 29.9910000  0  6 18 11  6 19  2 16
  19550160.261    -3779011.487 6  -2897882.654 6
  20382301.058   -23301305.977 6 -18056239.399 6
  19735719.433   -25085104.990 6 -19402562.089 6
  18318564.128   -14420085.887 6 -11180378.736 9
  18791523.964   -31494497.163 7 -24135942.993 8
  21097341.878   -17094217.398 5 -12248969.887 3
 92  4 15 20 51 59.9910000  0  6 18 11  6 19  2 16
  19556196.776    -3747305.672 6  -2873177.020 7
  20375715.347   -23335923.270 6 -18083213.938 6
  19714059.589   -25198933.653 6 -19491259.656 6
  18311386.175   -14457806.556 6 -11209771.507 9
  18771454.980   -31599957.539 7 -24218119.857 8
  21090482.597   -17130253.132 5 -12277049.851 3
 92  4 15 20 52 29.9910000  0  6 18 11  6 19  2 16
  19562291.198    -3715291.815 6  -2848231.382 7
  20369248.901   -23369902.200 6 -18109691.049 6
  19692417.644   -25312660.088 6 -19579877.557 6
  18304262.386   -14495257.766 6 -11238954.312 9
  18751449.081   -31705088.424 7 -24300039.972 8
  21083713.862   -17165819.510 5 -12304764.083 4
 92  4 15 20 52 59.9910000  0  6 18 11  6 19  2 16
  19568434.144    -3682987.557 6  -2823059.446 6
  20362900.980   -23403261.527 6 -18135685.366 6
  19670793.901   -25426302.430 6 -19668429.946 6
  18297183.636   -14532446.174 6 -11267932.334 9
  18731501.136   -31809909.374 7 -24381718.582 9
  21077030.097   -17200946.414 5 -12332135.865 5
 92  4 15 20 53 29.9910000  0  5 18 11  6 19  2
  19574637.534    -3650389.914 6  -2797658.890 6
  20356669.050   -23435999.437 6 -18161195.453 6
  19649182.534   -25539857.713 6 -19756914.491 6
  18290158.800   -14569362.659 6 -11296698.467 9
  18711612.909   -31914425.217 7 -24463159.444 9
 92  4 15 20 53 59.9910000  0  5 18 11  6 19  2
  19580895.894    -3617500.966 6  -2772031.342 6
  20350556.987   -23468125.685 6 -18186228.942 6
  19627590.464   -25653334.936 6 -19845338.213 6
  18283187.440   -14606014.441 6 -11325258.334 9
  18691777.972   -32018658.563 7 -24544380.183 9
 92  4 15 20 54 29.9910000  0  6 18 11  6 19  2 16
  19587218.214    -3584295.991 6  -2746157.551 6
  20344561.558   -23499632.036 6 -18210779.382 6
  19606013.706   -25766724.928 6 -19933693.959 6
  18276264.487   -14642384.313 6 -11353598.535 9
  18671998.948   -32122600.514 7 -24625373.857 9
  21057490.690      -16820.93715
 92  4 15 20 54 59.9910000  0  6 18 11  6 19  2 16
  19593600.151    -3550744.322 6  -2720013.626 6
  20338683.347   -23530512.288 6 -18234841.972 6
  19584451.120   -25880020.211 6 -20021975.919 6
  18269397.737   -14678455.034 6 -11381705.631 9
  18652278.214   -32226233.772 7 -24706126.995 9
  21051159.511      -50092.694 5    -12913.08812
 92  4 15 20 55 29.9900000  0  6 18 11  6 19  2 16
  19600055.514    -3516828.353 6  -2693585.821 6
  20332933.068   -23560742.191 6 -18258397.787 6
  19562916.897   -25993192.571 6 -20110162.097 6
  18262596.334   -14714207.835 6 -11409565.000 9
  18632626.467   -32329506.939 7 -24786599.543 9
  21044928.717      -82837.007 5    -38428.322 4
 92  4 15 20 55 59.9900000  0  6 18 11  6 19  2 16
  19606579.084    -3482543.092 6  -2666870.259 6
  20327303.787   -23590317.042 6 -18281443.171 6
  19541403.397   -26106241.934 6 -20198252.431 6
  18255850.693   -14749648.834 6 -11437181.402 9
  18613046.537   -32432400.892 7 -24866776.596 9
  21038797.670     -115052.605 5    -63531.567 4
 92  4 15 20 56 29.9900000  0  6 18 11  6 19  2 16
  19613172.514    -3447892.260 6  -2639869.817 6
  20321801.475   -23619240.124 6 -18303980.704 6
  19519915.522   -26219167.757 6 -20286246.503 6
  18249163.154   -14784786.842 6 -11464561.713 9
  18593541.740   -32534895.465 7 -24946642.444 9
  21032760.436     -146754.992 4    -88234.950 3
 92  4 15 20 56 59.9900000  0  6 18 11  6 19  2 16
  19619836.857    -3412894.341 6  -2612598.952 6
  20316420.647   -23647506.792 6 -18326006.707 6
  19498451.514   -26331964.119 6 -20374139.698 6
  18242535.795   -14819620.437 6 -11491704.810 9
  18574113.928   -32636991.305 7 -25026197.593 9
  21026830.959     -177956.553 5   -112548.050 2
 92  4 15 20 57 29.9900000  0  6 18 11  6 19  2 16
  19626556.998    -3377571.516 6  -2585074.930 6
  20311168.834   -23675115.379 6 -18347519.919 6
  19477010.615   -26444627.950 6 -20461929.627 6
  18235965.514   -14854148.327 6 -11518609.698 9
  18554758.662   -32738705.477 7 -25105455.331 9
  21020988.631     -208663.824 5   -136475.998 4
 92  4 15 20 57 59.9900000  0  6 18 11  6 19  2 16
  19633336.350    -3341932.977 6  -2557304.879 6
  20306037.467   -23702079.262 6 -18368530.757 6
  19455592.834   -26557171.599 6 -20549625.902 6
  18229452.865   -14888386.246 6 -11545288.631 9
  18535468.951   -32840068.928 7 -25184439.779 9
  21015230.678     -238898.109 4   -160035.365 3
 92  4 15 20 58 29.9900000  0  6 18 11  6 19  2 16
  19640173.795    -3306005.860 6  -2529309.958 6
  20301025.201   -23728422.330 6 -18389057.857 6
  19434195.522   -26669617.625 6 -20637246.112 6
  18222987.389   -14922349.167 6 -11571753.282 9
  18516240.693   -32941115.536 7 -25263177.333 9
  21009566.561     -268672.162 5   -183236.125 4
 92  4 15 20 58 59.9900000  0  6 18 11  6 19  2 16
  19647061.772    -3269819.854 6  -2501113.295 6
  20296125.061   -23754175.437 6 -18409125.241 6
  19412809.537   -26781995.548 6 -20724813.246 6
  18216569.584   -14956062.222 6 -11598023.231 9
  18497065.178   -33041882.069 7 -25341696.650 9
  21003982.483     -298007.941 5   -206095.376 3
 92  4 15 20 59 29.9900000  0  6 18 11  6 19  2 16
  19654001.756    -3233347.771 6  -2472693.750 6
  20291332.787   -23779341.031 6 -18428734.815 6
  19391439.334   -26894306.264 6 -20812328.010 6
  18210201.662   -14989536.995 6 -11624107.510 9
  18477944.459   -33142356.173 7 -25419988.105 9
  20998482.217     -326904.257 4   -228612.222 4
 92  4 15 20 59 59.9900000  0  6 18 11  6 19  2 16
  19660996.107    -3196592.469 6  -2444053.519 6
  20286659.162   -23803929.662 6 -18447894.805 6
  19370080.248   -27006559.215 6 -20899797.773 6
  18203875.498   -15022787.992 6 -11650017.420 9
  18458881.584   -33242537.806 7 -25498051.649 9
  20993065.373     -355365.824 3   -250790.251 3
 92  4 15 21  0 29.9900000  0  6 18 11  6 19  2 16
  19668042.662    -3159564.968 6  -2415201.181 6
  20282086.154   -23827949.544 6 -18466611.614 6
  19348728.818   -27118761.167 6 -20987227.775 6
  18197589.186   -15055810.547 6 -11675749.321 9
  18439873.006   -33342424.430 7 -25575885.321 9
  20987732.022     -383397.885 3   -272633.625 4
 92  4 15 21  0 59.9900000  0  6 18 11  6 19  2 16
  19675140.654    -3122255.330 6  -2386128.981 6
  20277625.615   -23851386.468 6 -18484874.175 6
  19327389.787   -27230896.195 6 -21074605.634 6
  18191351.256   -15088595.171 6 -11701295.814 9
  18420925.631   -33441995.052 7 -25653472.758 9
  20982483.623     -410990.474 3   -294134.566 1
 92  4 15 21  1 29.9900000  0  6 18 11  6 19  2 16
  19682295.311    -3084679.412 6  -2356849.300 6
  20273276.162   -23874238.834 6 -18502681.235 6
  19306061.311   -27342961.456 6 -21161929.138 6
  18185160.029   -15121133.872 6 -11726650.689 9
  18402038.756   -33541246.514 7 -25730811.504 9
  20977320.225     -438136.680 3   -315287.685 2
 92  4 15 21  1 59.9900000  0  6 18 11  6 19  2 16
  19689489.068    -3046858.539 6  -2327378.775 6
  20269040.357   -23896504.107 6 -18520030.821 6
  19284752.232   -27454952.674 6 -21249194.941 6
  18179023.693   -15153397.514 6 -11751791.223 9
  18383209.389   -33640188.177 7 -25807908.837 9
  20972239.397     -464826.490 4   -336085.156 2
 92  4 15 21  2 29.9900000  0  6 18 11  6 19  2 16
  19696739.037    -3008761.724 6  -2297693.210 6
  20264921.357   -23918149.203 6 -18536897.143 6
  19263458.522   -27566835.409 6 -21336376.212 6
  18172943.912   -15185350.275 6 -11776689.526 9
  18364451.154   -33738782.479 7 -25884735.504 9
  20967252.967     -491031.845 3   -356505.151 1
 92  4 15 21  2 59.9900000  0  6 18 11  6 19  2 16
  19704039.467    -2970408.147 6  -2267807.578 6
  20260917.787   -23939186.591 6 -18553289.943 6
  19242187.490   -27678620.569 6 -21423481.435 6
  18166913.936   -15217007.970 6 -11801357.899 9
  18345748.998   -33837050.645 7 -25961308.035 9
  20962355.490     -516769.153 4   -376560.410 2
 92  4 15 21  3 29.9900000  0  6 18 11  6 19  2 16
  19711387.123    -2931780.586 6  -2237708.463 6
  20257032.897   -23959610.645 6 -18569204.812 6
  19220937.053   -27790300.823 6 -21510504.921 6
  18160952.412   -15248351.233 6 -11825781.261 9
  18327112.982   -33934983.008 7 -26037618.909 9
  20957549.404     -542036.820 3   -396249.728 2
 92  4 15 21  3 59.9900000  0  6 18 11  6 19  2 16
  19718795.217    -2892863.843 6  -2207384.006 6
  20253260.443   -23979415.685 6 -18584637.346 6
  19199706.514   -27901868.940 6 -21597441.033 6
  18155047.670   -15279382.844 6 -11849961.771 9
  18308540.670   -34032581.256 7 -26113669.429 9
  20952830.623     -566852.952 4   -415587.150 2
 92  4 15 21  4 29.9900000  0  6 18 11  6 19  2 16
  19726258.147    -2853662.748 6  -2176837.983 6
  20249610.068   -23998611.437 6 -18599595.105 6
  19178495.225   -28013332.564 6 -21684295.734 6
  18149195.592   -15310130.620 6 -11873921.115 9
  18290032.654   -34129841.608 7 -26189456.659 9
  20948187.428     -591236.964 4   -434587.932 2
 92  4 15 21  4 59.9900000  0  6 18 11  6 19  2 16
  19733772.725    -2814163.499 6  -2146059.640 6
  20246077.225   -24017183.090 6 -18614066.559 6
  19157309.123   -28124675.709 6 -21771056.545 6
  18143403.389   -15340580.676 6 -11897648.467 9
  18271591.115   -34226751.931 7 -26264971.147 9
  20943629.514     -615181.080 4   -453245.905 1
 92  4 15 21  5 29.9900000  0  6 18 11  6 19  2 16
  19741342.701    -2774375.850 6  -2115056.571 6
  20242658.037   -24035145.047 6 -18628062.917 6
  19136139.717   -28235910.487 6 -21857732.911 6
  18137662.623   -15370751.286 6 -11921158.069 9
  18253212.764   -34323332.961 7 -26340229.036 9
  20939153.725     -638708.792 4   -471579.448 2
 92  4 15 21  5 59.9900000  0  6 18 11  6 19  2 16
  19748960.451    -2734322.554 6  -2083846.505 6
  20239356.139   -24052498.366 6 -18641585.035 6
  19114993.897   -28347036.554 6 -21944324.577 6
  18131968.264   -15400652.422 6 -11944457.703 9
  18234895.178   -34419592.180 7 -26415236.164 9
  20934760.092     -661810.389 4   -489580.916 1
 92  4 15 21  6 29.9900000  0  6 18 11  6 19  2 16
  19756640.022    -2694000.662 6  -2052427.160 6
  20236169.607   -24069241.941 6 -18654632.006 6
  19093870.592   -28458050.834 6 -22030829.129 7
  18126338.256   -15430271.293 6 -11967537.381 9
  18216640.654   -34515517.905 7 -26489983.423 9
  20930444.482     -684465.029 4   -507234.148 2
 92  4 15 21  6 59.9900000  0  6 18 11  6 19  2 16
  19764366.154    -2653395.568 6  -2020787.138 6
  20233101.209   -24085368.057 6 -18667197.851 6
  19072766.428   -28568943.976 6 -22117239.298 6
  18120755.561   -15459591.647 6 -11990384.456 9
  18198448.850   -34611117.900 7 -26564476.870 9
  20926222.975     -706656.314 4   -524526.291 2
 92  4 15 21  7 29.9900000  0  6 18 11  6 19  2 16
  19772146.740    -2612507.712 6  -1988926.761 6
  20230146.678   -24100885.903 6 -18679289.719 6
  19051686.365   -28679723.084 6 -22203560.609 7
  18115231.068   -15488611.618 6 -12012997.461 9
  18180316.365   -34706398.824 7 -26638721.683 9
  20922094.647     -728384.688 5   -541457.725 2
 92  4 15 21  7 59.9900000  0  6 18 11  6 19  2 16
  19779983.732    -2571328.652 6  -1956839.510 6
  20227310.498   -24115787.116 6 -18690901.097 6
  19030626.873   -28790377.826 6 -22289785.010 6
  18109769.295   -15517315.721 6 -12035364.326 9
  18162252.381   -34801327.416 7 -26712691.960 9
  20918046.428     -749639.104 5   -558019.831 2
 92  4 15 21  8 29.9890000  0  6 18 11  6 19  2 16
  19787879.118    -2529840.136 6  -1924511.122 6
  20224594.728   -24130063.831 6 -18702025.849 6
  19009596.454   -28900895.161 6 -22375902.362 7
  18104371.001   -15545683.690 6 -12057469.279 9
  18144258.704   -34895889.383 7 -26786376.551 9
  20914085.509     -770436.188 5   -574225.617 1
 92  4 15 21  8 59.9890000  0  6 18 11  6 19  2 16
  19795830.017    -2488047.065 6  -1891945.384 6
  20221996.751   -24143719.312 6 -18712666.516 6
  18988592.376   -29011282.969 6 -22461918.776 7
  18099037.970   -15573716.569 6 -12079313.124 9
  18126332.181   -34990094.768 7 -26859783.292 9
  20910214.837     -790785.029 5   -590082.105 2
 92  4 15 21  9 29.9890000  0  6 18 11  6 19  2 16
  19803838.860    -2445984.540 6  -1859169.714 6
  20219514.212   -24156765.358 6 -18722832.309 6
  18967607.212   -29121547.821 6 -22547839.373 7
  18093763.392   -15601424.208 6 -12100903.536 9
  18108475.118   -35083932.655 7 -26932903.665 9
  20906421.939     -810710.868 4   -605609.009 2
 92  4 15 21  9 59.9890000  0  6 18 11  6 19  2 16
  19811890.774    -2403655.028 6  -1826186.015 6
  20217148.150   -24169187.898 6 -18732512.229 6
  18946651.423   -29231673.428 6 -22633651.487 7
  18088557.196   -15628790.936 6 -12122228.301 9
  18090689.454   -35177394.686 7 -27005731.160 9
  20902716.407     -830199.167 4   -620794.943 2
 92  4 15 21 10 29.9890000  0  6 18 11  6 19  2 16
  19819993.423    -2361077.662 6  -1793009.186 6
  20214903.556   -24181007.282 6 -18741722.174 6
  18925717.993   -29341678.385 6 -22719369.562 7
  18083412.196   -15655839.888 6 -12143305.450 9
  18072967.853   -35270524.701 7 -27078299.949 9
  20899084.767     -849259.190 4   -635647.154 3
 92  4 15 21 10 59.9890000  0  6 18 11  6 19  2 16
  19828138.689    -2318271.726 6  -1759654.259 5
  20212763.829   -24192230.460 6 -18750467.539 6
  18904806.110   -29451567.428 6 -22804997.332 7
  18078320.907   -15682586.368 6 -12164146.897 9
  18055307.564   -35363327.387 7 -27150613.678 9
  20895540.720     -867881.707 4   -650158.471 2
 92  4 15 21 11 29.9890000  0  6 18 11  6 19  2 16
  19836325.728    -2275239.357 6  -1726122.858 6
  20210739.829   -24202864.595 6 -18758753.914 6
  18883918.079   -29561345.361 6 -22890538.531 7
  18073287.884   -15709035.733 6 -12184756.831 8
  18037708.196   -35455812.835 7 -27222680.210 9
  20892077.235     -886077.638 5   -664337.381 4
 92  4 15 21 11 59.9890000  0  6 18 11  6 19  2 16
  19844568.181    -2231957.558 6  -1692397.132 6
  20208830.548   -24212909.673 6 -18766581.294 6
  18863049.360   -29671010.221 6 -22975991.626 7
  18068310.243   -15735179.973 6 -12205129.016 8
  18020167.290   -35547987.484 7 -27294504.568 9
  20888704.392     -903829.926 5   -678170.642 3
 92  4 15 21 12 29.9890000  0  6 18 11  6 19  2 16
  19852852.095    -2188429.819 6  -1658479.792 6
  20207029.181   -24222378.746 6 -18773959.809 6
  18842198.392   -29780572.926 6 -23061365.108 7
  18063393.095   -15761034.502 6 -12225275.445 8
  18002685.329   -35639856.650 7 -27366090.883 9
  20885400.728     -921163.772 4   -691677.830 2
 92  4 15 21 12 59.9890000  0  6 18 11  6 19  2 16
  19861175.196    -2144654.558 6  -1624369.560 6
  20205333.595   -24231277.732 6 -18780894.120 6
  18821371.064   -29890036.826 6 -23146661.597 7
  18058527.665   -15786594.901 6 -12245192.682 8
  17985263.579   -35731406.983 7 -27437428.758 9
  20882181.110     -938089.850 4   -704867.220 2
 92  4 15 21 13 29.9890000  0  6 18 11  6 19  2 16
  19869558.376    -2100617.163 6  -1590055.040 5
  20203749.556   -24239605.441 6 -18787383.263 6
  18800559.735   -29999398.645 6 -23231878.533 7
  18053722.470   -15811849.837 6 -12264871.887 9
  17967904.274   -35822632.205 7 -27508513.297 9
  20879041.165     -954606.633 4   -717737.725 3
 92  4 15 21 13 59.9890000  0  6 18 11  6 19  2 16
  19877985.837    -2056328.079 6  -1555544.413 5
  20202271.829   -24247368.945 6 -18793432.787 6
  18779766.579   -30108663.325 6 -23317019.775 7
  18048972.400   -15836814.902 6 -12284325.234 8
  17950607.454   -35913531.965 7 -27579344.237 9
  20875972.782     -970731.212 5   -730302.628 2
 92  4 15 21 14 29.9890000  0  6 18 11  6 19  2 16
  19886463.970    -2011807.783 6  -1520853.642 6
  20200904.165   -24254575.613 6 -18799048.396 6
  18758991.978   -30217835.773 6 -23402089.158 7
  18044275.900   -15861505.793 6 -12303564.928 8
  17933370.134   -36004110.738 7 -27649925.054 9
  20872973.532     -986489.164 5   -742581.863 3
 92  4 15 21 14 59.9890000  0  6 18 11  6 19  2 16
  19894974.814    -1967050.154 6  -1485977.925 5
  20199637.454   -24261211.830 6 -18804219.507 6
  18738237.118   -30326899.969 6 -23487074.181 7
  18039631.024   -15885902.531 6 -12322575.424 8
  17916196.806   -36094355.399 7 -27720245.532 9
  20870049.095    -1001861.914 5   -754560.956 4
 92  4 15 21 15 29.9890000  0  6 18 11  6 19  2 16
  19903537.204    -1922077.353 6  -1450934.550 6
  20198484.251   -24267280.533 6 -18808948.401 6
  18717503.345   -30435856.715 6 -23571975.478 7
  18035041.696   -15910016.455 6 -12341365.538 8
  17899086.415   -36184277.691 7 -27790314.801 9
  20867196.064    -1016864.962 4   -766251.961 4
 92  4 15 21 15 59.9890000  0  6 18 11  6 19  2 16
  19912141.235    -1876866.537 6  -1415705.709 5
  20197443.821   -24272754.620 6 -18813213.969 6
  18696795.743   -30544676.405 6 -23656769.972 7
  18030510.821   -15933822.113 6 -12359915.444 8
  17882038.603   -36273859.168 7 -27860118.502 9
  20864411.962    -1031471.592 3   -777634.057 3
 92  4 15 21 16 29.9890000  0  6 18 11  6 19  2 16
  19920781.962    -1831441.307 6  -1380309.797 5
  20196511.025   -24277650.587 6 -18817029.045 6
  18676110.454   -30653373.093 6 -23741468.629 7
  18026041.985   -15957320.649 6 -12378226.035 8
  17865052.860   -36363123.237 7 -27929674.878 9
  20861710.532    -1045677.125 4   -788703.631 3
 92  4 15 21 16 59.9890000  0  6 18 11  6 19  2 16
  19929466.525    -1785826.776 6  -1344766.388 5
  20195683.829   -24281993.412 6 -18820413.121 6
  18655444.985   -30761969.094 6 -23826088.827 7
  18021623.235   -15980531.190 6 -12396312.214 8
  17848123.290   -36452085.163 7 -27998995.823 9
  20859081.071    -1059499.229 5   -799474.438 3
 92  4 15 21 17 29.9890000  0  6 18 11  6 19  2 16
  19938181.181    -1740011.695 6  -1309066.699 5
  20194965.509   -24285778.779 6 -18823362.818 6
  18634800.907   -30870457.923 6 -23910625.504 7
  18017263.103   -16003455.171 6 -12414175.103 8
  17831254.759   -36540728.684 7 -28068068.662 9
  20856522.126    -1072933.045 5   -809942.671 2
 92  4 15 21 17 59.9890000  0  6 18 11  6 19  2 16
  19946940.501    -1693979.264 5  -1273197.648 5
  20194351.290   -24288999.988 6 -18825872.910 6
  18614177.642   -30978830.318 6 -23995071.459 7
  18012958.392   -16026077.456 6 -12431802.899 8
  17814450.314   -36629038.349 7 -28136881.345 9
  20854046.821    -1085959.045 5   -820093.150 5
 92  4 15 21 18 29.9890000  0  6 18 11  6 19  2 16
  19955748.642    -1647714.112 6  -1237147.260 5
  20193849.540   -24291638.696 6 -18827929.102 6
  18593581.181   -31087065.320 6 -24079410.358 7
  18008712.782   -16048376.097 6 -12449178.512 8
  17797716.017   -36716985.069 7 -28205411.216 9
  20851644.595    -1098567.563 3   -829918.314 4
 92  4 15 21 18 59.9890000  0  6 18 11  6 19  2 16
  19964600.321    -1601204.057 6  -1200906.056 5
  20193456.626   -24293698.592 6 -18829534.289 6
  18573010.853   -31195163.981 6 -24163643.013 7
  18004532.212   -16070363.031 6 -12466311.235 8
  17781048.704   -36804561.787 7 -28273652.776 9
  20849324.712    -1110776.415 4   -839432.004 4
 92  4 15 21 19 29.9890000  0  6 18 11  6 19  2 16
  19973496.571    -1554436.781 5  -1164464.426 6
  20193175.564   -24295171.399 6 -18830682.007 6
  18552468.954   -31303115.355 6 -24247760.905 7
  18000407.501   -16092027.073 6 -12483192.359 8
  17764452.993   -36891777.195 7 -28341612.800 9
  20847081.931    -1122574.417 5   -848625.608 5
 92  4 15 21 19 59.9890000  0  6 18 11  6 19  2 16
  19982438.056    -1507434.713 5  -1127839.841 5
  20193006.743   -24296068.244 6 -18831380.926 6
  18531954.149   -31410927.960 6 -24331770.658 7
  17996344.165   -16113367.632 6 -12499821.413 8
  17747918.728   -36978661.571 7 -28409314.875 9
  20844913.462    -1133974.599 5   -857509.234 3
 92  4 15 21 20 29.9890000  0  6 18 11  6 19  2 16
  19991428.040    -1460211.828 5  -1091043.174 5
  20192942.579   -24296401.183 6
  18511461.126   -31518611.417 6 -24415679.777 7
  17992343.782   -16134392.775 6 -12516204.692 8
  17731445.845   -37065228.835 7 -28476769.845 9
  20842809.220    -1145006.337 4   -866105.744 4
 92  4 15 21 20 59.9890000  0  6 18 11  6 19  2 16
  20000455.110    -1412767.804 5  -1054074.217 5
  20192986.704   -24296170.085 6
  18490993.853   -31626162.918 6 -24499486.083 7
  17988405.103   -16155098.694 6 -12532339.228 8
  17715032.181   -37151476.028 7 -28543975.407 9
  20840788.071    -1155660.343 4   -874407.922 3
 92  4 15 21 21 29.9880000  0  6 18 11  6 19  2 16
  20009520.434    -1365142.586 5  -1016964.056 5
  20193134.121   -24295393.051 6 -18830855.051 6
  18470550.754   -31733593.985 6 -24583198.546 7
  17984523.457   -16175493.725 6 -12548231.516 8
  17698675.871   -37237431.617 7 -28610953.753 9
  20838825.496    -1165959.501 4   -882433.614 5
 92  4 15 21 21 59.9880000  0  6 18 11  6 19  2 16
  20018620.707    -1317344.609 5   -979719.313 5
  20193384.215   -24294080.296 6 -18829832.217 6
  18450128.395   -31840919.468 6 -24666828.736 7
  17980698.848   -16195584.461 6 -12563886.695 8
  17682373.348   -37323104.970 7 -28677712.172 9
  20836932.145    -1175926.140 5   -890200.152 4
 92  4 15 21 22 29.9880000  0  6 18 11  6 19  2 16
  20027744.684    -1269370.517 5   -942337.342 5
  20193736.699   -24292237.275 6 -18828396.183 6
  18429725.231   -31948138.391 6 -24750375.898 7
  17976932.699   -16215368.258 6 -12579302.709 8
  17666128.293   -37408478.109 7 -28744236.651 9
  20835096.293    -1185564.309 4   -897710.790 4
 92  4 15 21 22 59.9880000  0  6 18 11  6 19  2 16
  20036906.012    -1221234.687 5   -904829.340 5
  20194186.832   -24289871.892 6 -18826553.107 6
  18409340.816   -32055255.900 6 -24833844.024 7
  17973230.660   -16234855.288 6 -12594487.471 8
  17649937.637   -37493555.377 7 -28810530.591 9
  20833324.988    -1194869.204 4   -904961.754 3
 92  4 15 21 23 29.9880000  0  6 18 11  6 19  2 16
  20046090.285    -1172965.216 5   -867217.193 5
  20194730.246   -24287013.333 6 -18824325.740 5
  18388971.160   -32162298.307 6 -24917253.642 7
  17969568.660   -16254071.400 6 -12609461.129 8
  17633799.465   -37578363.992 7 -28876615.190 9
  20831610.051    -1203880.528 4   -911983.954 2
 92  4 15 21 23 59.9880000  0  6 18 11  6 19  2 16
  20055305.098    -1124527.612 5   -829474.035 5
  20195372.668   -24283646.028 6 -18821701.931 5
  18368620.777   -32269247.218 6 -25000590.410 7
  17965970.356   -16272991.029 6 -12624203.762 8
  17617719.629   -37662864.711 7 -28942459.872 9
  20829958.324    -1212571.374 4   -918756.445 4
 92  4 15 21 24 29.9880000  0  6 18 11  6 19  2 16
  20064556.590    -1075920.233 5   -791598.597 5
  20196109.879   -24279763.842 6 -18818676.925 5
  18348287.707   -32376093.620 6 -25083847.300 7
  17962427.816   -16291607.906 6 -12638710.485 8
  17601699.715   -37747043.327 7 -29008053.563 9
  20828370.231    -1220913.384 3   -925257.096 4
 92  4 15 21 24 59.9880000  0  6 18 11  6 19  2 16
  20073842.637    -1027129.266 5   -753580.092 5
  20196948.496   -24275358.239 6 -18815244.052 5
  18327977.574   -32482826.078 6 -25167015.398 7
  17958943.262   -16309926.897 6 -12652985.095 8
  17585741.660   -37830906.899 7 -29073401.762 9
  20826855.527    -1228889.857 4   -931472.920 5
 92  4 15 21 25 29.9880000  0  6 18 11  6 19  2 16
  20083168.699     -978149.807 5   -715414.740 5
  20197882.981   -24270437.315 6 -18811409.618 5
  18307686.598   -32589449.800 6 -25250098.771 7
  17955511.981   -16327949.211 6 -12667028.535 8
  17569839.231   -37914476.616 7 -29138520.986 9
  20825404.512    -1236509.241 4   -937410.482 4
 92  4 15 21 25 59.9880000  0  6 18 11  6 19  2 16
  20092523.785     -929000.474 5   -677117.017 5
  20198914.871   -24265011.431 6 -18807181.704 5
  18287417.856   -32695972.284 6 -25333103.255 7
  17952135.582   -16345692.715 6 -12680854.712 8
  17553988.316   -37997773.770 7 -29203427.836 9
  20824021.676    -1243781.999 4   -943077.962 3
 92  4 15 21 26 29.9880000  0  6 18 11  6 19  2 16
  20101894.457     -879707.791 5   -638707.608 5
  20200043.129   -24259088.931 6 -18802566.821 5
  18267164.559   -32802398.549 6 -25416032.774 7
  17948808.988   -16363174.931 6 -12694477.292 8
  17538185.285   -38080817.742 7 -29268137.393 9
  20822695.535    -1250727.407 3   -948490.359 4
 92  4 15 21 26 59.9880000  0  6 18 11  6 19  2 16
  20111304.129     -830263.098 5   -600179.729 5
  20201265.098   -24252660.459 6 -18797557.647 5
  18246932.684   -32908716.364 6 -25498877.782 7
  17945538.660   -16380377.697 6 -12707882.120 8
  17522432.988   -38163595.185 7 -29332639.261 9
  20821435.457    -1257359.277 3   -953658.453 2
 92  4 15 21 27 29.9880000  0  6 18 11  6 19  2 16
  20120744.699     -780671.627 5   -561537.487 5
  20202591.387   -24245705.600 6 -18792138.310 5
  18226727.316   -33014902.543 6 -25581620.202 7
  17942324.051   -16397265.223 6 -12721041.307 8
  17506739.434   -38246067.258 7 -29396903.187 9
  20820235.176    -1263675.661 3   -958580.723 2
 92  4 15 21 27 59.9880000  0  6 18 11  6 19  2 16
  20130210.590     -730942.280 5   -522787.821 4
  20204015.887   -24238219.295 6 -18786304.846 5
  18206547.668   -33120949.072 6 -25664253.805 7
  17939170.567   -16413825.111 6 -12733945.196 8
  17491109.191   -38328204.739 7 -29460906.381 9
  20819091.590    -1269672.821 3   -963254.251 3
 92  4 15 21 28 29.9880000  0  6 18 11  6 19  2 16
  20139689.457     -681088.021 5   -483940.805 5
  20205537.410   -24230225.715 6 -18780076.101 5
  18186388.684   -33226876.476 6 -25746794.597 7
  17936081.574   -16430065.036 6 -12746599.764 8
  17475540.848   -38410016.330 7 -29524655.633 9
  20818008.699    -1275362.286 3   -967688.027 4
 92  4 15 21 28 59.9880000  0  6 18 11  6 19  2 16
  20149201.848     -631096.280 5   -444986.663 5
  20207150.824   -24221733.681 6 -18773458.964 5
  18166254.293   -33332690.878 6 -25829247.337 7
  17933050.113   -16445992.462 6 -12759010.825 8
  17460032.270   -38491508.992 7 -29588156.380 9
  20816985.348    -1280748.986 3   -971885.839 4
 92  4 15 21 29 29.9880000  0  6 18 11  6 19  2 16
  20158754.738     -580947.033 5   -405909.785 5
  20208860.441   -24212741.765 6 -18766452.311 5
  18146139.145   -33438387.336 6 -25911608.173 7
  17930077.043   -16461621.531 6 -12771189.395 8
  17444586.293   -38572681.212 7 -29651407.437 9
  20816025.824    -1285829.910 3   -975845.421 2
 92  4 15 21 29 59.9880000  0  6 18 11  6 19  2 16
  20168335.012     -530623.593 5   -366697.217 5
  20210666.043   -24203255.874 6 -18759060.745 5
  18126048.973   -33543969.193 6 -25993879.698 7
  17927160.184   -16476963.740 6 -12783144.445 8
  17429197.809   -38653547.874 7 -29714420.397 9
  20815116.090    -1290594.261 3   -979558.383 2
 92  4 15 21 30 29.9880000  0  6 18 11  6 19  2 16
  20177935.254     -480114.795 5   -327340.193 5
  20212566.285   -24193281.872 6 -18751288.851 5
  18105977.902   -33649438.684 6 -26076063.650 7
  17924288.043   -16492031.554 6 -12794885.687 8
  17413863.965   -38734127.159 7 -29777209.415 9
  20814268.293    -1295055.014 3   -983034.748 2
 92  4 15 21 30 59.9880000  0  6 18 11  6 19  2 16
  20187580.582     -429425.172 5   -287842.259 5
  20214559.848   -24182817.291 6 -18743134.665 6
  18085930.731   -33754790.052 6 -26158155.565 7
  17921473.566   -16506831.994 6 -12806418.576 8
  17398584.043   -38814425.696 7 -29839779.677 9
  20813469.059    -1299221.898 3   -986282.115 2
 92  4 15 21 31 29.9880000  0  6 18 11  6 19  2 16
  20197265.551     -378588.873 5   -248230.050 4
  20216640.379   -24171867.572 6 -18734602.460 6
  18065902.840   -33860025.886 6 -26240157.464 7
  17918710.684   -16521365.339 6 -12817743.356 8
  17383357.426   -38894442.672 7 -29902130.537 9
  20812736.051    -1303089.938 3   -989296.550 2
 92  4 15 21 31 59.9880000  0  6 18 11  6 19  2 16
  20206964.317     -327616.360 5   -208511.708 5
  20218817.692   -24160427.802 6 -18725688.421 6
  18045901.449   -33965137.650 6 -26322062.686 7
  17916000.856   -16535598.037 6 -12828833.855 8
  17368184.246   -38974175.312 7 -29964259.836 9
  20812063.574    -1306644.324 3   -992066.622 2
 92  4 15 21 32 29.9880000  0  6 18 11  6 19  2 16
  20216689.629     -276516.484 5   -168694.105 5
  20221088.629   -24148501.157 6 -18716394.994 5
  18025922.410   -34070125.384 6 -26403871.257 7
  17913345.231   -16549528.203 6 -12839688.618 8
  17353068.590   -39053609.252 7 -30026156.381 9
  20811443.504    -1309899.061 4   -994603.207 1
 92  4 15 21 32 59.9880000  0  6 18 11  6 19  2 16
  20226431.543     -225290.880 5   -128778.558 5
  20223454.410   -24136078.283 6 -18706714.894 5
  18005970.418   -34174976.764 6 -26485573.566 7
  17910759.324   -16563134.685 6 -12850291.147 8
  17338014.902   -39132718.651 7 -30087800.043 9
  20810887.363    -1312836.493 4   -996892.539 1
 92  4 15 21 33 29.9880000  0  6 18 11  6 19  2 16
  20236201.902     -173935.034 5    -88761.505 4
  20225909.231   -24123162.718 6 -18696650.872 5
  17986044.027   -34279691.595 6 -26567169.477 7
  17908234.926   -16576404.527 6 -12860631.380 8
  17323025.074   -39211495.922 7 -30149184.905 9
  20810388.231    -1315467.667 4   -998943.253 1
 92  4 15 21 33 59.9880000  0  6 18 11  6 19  2 16
  20246007.840     -122431.362 5    -48629.267 2
  20228461.074   -24109748.689 6 -18686198.460 5
  17966145.754   -34384260.720 6 -26648651.862 7
  17905775.254   -16589322.101 6 -12870697.109 8
  17308095.918   -39289944.502 7 -30210313.639 9
  20809942.067    -1317807.512 4  -1000766.918 1
 92  4 15 21 34 29.9880000  0  6 18 11  6 19  2 16
  20255839.606      -70785.451 5     -8386.199 4
  20231109.231   -24095841.114 6 -18675361.469 5
  17946275.395   -34488686.168 6 -26730022.281 7
  17903382.231   -16601901.170 6 -12880499.064 8
  17293229.606   -39368061.943 7 -30271184.352 9
  20809545.902    -1319866.208 4  -1002371.548 1
 92  4 15 21 34 59.9870000  0  6 18 11  6 19  2 16
  20265690.038      -19013.458 5     31955.105 4
  20233847.101   -24081449.269 6 -18664147.111 5
  17926429.249   -34592969.235 6 -26811281.758 7
  17901050.929   -16614149.841 6 -12890043.574 8
  17278423.234   -39445875.184 7 -30331818.021 9
  20809207.319    -1321659.861 4  -1003769.647 1
 92  4 15 21 35 29.9870000  0  6 18 11  6 19  2 16
  20275561.202       32876.740 5     72388.519 4
  20236678.069   -24066579.048 6 -18652559.994 5
  17906609.569   -34697120.897 6 -26892438.846 8
  17898783.382   -16626079.064 6 -12899339.164 8
  17263668.890   -39523403.837 7 -30392229.933 9
  20808911.296    -1323196.193 4  -1004967.251 1
 92  4 15 21 35 59.9870000  0  6 18 11  6 19  2 16
  20285462.859       84868.434 5    112900.997 3
  20239597.859   -24051237.036 6 -18640605.260 5
  17886815.648   -34801139.836 6 -26973492.521 7
  17896570.405   -16637698.653 6 -12908393.475 8
  17248970.460   -39600652.139 7 -30452423.388 9
  20808677.101    -1324461.471 4
 92  4 15 21 36 29.9870000  0  6 18 11  6 19  2 16
  20295372.812      136945.022 5    153479.597 2
  20242600.062   -24035445.661 6 -18628300.370 5
  17867044.726   -34905045.674 6 -27054458.054 7
  17894411.265   -16649039.632 6 -12917230.689 8
  17234321.921   -39677629.440 7 -30512405.673 9
  20808480.773    -1325461.728 3
 92  4 15 21 36 59.9870000  0  6 18 11  6 19  2 16
  20305290.148      189106.657 5    194124.503 3
  20245693.343   -24019204.388 6 -18615644.915 5
  17847292.859   -35008833.844 7 -27135331.899 7
  17892309.562   -16660097.107 6 -12925846.987 8
  17219722.476   -39754345.469 7 -30572184.371 9
  20808346.132    -1326193.498 3      -256.19811
 92  4 15 21 37 29.9870000  0  6 18 11  6 19  2 16
  20315242.733      241365.326 5    234845.008 1
  20248871.679   -24002504.476 6 -18602632.076 5
  17827568.374   -35112492.322 7 -27216104.699 8
  17890261.382   -16670848.237 6 -12934224.574 8
  17205176.890   -39830785.954 7 -30631748.356 9
  20808264.155    -1326628.932 4
 92  4 15 21 37 59.9870000  0  6 18 11  6 19  2 16
  20325208.265      293742.205 5    275657.611 2
  20252137.827   -23985335.143 6 -18589253.432 6
  17807870.163   -35216006.854 6 -27296765.331 8
  17888275.366   -16681283.085 6 -12942355.719 8
  17190684.507   -39906940.891 7 -30691089.831 9
  20808237.257    -1326761.671 4
 92  4 15 21 38 29.9870000  0  6 18 11  6 19  2 16
  20335198.976      346241.056 5    316565.279 3
  20255494.866   -23967697.851 6 -18575510.166 5
  17788199.265   -35319375.180 6 -27377312.031 8
  17886351.210   -16691408.011 6 -12950245.347 8
  17176246.984   -39982810.457 7 -30750208.949 9
  20808262.515    -1326608.604 3
 92  4 15 21 38 59.9870000  0  7 18 11  6 19  2 16 15
  20345214.859      398846.055 5    357555.620 2
  20258935.273   -23949606.226 5 -18561412.870 5
  17768554.187   -35422607.354 7 -27457752.642 8
  17884480.796   -16701231.968 6 -12957900.455 8
  17161860.327   -40058415.550 7 -30809121.975 9
  20808347.124    -1326188.943 3
  21017634.538      -59456.13313
 92  4 15 21 39 29.9870000  0  7 18 11  6 19  2 16 15
  20355241.437      451558.558 5    398629.729 3
  20262464.984   -23931069.976 5 -18546969.076 5
  17748934.069   -35525709.760 7 -27538092.127 8
  17882670.773   -16710767.485 6 -12965330.810 8
  17147525.280   -40133748.810 7 -30867823.183 9
  20808473.890    -1325521.287 4       265.271 2
  20995042.194     -178202.330 3
 92  4 15 21 39 59.9870000  0  7 18 11  6 19  2 16 15
  20365292.827      504366.223 5    439778.003 4
  20266072.171   -23912103.364 5 -18532189.964 5
  17729337.812   -35628692.745 7 -27618338.557 8
  17880902.413   -16720037.266 6 -12972554.101 8
  17133239.780   -40208813.767 7 -30926315.325 9
  20808643.030    -1324642.390 5       949.654 1
  20972477.929     -296749.330 3        -0.48712
 92  4 15 21 40 29.9870000  0  7 18 11  6 19  2 16 15
  20375360.663      557267.041 5    480998.825 4
  20269762.960   -23892700.466 5 -18517070.899 5
  17709765.796   -35731547.095 7 -27698484.754 8
  17879192.804   -16729020.874 6 -12979554.397 8
  17119008.546   -40283599.453 7 -30984589.847 9
  20808852.304    -1323548.205 4      1801.752 2
  20949962.632     -415074.270 3    -92201.510 2
 92  4 15 21 40 59.9870000  0  7 18 11  6 19  2 16 15
  20385439.921      610260.349 5    522291.765 4
  20273539.562   -23872867.176 5 -18501616.448 5
  17690216.327   -35834274.950 7 -27778532.394 8
  17877539.085   -16737714.579 6 -12986328.797 8
  17104831.179   -40358103.570 7 -31042644.972 9
  20809101.484    -1322238.856 4      2821.600 1
  20927490.444     -533153.070 3   -184210.699 3
 92  4 15 21 41 29.9870000  0  7 18 11  6 19  2 16 15
  20395543.655      663357.585 5    563665.645 3
  20277397.554   -23852593.014 5 -18485818.446 5
  17670696.077   -35936862.110 7 -27858470.384 8
  17875945.288   -16746094.805 6 -12992858.919 8
  17090712.054   -40432299.955 7 -31100460.306 9
  20809392.218    -1320703.437 3      4017.492 1
  20905080.366     -650952.019 3   -276001.832 3
 92  4 15 21 41 59.9870000  0  7 18 11  6 19  2 16 15
  20405668.273      716556.013 5    605118.391 4
  20281340.851   -23831871.814 5 -18469672.122 5
  17651202.382   -36039298.743 7 -27938291.086 8
  17874410.780   -16754151.094 6 -12999136.623 8
  17076651.390   -40506183.083 7 -31158031.539 9
  20809734.335    -1318922.740 3      5404.570 1
  20882719.780     -768431.177 3   -367543.777 3
 92  4 15 21 42 29.9870000  0  7 18 11  6 19  2 16 15
  20415801.569      769839.257 4    646637.205 4
  20285365.890   -23810719.288 5 -18453189.694 5
  17631734.476   -36141596.829 7 -28018003.834 8
  17872940.632   -16761895.255 6 -13005171.098 8
  17062649.038   -40579771.269 7 -31215372.953 9
  20810114.741    -1316890.261 3      6987.816 2
  20860433.452     -885578.931 4   -458827.480 4
 92  4 15 21 42 59.9870000  0  7 18 11  6 19  2 16 15
  20425967.921      823196.863 5    688213.947 3
  20289472.312   -23789150.151 5 -18436382.604 5
  17612291.960   -36243767.329 7 -28097617.170 8
  17871520.577   -16769338.839 6 -13010971.375 8
  17048698.265   -40653086.483 7 -31272501.664 9
  20810551.655    -1314614.080 3      8761.001 2
  20838190.171    -1002416.223 4   -549869.255 2
 92  4 15 21 43 29.9870000  0  7 18 11  6 19  2 16 15
  20436126.523      876588.408 5    729817.125 4
  20293651.280   -23767190.528 5 -18419271.262 4
  17592870.054   -36345832.759 7 -28177148.624 8
  17870156.452   -16776506.787 6 -13016556.867 8
  17034791.015   -40726162.472 7 -31329443.958 9
  20811028.632    -1312125.872 3     10699.345 1
  20816011.554    -1118984.805 4   -640701.661 3
 92  4 15 21 43 59.9870000  0  7 18 11  6 19  2 16 15
  20446287.562      930006.878 5    771441.280 2
  20297903.640   -23744834.907 5 -18401851.330 4
  17573469.202   -36447783.636 7 -28256590.828 8
  17868850.577   -16783397.505 6 -13021926.332 8
  17020931.835   -40799000.365 7 -31386200.724 9
  20811540.015    -1309418.078 3     12808.798 2
  20793875.796    -1235279.912 3   -731320.980 2
 92  4 15 21 44 29.9870000  0  7 18 11  6 19  2 16 15
  20456465.358      983463.243 5    813094.968 3
  20302234.812   -23722076.653 5 -18384117.672 4
  17554093.741   -36549609.869 7 -28335935.899 8
  17867593.288   -16789991.193 6 -13027064.367 7
  17007114.991   -40871600.695 7 -31442772.376 9
  20812099.007    -1306491.420 3     15088.808 2
  20771796.374    -1351302.077 3   -821727.637 3
 92  4 15 21 44 59.9870000  0  7 18 11  6 19  2 16 15
  20466643.507     1036951.899 5    854773.811 3
  20306635.866   -23698927.932 5 -18366079.767 5
  17534736.859   -36651319.345 7 -28415189.996 8
  17866391.843   -16796293.751 6 -13031975.525 8
  16993345.132   -40943959.898 7 -31499156.138 9
  20812685.312    -1303375.242 2     17516.461 2
  20749760.304    -1467070.390 3   -911936.456 3
 92  4 15 21 45 29.9870000  0  7 18 11  6 19  2 16 15
  20476821.109     1090470.361 3    896475.859 4
  20311119.882   -23675389.519 5 -18347738.196 5
  17515406.499   -36752909.502 7 -28494351.119 8
  17865245.140   -16802312.850 6 -13036665.819 8
  16979625.968   -41016057.519 7 -31555336.072 9
  20813316.929    -1300081.901 2     20082.192 2
  20727792.241    -1582571.289 5  -1001936.936 2
 92  4 15 21 45 59.9870000  0  7 18 11  6 19  2 16 15
  20487017.491     1144031.355 3    938211.039 4
  20315671.085   -23651460.637 5 -18329092.368 5
  17496096.960   -36854375.744 7 -28573415.683 8
  17864155.632   -16808043.546 6 -13041131.377 7
  16965956.390   -41087891.242 7 -31611310.368 9
  20813978.085    -1296612.371 2     22785.206 2
  20705863.983    -1697798.690 5  -1091724.308 4
 92  4 15 21 46 29.9870000  0  6 18 11  6 19  2 15
  20497219.124     1197648.011 3    979989.590 3
  20320298.741   -23627146.385 5 -18310146.252 5
  17476813.296   -36955719.043 7 -28652384.447 8
  17863118.819   -16813492.672 6 -13045377.516 7
  16952335.827   -41159467.085 7 -31667083.719 9
  20683987.319    -1812751.705 4  -1181297.878 3
 92  4 15 21 46 59.9870000  0  6 18 11  6 19  2 15
  20507436.351     1251301.413 4   1021796.766 3
  20324997.155   -23602459.386 5 -18290909.702 5
  17457548.733   -37056948.270 7 -28731264.322 8
  17862131.655   -16818683.385 6 -13049422.298 7
  16938764.866   -41230787.173 7 -31722657.777 9
  20662166.484    -1927443.122 5  -1270667.647 2
 92  4 15 21 47 29.9870000  0  6 18 11  6 19  2 15
  20517658.835     1304975.666 5   1063620.212 2
  20329765.187   -23577407.346 5 -18271388.697 5
  17438306.538   -37158066.992 7 -28810058.100 9
  17861190.655   -16823621.489 6 -13053270.248 7
  16925236.984   -41301872.145 7 -31778048.629 9
  20640391.241    -2041873.105 5  -1359833.736 2
 92  4 15 21 47 59.9870000  0  6 18 11  6 19  2 15
  20527871.187     1358672.709 5   1105461.425 2
  20334599.952   -23551992.682 5 -18251585.080 5
  17419085.913   -37259074.129 7 -28888764.920 9
  17860302.773   -16828298.815 6 -13056914.990 7
  16911752.398   -41372739.966 7 -31833270.274 9
  20618666.640    -2156048.944 5  -1448801.782 2
 92  4 15 21 48 29.9860000  0  6 18 11  6 19  2 15
  20538099.041     1412399.200 5   1147325.570 1
  20339506.588   -23526208.285 5 -18231493.381 5
  17399887.666   -37359954.171 7 -28967372.709 9
  17859462.744   -16832700.728 6 -13060345.124 7
  16898311.955   -41443367.161 7 -31888304.418 9
  20596983.244    -2269959.312 5  -1537562.954 1
 92  4 15 21 48 59.9860000  0  6 18 11  6 19  2 15
  20548315.080     1466169.182 3   1189223.584 1
  20344487.182   -23500036.967 5 -18211100.174 4
  17380720.486   -37460694.672 7 -29045871.769 9
  17858683.650   -16836799.487 6 -13063539.055 7
  16884921.744   -41513728.788 7 -31943131.621 9
  20575363.096    -2383604.549 5  -1626117.552 3
 92  4 15 21 49 29.9860000  0  6 18 11  6 19  2 15
  20558553.635     1519979.139 3   1231152.791 1
  20349541.166   -23473477.082 5 -18190404.181 5
  17361578.643   -37561285.775 7 -29124254.407 9
  17857961.549   -16840588.077 6 -13066491.278 7
  16871583.119   -41583828.250 7 -31997754.542 9
  20553786.674    -2496971.948 5  -1714455.657 2
 92  4 15 21 49 59.9860000  0  6 18 11  6 19  2 15
  20568801.104     1573814.417 3   1273101.714 1
  20354667.510   -23446547.554 5 -18169420.169 5
  17342461.205   -37661742.072 7 -29202532.000 9
  17857297.080   -16844081.237 6 -13069213.298 7
  16858290.744   -41653681.438 7 -32052185.565 9
  20532260.791    -2610076.976 5  -1802589.326 2
 92  4 15 21 50 29.9860000  0  6 18 11  6 19  2 15
  20579046.369     1627679.694 3   1315074.022 1
  20359863.479   -23419243.666 5 -18148144.421 4
  17323371.143   -37762055.449 7 -29280698.235 8
  17856689.299   -16847276.051 6 -13071702.852 7
  16845048.557   -41723270.018 7 -32106410.399 9
  20510794.619    -2722891.356 5  -1890496.492 2
 92  4 15 21 50 59.9860000  0  6 18 11  6 19  2 15
  20589298.486     1681553.805 3   1357053.260 2
  20365129.447   -23391572.859 5 -18126582.784 5
  17304307.565   -37862228.857 7 -29358755.399 9
  17856137.877   -16850179.816 6 -13073965.612 7
  16831854.690   -41792603.168 7 -32160436.192 9
  20489384.604    -2835388.919 5  -1978156.742 2
 92  4 15 21 51 29.9860000  0  6 18 11  6 19  2 15
  20599567.486     1735451.161 5   1399050.574 1
  20370467.854   -23363524.464 5 -18104726.915 5
  17285276.440   -37962247.756 7 -29436692.161 9
  17855643.768   -16852778.010 6 -13075990.263 7
  16818711.197   -41861674.077 7 -32214257.647 9
  20468046.947    -2947534.365 5  -2065542.643 2
 92  4 15 21 51 59.9860000  0  6 18 11  6 19  2 15
  20609837.080     1789377.207 5   1441070.261 1
  20375873.940   -23335104.746 5 -18082581.707 5
  17266271.744   -38062114.494 7 -29514510.360 9
  17855211.088   -16855073.465 6 -13077779.000 7
  16805619.447   -41930467.327 7 -32267862.745 9
  20446775.572    -3059316.631 5  -2152645.488 2
 92  4 15 21 52 29.9860000  0  6 18 11  6 19  2 15
  20620102.322     1843325.508 5   1483107.286 1
  20381352.408   -23306319.261 5 -18060151.505 4
  17247296.416   -38161830.467 7 -29592211.079 8
  17854826.275   -16857074.776 6 -13079338.547 7
  16792581.869   -41998982.422 7 -32321251.103 9
  20425576.479    -3170726.224 5  -2239457.907 2
 92  4 15 21 52 59.9860000  0  6 18 11  6 19  2 15
  20630370.197     1897294.357 5   1525160.347 1
  20386899.033   -23277177.516 5 -18037443.671 4
  17228348.135   -38261401.322 7 -29669798.723 9
  17854498.869   -16858801.738 6 -13080684.313 7
  16779593.049   -42067238.306 7 -32374437.472 9
  20404443.768    -3281781.225 5  -2325994.017 2
 92  4 15 21 53 29.9860000  0  6 18 11  6 19  2 15
  20640652.541     1951309.061 5
  20392515.643   -23247669.520 5 -18014450.431 5
  17209432.010   -38360812.737 7 -29747262.128 9
  17854222.768   -16860255.024 6 -13081816.841 7
  16766655.338   -42135233.871 7 -32427420.996 9
  20383375.947    -3392485.532 5  -2412256.804 2
 92  4 15 21 53 59.9860000  0  6 18 11  6 19  2 15
  20650936.072     2005370.064 4
  20398197.940   -23217797.289 5 -17991173.404 5
  17190543.697   -38460063.012 7 -29824599.964 9
  17853998.596   -16861436.353 6 -13082737.442 7
  16753763.174   -42202975.429 7 -32480206.593 9
  20362377.635    -3502843.739 5  -2498249.889 2
 92  4 15 21 54 29.9860000  0  6 18 11  6 19  2 15
  20661232.510     2059479.270 4        -0.03811
  20403947.682   -23187560.236 5 -17967612.114 5
  17171689.533   -38559147.060 7 -29901808.282 9
  17853828.775   -16862327.256 6 -13083431.745 7
  16740918.658   -42270476.701 7 -32532804.958 9
  20341440.916    -3612865.614 5  -2583980.899 2
 92  4 15 21 54 59.9860000  0  6 18 11  6 19  2 15
  20671541.486     2113619.989 4     42186.901 2
  20409769.869   -23156968.994 5 -17943774.820 5
  17152864.979   -38658071.524 7 -29978892.249 9
  17853715.971   -16862926.837 6 -13083899.046 7
  16728118.807   -42337743.199 7 -32585220.389 9
  20320562.213    -3722565.963 5  -2669461.345 2
 92  4 15 21 55 29.9860000  0  6 18 11  6 19  2 15
  20681842.635     2167774.781 4     84384.880 2
  20415662.479   -23126026.966 5 -17919664.186 5
  17134072.088   -38756835.684 7 -30055851.296 9
  17853659.150   -16863206.408 6
  16715362.908   -42404764.859 7 -32637445.037 9
  20299750.471    -3831944.541 5  -2754691.114 2
 92  4 15 21 55 59.9860000  0  6 18 11  6 19  2 15
  20692152.932     2221921.897 3
  20421616.330   -23094747.335 4 -17895290.509 5
  17115306.315   -38855448.808 7 -30132692.640 9
  17853670.533   -16863154.215 6
  16702657.174   -42471542.551 7 -32689479.581 9
  20278994.986    -3941003.817 5  -2839672.021 3
 92  4 15 21 56 29.9860000  0  6 18 11  6 19  2 15
  20702448.900       27064.34513
  20427630.697   -23063125.301 5 -17870650.000 5
  17096569.158   -38953901.598 7 -30209409.065 8
  17853747.283   -16862769.860 6
  16689997.463   -42538066.958 7 -32741316.762 9
  20258303.486    -4049727.595 5  -2924391.542 2
 92  4 15 21 56 59.9860000  0  6 18 11  6 19  2 15
  20712745.791       81176.283 2        -0.31613
  20433710.861   -23031160.564 4 -17845742.440 5
  17077865.822   -39052189.762 7 -30285997.206 9
  17853880.275   -16862066.080 6 -13083228.683 7
  16677388.080   -42604330.476 7 -32792950.649 9
  20237682.877    -4158093.571 5  -3008832.264 3
 92  4 15 21 57 29.9860000  0  6 18 11  6 19  2 15
  20723038.611      135277.424 3     42155.855 2
  20439863.815   -22998850.204 5 -17820565.593 5
  17059196.963   -39150306.019 7 -30362451.388 9
  17854071.354   -16861045.519 6 -13082433.533 7
  16664828.713   -42670327.764 7 -32844377.083 9
  20217129.932    -4266082.182 5  -3092978.947 3
 92  4 15 21 57 59.9860000  0  6 18 11  6 19  2 15
  20733333.346      189355.842 3     84294.376 2
  20446073.049   -22966211.021 5 -17795132.491 4
  17040557.127   -39248263.201 7 -30438781.612 9
  17854319.580   -16859743.615 6 -13081419.168 7
  16652316.143   -42736078.446 7 -32895611.367 9
  20196655.502    -4373698.603 5  -3176835.654 3
 92  4 15 21 58 29.9860000  0  5 11  6 19  2 15
  20452344.408   -22933234.348 5 -17769436.419 5
  17021948.580   -39346048.353 7 -30514977.791 8
  17854621.213   -16858163.759 6 -13080188.218 7
  16639854.455   -42801568.406 7 -32946642.482 9
  20176245.690    -4480939.921 5  -3260400.094 3
 92  4 15 21 58 59.9860000  0  5 11  6 19  2 15
  20458690.166   -22899897.867 5 -17743459.955 5
  17003377.315   -39443634.969 7 -30591019.273 8
  17854977.010   -16856278.808 6 -13078719.532 7
  16627446.799   -42866768.957 7 -32997448.091 9
  20155912.557    -4587796.586 5  -3343664.856 3
 92  4 15 21 59 29.9860000  0  5 11  6 19  2 15
  20465104.494   -22866206.748 5 -17717207.144 4
  16984844.369   -39541023.945 7 -30666906.752 9
  17855396.705   -16854084.804 6 -13077010.010 7
  16615091.541   -42931696.967 7 -33048041.330 9
  20135648.947    -4694279.044 5  -3426638.073 3
 92  4 15 21 59 59.9860000  0  5 11  6 19  2 15
  20471579.221   -22832179.390 5 -17690692.374 5
  16966347.979   -39638229.475 7 -30742651.271 8
  17855868.979   -16851588.722 6 -13075065.112 7
  16602783.838   -42996375.926 7 -33098440.498 9
  20115451.971    -4800410.185 5  -3509337.527 2
 92  4 15 22  0 29.9860000  0  5 11  6 19  2 15
  20478115.275   -22797829.929 5 -17663926.580 2
  16947881.940   -39735261.544 7 -30818260.633 9
  17856405.768   -16848793.875 6 -13072887.430 7
  16590522.650   -43060811.380 7 -33148649.928 9
  20095324.463    -4906193.909 4  -3591766.300 4
 92  4 15 22  0 59.9860000  0  5 11  6 19  2 15
  20484706.830   -22763176.041 5 -17636923.559 4
  16929447.002   -39832133.363 7 -30893745.128 9
  17856989.268   -16845715.634 6 -13070488.906 7
  16578303.869   -43125027.172 7 -33198688.192 9
  20075257.033    -5011623.415 4  -3673919.110 5
 92  4 15 22  1 29.9860000  0  5 11  6 19  2 15
  20491357.979   -22728220.705 5 -17609685.649 3
  16911045.033   -39928843.762 7 -30969103.836 8
  17857627.799   -16842352.630 6 -13067868.487 7
  16566124.713   -43189013.543 7 -33248547.684 9
  20055270.197    -5116676.695 4  -3755778.717 4
 92  4 15 22  1 59.9850000  0  5 11  6 19  2 15
  20498068.833   -22692959.117 5 -17582209.079 2
  16892674.630   -40025379.005 7 -31044326.074 8
  17858325.489   -16838695.540 6 -13065018.914 7
  16553999.841   -43252737.529 7 -33298202.722 9
  20035349.396    -5221342.272 4  -3837336.280 4
 92  4 15 22  2 29.9850000  0  5 11  6 19  2 15
  20504841.638   -22657385.441 5 -17554489.382 3
  16874338.161   -40121738.125 7 -31119411.064 8
  17859077.263   -16834748.909 6 -13061943.722 7
  16541926.013   -43316190.425 7 -33347646.522 9
  20015505.060    -5325622.449 4  -3918593.492 4
 92  4 15 22  2 59.9850000  0  5 11  6 19  2 15
  20511671.599   -22621492.300 5 -17526520.725 2
  16856038.255   -40217904.624 7 -31194345.953 8
  17859882.560   -16830501.387 6 -13058634.086 7
  16529902.942   -43379364.561 7 -33396873.102 9
  19995739.685    -5429506.648 4  -3999542.172 4
 92  4 15 22  3 29.9850000  0  5 11  6 19  2 15
  20518563.107   -22585274.074 5 -17498298.752 2
  16837776.935   -40313869.094 7 -31269123.431 8
  17860753.903   -16825940.546 6 -13055080.312 7
  16517937.489   -43442246.009 7 -33445871.615 9
  19976042.888    -5533002.160 4  -4080187.939 4
 92  4 15 22  3 59.9850000  0  5 11  6 19  2 15
  20525516.286   -22548752.620 5 -17469840.497 3
  16819550.732   -40409648.686 7 -31343756.851 8
  17861676.153   -16821081.358 6 -13051294.061 7
  16506019.575   -43504871.228 7 -33494670.467 9
  19956418.364    -5636128.921 3  -4160546.368 4
 92  4 15 22  4 29.9850000  0  5 11  6 19  2 15
  20532517.685   -22511922.479 5 -17441141.722 3
  16801361.685   -40505233.823 7 -31418238.742 8
  17862661.489   -16815923.620 6 -13047275.172 7
  16494150.091   -43567249.006 7 -33543276.510 9
  19936877.552    -5738862.325 4  -4240598.258 4
 92  4 15 22  4 59.9850000  0  5 11  6 19  2 15
  20539583.935   -22474784.800 5 -17412203.308 2
  16783210.458   -40600620.921 7 -31492566.319 8
  17863700.810   -16810454.393 6 -13043013.567 7
  16482326.333   -43629384.836 7 -33591694.019 9
  19917396.575    -5841183.873 3  -4320329.191 5
 92  4 15 22  5 29.9850000  0  5 11  6 19  2 15
  20546715.161   -22437336.533 5 -17383022.848 1
  16765097.114   -40695803.084 7 -31566734.202 8
  17864801.536   -16804658.861 6 -13038497.714 7
  16470547.942   -43691276.900 7 -33639921.581 9
  19898007.950    -5943084.904 3  -4399732.471 4
 92  4 15 22  5 59.9850000  0  5 11  6 19  2 15
  20553897.396   -22399588.968 5 -17353609.182 1
  16747020.357   -40790786.995 7 -31640747.612 8
  17865966.817   -16798540.298 6 -13033730.144 7
  16458813.857   -43752943.014 7 -33687973.077 9
  19878696.935    -6044562.938 3  -4478806.132 5
 92  4 15 22  6 29.9850000  0  5 11  6 19  2 15
  20561134.544   -22361564.526 5 -17323979.729 2
  16728981.739   -40885590.602 7 -31714620.519 8
  17867190.247   -16792121.011 6 -13028728.249 7
  16447118.778   -43814400.130 7 -33735861.712 9
  19859460.692    -6145642.273 3  -4557569.081 5
 92  4 15 22  6 59.9850000  0  4  6 19  2 15
  16710974.872   -40980209.832 7 -31788349.757 8
  17868472.114   -16785382.163 6 -13023477.335 7
  16435465.622   -43875638.473 7 -33783579.878 9
  19840303.372    -6246332.001 3  -4636028.466 5
 92  4 15 22  7 29.9850000  0  4  6 19  2 15
  16693007.482   -41074637.379 7 -31861929.627 8
  17869816.849   -16778326.791 6 -13017979.791 7
  16423857.614   -43936637.945 7 -33831111.913 9
  19821213.442    -6346630.610 3  -4714183.051 5
 92  4 15 22  7 59.9850000  0  4  6 19  2 15
  16675076.974   -41168865.022 7 -31935353.726 8
  17871213.513   -16770968.643 6 -13012246.312 7
  16412299.614   -43997376.210 8 -33878440.409 9
  19802205.185    -6446515.597 3  -4792015.358 5
 92  4 15 22  8 29.9850000  0  5 13  6 19  2 15
  20122073.896          -0.52213
  16657181.200   -41262900.285 7 -32008627.922 8
  17872669.599   -16763324.369 6 -13006289.878 7
  16400789.903   -44057856.951 7 -33925568.242 9
  19783281.224    -6545981.889 4  -4869521.410 5
 92  4 15 22  8 59.9850000  0  5 13  6 19  2 15
  20088086.778     -178571.237 3
  16639322.966   -41356746.937 7 -32081755.149 8
  17874180.232   -16755406.667 5 -13000120.382 7
  16389331.677   -44118072.860 7 -33972489.710 9
  19764436.989    -6645021.331 4  -4946694.846 5
 92  4 15 22  9 29.9850000  0  5 13  6 19  2 15
  20054116.224     -357081.395 3
  16621500.614   -41450397.709 7 -32154729.743 9
  17875734.638   -16747228.431 6 -12993747.885 7
  16377922.302   -44178032.470 7 -34019211.461 9
  19745665.708    -6743615.181 4  -5023521.066 5
 92  4 15 22  9 59.9850000  0  5 13  6 19  2 15
  20020160.403     -535522.570 3
  16603718.482   -41543845.980 7 -32227546.546 8
  17877340.372   -16738786.823 6 -12987170.172 6
  16366555.208   -44237759.121 7 -34065751.690 9
  19726990.950    -6841752.136 4  -5099991.292 5
 92  4 15 22 10 29.9850000  0  5 13  6 19  2 15
  19986220.153     -713870.690 3
  16585978.817   -41637069.138 7 -32300187.936 8
  17879001.521   -16730047.714 6 -12980360.639 7
  16355235.200   -44297251.286 7 -34112109.205 9
  19708408.333    -6939432.343 5  -5176105.611 5
 92  4 15 22 10 59.9850000  0  5 13  6 19  2 15
  19952297.099     -892132.698 4
  16568280.997   -41730075.468 7 -32372660.365 9
  17880717.692   -16721024.073 6 -12973329.371 7
  16343955.966   -44356522.899 7 -34158294.862 9
  19689903.169    -7036690.320 5  -5251890.943 5
 92  4 15 22 11 29.9850000  0  5 13  6 19  2 15
  19918384.778    -1070334.227 3
  16550619.208   -41822891.375 7 -32444984.422 9
  17882486.692   -16711738.347 6 -12966093.897 7
  16332711.552   -44415610.575 7 -34204337.189 9
  19671467.146    -7133566.134 5  -5327378.470 5
 92  4 15 22 11 59.9850000  0  5 13  6 19  2 15
  19884496.099    -1248462.017 5
  16532994.810   -41915505.820 7 -32517151.496 9
  17884305.130   -16702166.921 5 -12958635.799 6
  16321507.833   -44474490.905 7 -34250217.945 9
  19653105.763    -7230060.404 5  -5402568.693 5
 92  4 15 22 12 29.9850000  0  5 13  6 19  2 15
  19850613.614    -1426513.494 4
  16515409.521   -42007917.920 7 -32589160.901 9
  17886184.482   -16692295.725 6 -12950944.114 6
  16310345.966   -44533143.613 7 -34295921.335 9
  19634810.435    -7326179.960 5  -5477466.943 5
 92  4 15 22 12 59.9850000  0  5 13  6 19  2 15
  19816738.317    -1604497.825 4
  16497861.224   -42100137.832 7 -32661020.554 9
  17888124.794   -16682129.926 5 -12943022.884 6
  16299227.794   -44591565.844 7 -34341445.136 9
  19616599.630    -7421914.779 5  -5552065.385 5
 92  4 15 22 13 29.9850000  0  5 13  6 19  2 15
  19782875.403    -1782397.228 3
  16480351.989   -42192149.371 7 -32732717.824 9
  17890115.778   -16671634.885 5 -12934845.100 6
  16288158.747   -44649733.295 7 -34386770.409 9
  19598459.302    -7517224.623 5  -5626332.652 5
 92  4 15 22 13 59.9850000  0  5 13  6 19  2 15
  19749049.388    -1960208.450 3
  16462883.161   -42283951.237 7 -32804251.721 9
  17892175.653   -16660808.632 5 -12926409.224 6
  16277138.958   -44707650.844 7 -34431900.950 9
  19580403.911    -7612096.071 5  -5700258.306 5
 92  4 15 22 14 29.9850000  0  5 13  6 19  2 15
  19715231.513    -2137941.646 4
  16445450.255   -42375554.808 7 -32875631.105 9
  17894297.857   -16649673.475 5 -12917732.638 6
  16266162.482   -44765330.517 7 -34476846.130 9
  19562437.747    -7706525.832 5  -5773839.766 5
 92  4 15 22 14 59.9850000  0  5 13  6 19  2 15
  19681426.278    -2315582.138 3
  16428059.857   -42466947.088 7 -32946845.843 9
  17896470.911   -16638239.029 5 -12908822.839 6
  16255233.396   -44822760.565 7 -34521596.800 9
  19544551.833    -7800486.865 5  -5847055.992 5
 92  4 15 22 15 29.9840000  0  5 13  6 19  2 15
  19647635.274    -2493119.572 3        -0.46111
  16410710.203   -42558121.365 7 -33017890.717 9
  17898702.781   -16626521.377 6 -12899692.362 6
  16244350.727   -44879945.746 7 -34566156.658 9
  19526767.602    -7893972.492 5  -5919901.743 5
 92  4 15 22 15 59.9840000  0  5 13  6 19  2 15
  19613870.117    -2670559.914 3
  16393400.961   -42649079.786 7 -33088767.383 9
  17900983.711   -16614540.326 5 -12890356.638 6
  16233513.438   -44936898.441 7 -34610535.363 9
  19509061.633    -7986984.756 5  -5992378.667 5
 92  4 15 22 16 29.9840000  0  5 13  6 19  2 15
  19580130.617          -0.04013
  16376131.711   -42739826.216 7 -33159478.867 9
  17903311.289   -16602303.416 5 -12880821.548 6
  16222720.539   -44993619.171 7 -34654733.315 9
  19491451.531    -8079524.327 5  -6064487.244 5
 92  4 15 22 16 59.9840000  0  5 13  6 19  2 15
  19546383.211     -177257.809 2
  16358900.914   -42830373.959 7 -33230035.523 9
  17905692.102   -16589826.310 5 -12871099.288 6
  16211966.820   -45050130.736 7 -34698768.278 9
  19473934.274    -8171609.160 5  -6136241.468 5
 92  4 15 22 17 29.9840000  0  4  6 19  2 15
  16341707.484   -42920722.427 7 -33300436.899 9
  17908111.602   -16577098.361 5 -12861181.550 6
  16201251.406   -45106446.026 7 -34742650.302 9
  19456493.500    -8263251.327 5  -6207650.764 5
 92  4 15 22 17 59.9840000  0  4  6 19  2 15
  16324552.313   -43010873.839 7 -33370684.720 9
  17910581.266   -16564113.340 5 -12851063.498 6
  16190569.453   -45162573.996 7 -34786386.369 9
  19439132.422    -8354469.779 5  -6278729.884 5
 92  4 15 22 18 29.9840000  0  5 13  6 19  2 15
  19445306.399     -176968.960 3
  16307439.899   -43100801.651 7 -33440758.305 9
  17913106.422   -16550842.536 5 -12840722.769 6
  16179929.430   -45218489.896 7 -34829957.177 9
  19421855.125    -8445248.374 5  -6349466.279 5
 92  4 15 22 18 59.9840000  0  5 13  6 19  2 15
  19411647.805     -353825.853 3        -0.12611
  16290369.328   -43190510.416 7 -33510661.213 9
  17915681.586   -16537304.572 5 -12830173.857 6
  16169326.969   -45274202.995 7 -34873369.969 9
  19404664.820    -8535607.176 5  -6419875.580 5
 92  4 15 22 19 29.9840000  0  5 13  6 19  2 15
  19378004.258     -530561.371 3   -137715.394 1
  16273342.344   -43279991.488 7 -33580386.686 9
  17918313.633   -16523477.246 5 -12819399.472 6
  16158764.156   -45329708.967 7 -34916621.359 9
  19387550.266    -8625542.606 5  -6489954.968 5
 92  4 15 22 19 59.9840000  0  5 13  6 19  2 15
  19344404.180     -707175.808 3   -275336.369 1
  16256357.531   -43369246.910 7
  17921003.539   -16509355.287 5 -12808395.495 6
  16148242.945   -45384997.148 7 -34959703.047 9
  19370518.508    -8715045.912 5
 92  4 15 22 20 29.9840000  0  5 13  6 19  2 15
  19310812.188     -883678.785 3
  16239413.649   -43458287.598 7
  17923741.578   -16494953.770 5 -12797173.688 6
  16137765.141   -45440061.598 7 -35002610.394 9
  19353568.930    -8804115.628 5
 92  4 15 22 20 59.9840000  0  5 13  6 19  2 15
  19277248.320    -1060075.352 5
  16222510.891   -43547120.225 7 -33788538.841 9
  17926536.945   -16480265.945 5 -12785728.770 6
  16127326.867   -45494910.802 7 -35045350.023 9
  19336698.274    -8892751.810 5  -6698168.475 5
 92  4 15 22 21 29.9840000  0  5 13  6 19  2 15
  19243707.359    -1236367.953 5
  16205644.734   -43635748.295 7 -33857599.640 9
  17929389.352   -16465288.641 5 -12774058.304 6
  16116930.070   -45549548.123 7 -35087924.554 9
  19319922.031    -8980946.656 5  -6766891.579 5
 92  4 15 22 21 59.9840000  0  5 13  6 19  2 15
  19210181.688    -1412543.857 5        -0.08211
  16188820.383   -43724160.142 7 -33926491.965 9
  17932289.820   -16450034.147 5 -12762171.832 6
  16106576.055   -45603960.226 7 -35130323.582 9
  19303227.633    -9068687.894 5  -6835261.244 5
 92  4 15 22 22 29.9840000  0  5 13  6 19  2 15
  19176671.774    -1588586.962 3   -137175.876 1
  16172038.695   -43812341.770 7 -33995204.891 9
  17935243.086   -16434511.962 5 -12750076.778 6
  16096263.438   -45658157.263 7 -35172555.034 9
  19286617.274    -9155968.530 5  -6903271.986 5
 92  4 15 22 22 59.9840000  0  5 13  6 19  2 15
  19143201.477    -1764480.821 4   -274235.412 1
  16155306.617   -43900277.842 7 -34063726.476 9
  17938247.234   -16418720.147 5 -12737771.626 6
  16085989.797   -45712146.649 7 -35214624.681 9
  19270092.961    -9242762.776 5  -6970903.738 5
 92  4 15 22 23 29.9840000  0  5 13  6 19  2 15
  19109763.758    -1940231.003 5
  16138617.133   -43987974.872 7 -34132061.795 9
  17941298.977   -16402684.777 5 -12725276.686 6
  16075753.734   -45765932.917 8 -35256536.052 9
  19253669.664    -9329074.125 5  -7038159.222 5
 92  4 15 22 23 59.9840000  0  5 13  6 19  2 15
  19076342.024    -2115831.622 4
  16121974.164   -44075428.965 7 -34200207.814 9
  17944397.250   -16386408.044 5 -12712593.664 6
  16065557.117   -45819519.601 7 -35298291.902 9
  19237338.891    -9414893.295 5  -7105031.165 5
 92  4 15 22 24 29.9840000  0  5 13  6 19  2 15
  19042950.828    -2291292.557 4        -0.17411
  16105377.500   -44162651.273 7 -34268173.226 9
  17947543.242   -16369881.722 5 -12699716.162 6
  16055394.516   -45872918.659 8 -35339901.548 9
  19221102.758    -9500218.179 5  -7171517.988 5
 92  4 15 22 24 59.9840000  0  5 13  6 19  2 15
  19009592.977    -2466576.755 4   -136584.681 1
  16088828.461   -44249605.838 7 -34335930.002 9
  17950743.367   -16353056.677 5 -12686605.896 6
  16045279.828   -45926078.135 8 -35381324.513 9
  19204967.274    -9585014.556 5  -7237592.963 4
 92  4 15 22 25 29.9840000  0  5 13  6 19  2 15
  18976273.242    -2641685.102 5   -273032.137 1
  16072334.695   -44336294.998 7 -34403479.983 9
  17954009.547   -16335921.138 5 -12673253.670 6
  16035209.164   -45978997.467 8 -35422560.343 9
  19188927.508    -9669301.251 5  -7303270.807 4
 92  4 15 22 25 59.9840000  0  5 13  6 19  2 15
  18942991.266    -2816616.976 5   -409342.063 1
  16055888.695   -44422719.228 7 -34470823.514 9
  17957326.266   -16318467.058 5 -12659653.261 6
  16025183.461   -46031679.507 7 -35463611.275 9
  19172985.594    -9753083.632 5  -7368555.666 5
 92  4 15 22 26 29.9840000  0  5 13  6 19  2 15
  18909734.399    -2991382.515 5   -545522.352 2
  16039489.859   -44508890.505 7 -34537969.935 9
  17960704.203   -16300699.548 5 -12645808.606 6
  16015202.016   -46084131.764 8 -35504483.158 9
  19157131.984    -9836381.192 5  -7433462.763 5
 92  4 15 22 26 59.9840000  0  5 13  6 19  2 15
  18876504.938    -3165976.122 4   -681568.761 1
  16023141.641   -44594803.760 7 -34604915.308 9
  17964146.031   -16282639.225 5 -12631735.795 6
  16005264.820   -46136358.983 8 -35545179.681 9
  19141374.211    -9919204.213 5  -7498000.087 3
 92  4 15 22 27 29.9840000  0  5 13  6 19  2 15
  18843309.242    -3340398.684 4   -817481.860 1
  16006840.289   -44680461.763 7 -34671661.777 9
  17967634.414   -16264295.258 5 -12617441.977 6
  15995367.766   -46188366.253 8 -35585704.815 9
  19125704.328   -10001542.190 5  -7562159.476 5
 92  4 15 22 27 59.9840000  0  5 13  6 19  2 15
  18810155.250    -3514625.190 5   -953242.185 1
  15990592.281   -44765840.933 7 -34738190.974 9
  17971181.453   -16245650.786 5 -12602913.991 6
  15985517.641   -46240129.158 8 -35626039.534 9
  19110131.149   -10083368.780 5  -7625920.388 4
 92  4 15 22 28 29.9840000  0  5 13  6 19  2 15
  18777042.094    -3688663.268 5  -1088855.654 2
  15974398.359   -44850950.249 7 -34804509.893 9
  17974784.734   -16226730.055 5 -12588170.733 6
  15975710.445   -46291663.797 8 -35666196.382 9
  19094659.820   -10164695.944 5  -7689292.144 4
 92  4 15 22 28 59.9840000  0  5 13  6 19  2 15
  18743954.875    -3862506.553 5  -1224317.351 2
  15958254.727   -44935784.846 7 -34870614.755 9
  17978435.938   -16207538.092 5 -12573216.131 6
  15965946.664   -46342966.785 8 -35706172.730 9
  19079278.328   -10245515.679 5  -7752268.511 4
 92  4 15 22 29 29.9830000  0  5 13  6 19  2 15
  18710913.472    -4036143.551 5  -1359618.270 1
  15942164.691   -45020337.116 7 -34936499.618 9
  17982148.706   -16188048.229 5 -12558029.384 6
  15956232.573   -46394020.633 8 -35745954.939 9
  19063994.995   -10325814.311 5  -7814838.802 4
 92  4 15 22 29 59.9830000  0  5 13  6 19  2 15
  18677910.706    -4209580.906 5  -1494763.624 1
  15926127.605   -45104608.852 7 -35002165.881 9
  17985911.386   -16168253.173 5 -12542604.843 6
  15946563.417   -46444836.330 7 -35785551.567 9
  19048812.870   -10405605.363 5  -7877013.586 4
 92  4 15 22 30 29.9830000  0  5 13  6 19  2 15
  18644947.026    -4382815.560 5  -1629751.007 2
  15910144.316   -45188601.454 7 -35067614.646 9
  17989734.987   -16148161.798 5 -12526949.402 6
  15936934.816   -46495422.025 8 -35824968.979 9
  19033725.230   -10484886.291 5  -7938790.854 4
 92  4 15 22 30 59.9830000  0  5 13  6 19  2 15
  18612017.948    -4555824.918 5  -1764562.830 2
  15894219.519   -45272293.687 7 -35132829.340 9
  17993619.714   -16127742.258 5 -12511038.248 6
  15927356.628   -46545765.234 8 -35864197.441 9
  19018742.480   -10563637.273 5  -8000155.203 4
 92  4 15 22 31 29.9830000  0  5 13  6 19  2 15
  18579139.323    -4728609.830 5  -1899199.813 1
  15878347.612   -45355687.981 7 -35197811.888 9
  17997570.066   -16106999.819 5 -12494875.498 6
  15917818.323   -46595888.713 8 -35903254.688 9
  19003857.628   -10641853.765 5  -8061103.040 4
 92  4 15 22 31 59.9830000  0  5 13  6 19  2 15
  18546302.831    -4901172.085 5  -2033663.258 1
  15862536.558   -45438787.296 7 -35262564.582 9
  18001571.878   -16085961.947 5 -12478482.542 6
  15908316.597   -46645811.637 8 -35942155.657 9
  18989073.066   -10719535.593 5  -8121634.248 5
 92  4 15 22 32 29.9830000  0  5 13  6 19  2 15
  18513510.347    -5073515.779 5  -2167956.411 2
  15846778.112   -45521596.589 7 -35327091.284 9
  18005630.691   -16064649.916 5 -12461875.957 6
  15898857.503   -46695529.161 8 -35980896.574 9
  18974394.776   -10796678.669 5  -8181745.661 4
 92  4 15 22 32 59.9830000  0  5 13  6 19  2 15
  18480755.542    -5245614.986 5  -2302059.068 1
  15831079.870   -45604091.310 7 -35391372.871 9
  18009742.292   -16043037.525 5 -12445035.312 6
  15889442.120   -46745004.285 8 -36019448.611 9
  18959823.534   -10873255.388 5  -8241415.733 4
 92  4 15 22 33 29.9830000  0  5 13  6 19  2 15
  18448050.495    -5417469.082 5  -2435970.782 1
  15815440.737   -45686272.307 7 -35455409.985 9
  18013906.003   -16021136.896 5 -12427970.095 6
  15880077.706   -46794213.421 8 -36057793.385 9
  18945361.534   -10949255.966 5  -8300636.853 3
 92  4 15 22 33 59.9830000  0  5 13  6 19  2 15
  18415391.245    -5589105.931 5  -2569713.248 2
  15799856.347   -45768168.369 7 -35519225.078 9
  18018128.136   -15998985.858 5 -12410709.732 6
  15870763.081   -46843165.253 8 -36095937.664 9
  18930999.487   -11024724.023 5  -8359443.048 4
 92  4 15 22 34 29.9830000  0  5 13  6 19  2 15
  18382776.612    -5760508.923 5  -2703273.488 2
  15784330.081   -45849764.386 7 -35582806.371 9
  18022389.941   -15976560.097 5 -12393235.293 6
  15861501.066   -46891838.467 8 -36133864.828 9
  18916738.097   -11099657.739 5  -8417832.841 4
 92  4 15 22 34 59.9830000  0  5 13  6 19  2 15
  18350200.222    -5931678.399 5  -2836651.791 2
  15768858.284   -45931062.132 7 -35646155.241 9
  18026711.605   -15953857.432 5 -12375545.088 6
  15852287.417   -46940250.745 8 -36171588.678 9
  18902580.651   -11174058.915 5  -8475807.692 5
 92  4 15 22 35 29.9830000  0  5 13  6 19  2 15
  18317676.487    -6102623.290 5  -2969855.091 3
  15753443.753   -46012071.474 7 -35709279.386 9
  18031081.480   -15930897.963 5 -12357654.795 6
  15843118.675   -46988433.972 8 -36209134.048 9
  18888523.526   -11247937.139 5  -8533375.019 5
 92  4 15 22 35 59.9830000  0  5 13  6 19  2 15
  18285188.144    -6273328.373 5  -3102871.516 3
  15738085.737   -46092778.024 7 -35772167.591 9
  18035501.698   -15907662.843 5 -12339549.702 6
  15833990.355   -47036401.930 8 -36246511.672 9
  18874563.722   -11321276.936 5  -8590522.814 5
 92  4 15 22 36 29.9830000  0  5 13  6 19  2 15
  18252743.636    -6443801.638 5  -3235707.294 2
  15722782.487   -46173192.088 7 -35834827.877 9
  18039975.675   -15884143.982 5 -12321223.508 5
  15824899.816   -47084176.806 8 -36283738.845 9
  18860714.691   -11394060.969 5  -8647237.510 4
 92  4 15 22 36 59.9830000  0  5 13  6 19  2 15
  18220350.112    -6614032.791 5  -3368354.458 2
  15707538.089   -46253304.000 7 -35897252.721 9
  18044507.276   -15860331.357 5 -12302668.429 6
  15815846.464   -47131755.009 8 -36320812.768 9
  18846978.128   -11466266.023 5  -8703501.084 5
 92  4 15 22 37 29.9830000  0  5 13  6 19  2 15
  18188007.519    -6784013.191 5  -3500806.178 3
  15692352.409   -46333106.149 7 -35959436.184 9
  18049102.331   -15836211.636 5 -12283874.047 5
  15806830.894   -47179128.965 8 -36357727.532 9
  18833344.292   -11537900.573 5  -8759320.084 5
 92  4 15 22 37 59.9830000  0  5 13  6 19  2 15
  18155709.433    -6953726.067 5  -3633049.428 1
  15677228.566   -46412583.529 7 -36021366.585 9
  18053754.480   -15811759.988 5 -12264821.013 6
  15797860.542   -47226274.563 8 -36394464.350 9
  18819821.550   -11608958.429 5  -8814689.712 5
 92  4 15 22 38 29.9830000  0  5 13  6 19  2 15
  18123463.417    -7123158.878 5  -3765074.447 2
  15662166.987   -46491725.131 7 -36083035.341 9
  18058471.808   -15786968.156 5 -12245502.907 6
  15788934.175   -47273177.188 8 -36431011.837 9
  18806410.644   -11679452.318 5  -8869619.910 5
 92  4 15 22 38 59.9830000  0  5 13  6 19  2 15
  18091273.581    -7292324.005 5  -3896890.900 1
  15647168.495   -46570543.996 7 -36144452.616 9
  18063248.237   -15761866.850 5 -12225943.672 6
  15780052.831   -47319851.095 8 -36467381.106 9
  18793092.401   -11749436.163 5  -8924152.665 5
 92  4 15 22 39 29.9830000  0  5 13  6 19  2 15
  18059134.112    -7461217.803 5  -4028495.904 1
  15632233.487   -46649037.449 7 -36205616.322 9
  18068080.245   -15736474.160 5 -12206157.361 6
  15771215.769   -47366288.538 7 -36503566.116 9
  18779865.448   -11818914.414 5  -8978291.458 5
 92  4 15 22 39 59.9830000  0  5 13  6 19  2 15
  18027043.831    -7629856.508 5  -4159902.160 2
  15617354.644   -46727223.043 7 -36266540.141 9
  18072961.737   -15710816.745 5 -12186164.777 6
  15762422.198   -47412499.485 8 -36539574.630 9
  18766739.925   -11887889.323 5  -9032038.038 4
 92  4 15 22 40 29.9830000  0  5 13  6 19  2 15
  17995006.628    -7798214.958 5  -4291090.031 4
  15602538.823   -46805076.685 7 -36327205.301 9
  18077896.198   -15684881.474 5 -12165955.680 6
  15753678.206   -47458456.857 8 -36575385.553 9
  18753716.823   -11956337.115 5  -9085373.882 4
 92  4 15 22 40 59.9830000  0  5 13  6 19  2 15
  17963017.456    -7966302.208 5  -4422066.601 4
  15587785.628   -46882608.584 7 -36387619.745 9
  18082881.089   -15658689.936 5 -12145546.910 6
  15744977.448   -47504173.090 8 -36611008.581 9
  18740796.308   -12024243.812 5  -9138288.095 5
 92  4 15 22 41 29.9830000  0  5 13  6 19  2 15
  17931088.730    -8134114.709 5  -4552829.065 2
  15573092.987   -46959816.562 7 -36447781.791 9
  18087916.503   -15632234.764 5 -12124932.706 5
  15736323.620   -47549649.581 8 -36646444.804 9
  18727979.675   -12091579.802 5  -9190757.605 5
 92  4 15 22 41 59.9830000  0  5 13  6 19  2 15
  17899205.081    -8301641.614 5  -4683369.040 2
  15558464.628   -47036691.192 7 -36507684.085 9
  18093009.362   -15605490.868 5 -12104093.499 6
  15727713.597   -47594890.534 8 -36681697.480 9
  18715279.933   -12158341.395 5  -9242779.522 5
 92  4 15 22 42 29.9830000  0  5 13  6 19  2 15
  17867381.925    -8468881.041 5  -4813685.020 4
  15543899.862   -47113231.750 7 -36567326.061 9
  18098146.183   -15578463.878 5 -12083033.738 5
  15719147.948   -47639905.954 8 -36716774.419 9
  18702678.816   -12224537.238 5  -9294360.622 4
 92  4 15 22 42 59.9830000  0  5 13  6 19  2 15
  17835610.651    -8635829.391 5  -4943774.200 3
  15529399.651   -47189435.750 7 -36626705.780 9
  18103344.894   -15551162.299 5 -12061760.012 5
  15710621.198   -47684711.230 7 -36751687.613 9
  18690190.605   -12290159.036 5  -9345494.379 5
 92  4 15 22 43 29.9820000  0  5 13  6 19  2 15
  17803894.326    -8802498.893 5  -5073646.088 4
  15514957.436   -47265319.093 7 -36685835.643 9
  18108587.748   -15523601.770 5 -12040284.484 5
  15702133.443   -47729318.593 8 -36786446.591 9
  18677811.248   -12355229.538 5  -9396198.592 5
 92  4 15 22 43 59.9820000  0  5 13  6 19  2 15
  17772233.397    -8968894.334 5  -5203304.477 4
  15500578.889   -47340882.018 7 -36744715.830 9
  18113890.076   -15495776.833 5 -12018602.926 5
  15693684.467   -47773724.605 8 -36821048.671 9
  18665535.264   -12419749.381 5  -9446473.706 5
 92  4 15 22 44 29.9820000  0  5 13  6 19  2 15
  17740620.936    -9135011.732 5  -5332746.217 4
  15486260.217   -47416125.115 7 -36803346.803 9
  18119227.350   -15467694.681 5 -11996720.958 5
  15685272.186   -47817927.195 8 -36855492.249 9
  18653363.225   -12483704.503 5  -9496308.785 5
 92  4 15 22 44 59.9820000  0  5 13  6 19  2 15
  17709062.983    -9300840.771 5  -5461963.257 4
  15472005.420   -47491039.066 7 -36861721.300 9
  18124623.795   -15439338.845 4 -11974625.715 5
  15676902.108   -47861909.869 8 -36889764.460 9
  18641303.772   -12547069.042 5  -9545683.662 5
 92  4 15 22 45 29.9820000  0  5 13  6 19  2 15
  17677566.162    -9466361.317 5  -5590939.920 5
  15457815.623   -47565604.353 7 -36919824.099 9
  18130080.467   -15410674.670 5 -11952290.219 5
  15668579.498   -47905646.356 8 -36923844.836 9
  18629361.592   -12609830.958 5  -9594588.983 5
 92  4 15 22 45 59.9820000  0  5 13  6 19  2 15
  17646124.592    -9631581.584 5  -5719682.613 3
  15443691.123   -47639830.570 7 -36977662.700 9
  18135588.764   -15381722.981 5 -11929730.692 5
  15660299.006   -47949158.803 8 -36957750.633 9
  18617531.264   -12672014.044 5  -9643043.261 4
 92  4 15 22 46 29.9820000  0  5 13  6 19  2 15
  17614744.373    -9796494.890 6  -5848186.114 4
  15429631.068   -47713712.070 7 -37035232.692 9
  18141155.123   -15352498.958 4 -11906958.945 5
  15652062.639   -47992444.653 8 -36991479.860 9
  18605807.287   -12733623.219 5  -9691050.336 5
 92  4 15 22 46 59.9820000  0  5 13  6 19  2 15
  17583419.936    -9961088.991 5  -5976440.891 4
  15415640.350   -47787237.840 7 -37092525.478 9
  18146763.326   -15323001.898 5 -11883974.461 5
  15643871.608   -48035494.256 8 -37025025.005 9
  18594189.545   -12794665.983 5  -9738616.066 5
 92  4 15 22 47 29.9820000  0  5 13  6 19  2 15
  17552159.850   -10125363.377 5  -6104446.551 4
  15401716.318   -47860409.195 7 -37149542.114 9
  18152429.529   -15293241.972 5 -11860785.127 5
  15635720.139   -48078323.112 8 -37058398.139 9
  18582675.904   -12855165.234 5  -9785758.272 4
 92  4 15 22 47 59.9820000  0  5 13  6 19  2 15
  17520962.983   -10289312.498 6  -6232198.751 3
  15387861.647   -47933221.015 7 -37206278.583 9
  18158140.537   -15263226.901 5 -11837397.001 5
  15627613.537   -48120920.299 7 -37091590.752 9
  18571265.975   -12915103.132 5  -9832463.074 5
 92  4 15 22 48 29.9820000  0  5 13  6 19  2 15
  17489824.475   -10452944.489 6  -6359703.815 4
  15374069.272   -48005682.991 7 -37262742.447 9
  18163897.600   -15232954.337 4 -11813808.217 5
  15619554.217   -48163281.307 8 -37124599.329 9
  18559972.186   -12974468.417 5  -9878721.677 5
 92  4 15 22 48 59.9820000  0  5 13  6 19  2 15
  17458745.201   -10616261.374 6  -6486963.366 4
  15360348.404   -48077797.688 7 -37318935.709 9
  18169707.483   -15202404.720 3 -11790003.559 5
  15611535.006   -48205411.842 8 -37157428.311 9
  18548786.967   -13033259.719 5  -9924533.022 5
 92  4 15 22 49 29.9820000  0  5 13  6 19  2 15
  17427729.576   -10779246.489 6  -6613964.374 4
  15346695.139   -48149549.203 7 -37374845.969 9
  18175580.147   -15171560.889 4 -11765969.670 5
  15603567.334   -48247294.827 8 -37190064.401 9
  18537710.951   -13091449.018 5  -9969875.271 5
 92  4 15 22 49 59.9820000  0  5 13  6 19  2 15
  17396776.858   -10941897.499 5  -6740705.045 4
  15333109.233   -48220936.670 7 -37430472.564 9
  18181507.686   -15140420.895 5 -11741704.990 5
  15595645.029   -48288924.033 8 -37222502.738 9
  18526753.115   -13149027.574 5 -10014741.620 5
 92  4 15 22 50 29.9820000  0  5 13  6 19  2 15
  17365888.233   -11104221.229 6  -6867190.674 4
  15319593.756   -48291968.446 7 -37485821.992 9
  18187492.725   -15108994.161 4 -11717216.882 5
  15587764.006   -48330329.739 8 -37254766.915 9
  18515907.990   -13206020.196 5 -10059151.411 5
 92  4 15 22 50 59.9820000  0  5 13  6 19  2 15
  17335062.803   -11266219.521 6  -6993422.725 4
  15306143.037   -48362646.674 7 -37540895.928 9
  18193521.170   -15077299.951 4 -11692520.329 5
  15579924.022   -48371530.879 8 -37286871.689 9
  18505170.084   -13262450.086 5 -10103122.676 5
 92  4 15 22 51 29.9820000  0  5 13  6 19  2 15
  17304292.811   -11427897.404 6  -7119405.093 4
  15292760.764   -48432978.122 7 -37595699.653 9
  18199597.412   -15045366.846 5 -11667637.647 5
  15572118.795   -48412548.503 8 -37318833.468 9
  18494539.045   -13318329.097 5 -10146664.714 5
 92  4 15 22 51 59.9820000  0  5 13  6 19  2 15
  17273592.756   -11589235.402 6  -7245122.633 3
  15279445.647   -48502944.163 7 -37650218.626 9
  18205721.889   -15013179.814 5 -11642557.071 5
  15564350.772   -48453370.843 8 -37350643.072 9
  18484011.076   -13373642.751 5 -10189766.199 5
 92  4 15 22 52 29.9820000  0  5 13  6 19  2 15
  17242957.733   -11750222.578 6  -7370566.807 5
  15266203.850   -48572535.541 7 -37704445.679 9
  18211898.068   -14980730.722 5 -11617272.317 5
  15556621.115   -48493988.473 8 -37382293.166 9
  18473594.412   -13428382.428 5 -10232420.433 5
 92  4 15 22 52 59.9820000  0  5 13  6 19  2 15
  17212387.490   -11910869.490 6  -7495745.839 5
  15253028.850   -48641763.507 7 -37758389.536 9
  18218115.904   -14948031.271 5 -11591792.481 5
  15548931.748   -48534398.099 7 -37413781.180 9
  18463287.483   -13482547.935 5 -10274627.251 5
 92  4 15 22 53 29.9820000  0  5 13  6 19  2 15
  17181885.412   -12071155.001 6  -7620643.275 4
  15239928.725   -48710607.704 7 -37812034.361 9
  18224393.272   -14915061.666 5 -11566102.125 5
  15541286.147   -48574575.853 7 -37445088.520 9
  18453099.803   -13536103.980 5 -10316359.203 5
 92  4 15 22 53 59.9820000  0  5 13  6 19  2 15
  17151449.568   -12231080.463 6  -7745260.166 5
  15226901.272   -48779070.714 7 -37865382.145 9
  18230722.576   -14881821.010 5 -11540200.567 5
  15533686.154   -48614514.385 7 -37476209.446 9
  18443019.545   -13589048.024 5 -10357614.242 4
 92  4 15 22 54 29.9820000  0  5 13  6 19  2 15
  17121090.115   -12390651.349 6  -7869600.778 5
  15213944.858   -48847158.670 7 -37918437.699 9
  18237097.084   -14848324.359 4 -11514099.535 5
  15526131.279   -48654223.083 8 -37507151.285 9
  18433061.936   -13641388.830 5 -10398399.224 5
 92  4 15 22 54 59.9820000  0  5 13  6 19  2 15
  17090788.998   -12549860.240 6  -7993659.324 4
  15201059.654   -48914865.288 7 -37971196.093 9
  18243517.951   -14814578.632 4 -11487804.431 5
  15518618.279   -48693696.975 8 -37537910.167 9
  18423216.662   -13693132.120 6 -10438718.627 5
 92  4 15 22 55 29.9820000  0  5 13  6 19  2 15
  17060564.772   -12708697.519 6  -8117428.320 5
  15188250.162   -48982182.257 7 -38023650.864 9
  18249986.209   -14780585.102 4 -11461316.230 5
  15511150.342   -48732941.630 8 -37568490.428 9
  18413478.451   -13744284.021 5 -10478577.207 5
 92  4 15 22 55 59.9820000  0  5 13  6 19  2 15
  17030411.443   -12867160.959 6  -8240906.004 5
  15175513.826   -49049108.056 7 -38075800.822 9
  18256499.764   -14746347.669 4 -11434637.992 5
  15503725.006   -48771951.908 8 -37598888.056 9
  18403860.342   -13794859.831 5 -10517986.895 5
 92  4 15 22 56 29.9820000  0  5 13  6 19  2 15
  17000321.053   -13025256.777 6  -8364097.264 5
  15162851.623   -49115650.612 7 -38127652.158 9
  18263063.014   -14711874.287 4 -11407775.898 5
  15496348.467   -48810728.264 8 -37629103.408 9
  18394339.990   -13844874.323 5 -10556959.209 5
 92  4 15 22 56 59.9820000  0  5 13  6 19  2 15
  16970308.436   -13182988.727 6  -8487004.998 5
  15150260.514   -49181814.390 7 -38179208.338 9
  18269666.045   -14677167.341 4 -11380731.798 5
  15489012.733   -48849276.488 7 -37659140.994 9
  18384923.162   -13894332.644 5 -10595498.110 5
 92  4 15 22 57 29.9820000  0  5 13  6 19  2 15
  16940363.154   -13340350.912 6  -8609624.604 5
  15137742.490   -49247594.386 7 -38230465.470 9
  18276317.397   -14642213.501 3 -11353495.317 5
  15481720.654   -48887597.925 7 -37689001.867 9
  18375627.787   -13943212.157 5 -10633585.995 5
 92  4 15 22 57 59.9810000  0  5 13  6 19  2 15
  16910488.798   -13497337.919 6  -8731951.888 5
  15125297.704   -49312989.351 7 -38281422.570 9
  18283020.892   -14606995.153 4 -11326052.721 5
  15474472.454   -48925680.762 7 -37718676.818 9
  18366438.025   -13991500.387 5 -10671213.158 5
 92  4 15 22 58 29.9810000  0  5 13  6 19  2 15
  16880687.704   -13653959.766 6  -8853994.611 5
  15112927.056   -49378003.934 7 -38332083.280 9
  18289775.314   -14571495.948 4 -11298391.294 5
  15467268.915   -48963539.494 7 -37748177.142 9
  18357364.415   -14039190.009 5 -10708373.875 5
 92  4 15 22 58 59.9810000  0  5 13  6 19  2 15
  16850952.103   -13810204.757 6  -8975743.695 5
  15100627.720   -49442630.691 7 -38382441.779 9
  18296589.517   -14535702.393 3 -11270500.517 4
  15460105.806   -49001181.979 8 -37777508.958 9
  18348404.915   -14086261.681 5 -10745053.061 5
 92  4 15 22 59 29.9810000  0  5 13  6 19  2 15
  16821294.439   -13966065.677 6  -9097193.486 5
  15088405.735   -49506863.640 7 -38432493.420 9
  18303460.587   -14499605.386 4 -11242373.259 5
  15452984.696   -49038600.730 7 -37806666.435 9
  18339568.251   -14132706.047 5 -10781243.459 5
 92  4 15 22 59 59.9810000  0  5 13  6 19  2 15
  16791704.118   -14121555.837 6  -9218354.375 5
  15076255.064   -49570716.893 7 -38482249.193 9
  18310375.876   -14463229.340 3 -11214028.563 5
  15445903.353   -49075814.817 7 -37835664.433 9
  18330843.087   -14178550.830 5 -10816966.615 5
 92  4 15 23  0 29.9810000  0  5 13  6 19  2 15
  16762191.314   -14276657.597 6  -9339212.635 5
  15064179.509   -49634173.632 7 -38531696.001 9
  18317354.103   -14426586.203 3 -11185475.766 4
  15438860.298   -49112820.952 7 -37864500.399 9
  18322236.384   -14223779.518 5 -10852209.713 5
 92  4 15 23  0 59.9810000  0  5 13  6 19  2 15
  16732744.384   -14431381.205 6  -9459776.191 5
  15052177.556   -49697245.095 7 -38580842.584 9
  18324364.267   -14389715.526 3 -11156745.646 3
  15431855.728   -49149631.703 7 -37893184.108 9
  18313741.454   -14268419.550 5 -10886994.118 5
 92  4 15 23  1 29.9810000  0  5 13  6 19  2 15
  16703374.235   -14585730.415 6  -9580048.040 5
  15040246.860   -49759936.486 7 -38629693.008 9
  18331418.095   -14352648.093 3 -11127862.241 3
  15424888.923   -49186254.894 8 -37921721.660 9
  18305355.915   -14312497.241 5 -10921340.321 5
 92  4 15 23  1 59.9810000  0  5 13  6 19  2 15
  16674075.837   -14739699.381 6  -9700023.595 5
  15028391.610   -49822242.659 7 -38678243.280 9
  18338511.103   -14315386.748 3 -11098827.741 5
  15417956.087   -49222683.396 8 -37950107.511 9
  18297069.048   -14356020.827 5 -10955254.767 5
 92  4 15 23  2 29.9810000  0  5 13  6 19  2 15
  16644847.673   -14893277.010 6  -9819694.203 5
  15016610.837   -49884153.565 7 -38726485.541 9
  18345639.329   -14277922.070 3 -11069634.791 4
  15411062.868   -49258897.851 7 -37978326.571 9
  18288896.720   -14398986.256 5 -10988734.298 5
 92  4 15 23  2 59.9810000  0  5 13  6 19  2 15
  16615699.415   -15046469.055 6  -9939064.379 5
  15004903.189   -49945675.553 7 -38774424.753 9
  18352808.501   -14240258.781 3 -11040287.092 4
  15404212.267   -49294898.691 7 -38006379.185 9
  18280822.032   -14441411.242 5 -11021792.676 5
 92  4 15 23  3 29.9810000  0  5 13  6 19  2 15
  16586619.923   -15199277.207 6 -10058135.426 5
  14993269.454   -50006811.351 7 -38822063.037 9
  18360017.462   -14202385.602 3 -11010775.825 4
  15397404.532   -49330681.509 7 -38034261.905 9
  18272854.275   -14483284.666 5 -11054421.292 5
 92  4 15 23  3 59.9810000  0  5 13  6 19  2 15
  16557616.704   -15351695.440 6 -10176902.635 5
  14981709.876   -50067555.849 7 -38869396.418 9
  18367265.345   -14164281.951 3 -10981084.973 4
  15390638.126   -49366234.835 7 -38061965.798 9
  18264993.360   -14524591.750 5 -11086608.585 5
 92  4 15 23  4 29.9810000  0  5 13  6 19  2 15
  16528682.095   -15503727.102 6 -10295368.622 5
  14970224.064   -50127913.011 7 -38916427.975 9
  18374559.353   -14125966.104 3 -10951228.781 5
  15383912.157   -49401583.355 7 -38089510.102 9
  18257240.165   -14565323.579 5 -11118347.651 5
 92  4 15 23  4 59.9810000  0  5 13  6 19  2 15
  16499828.228   -15655374.684 6 -10413535.343 5
  14958811.892   -50187887.150 7 -38963161.072 9
  18381890.853   -14087447.062 3 -10921214.255 5
  15377221.454   -49436742.625 7 -38116906.942 9
  18249600.603   -14605470.060 5 -11149630.556 5
 92  4 15 23  5 29.9810000  0  5 13  6 19  2 15
  16471041.837   -15806633.803 6 -10531399.359 5
  14947472.150   -50247474.864 7 -39009593.062 9
  18389257.985   -14048716.715 4 -10891035.073 5
  15370565.056   -49471719.899 7 -38144161.971 9
  18242076.462   -14645015.278 5 -11180444.976 5
 92  4 15 23  5 59.9810000  0  5 13  6 19  2 15
  16442335.243   -15957489.528 6 -10648949.055 5
  14936209.946   -50306661.324 7 -39055712.377 9
  18396673.970   -14009768.081 3 -10860685.790 5
  15363945.470   -49506509.880 7 -38171271.053 9
  18234666.353   -14683952.541 5 -11210785.667 5
 92  4 15 23  6 29.9810000  0  5 13  6 19  2 15
  16413702.071   -16107955.133 6 -10766194.756 5
  14925019.259   -50365461.373 7 -39101530.599 9
  18404116.509   -13970624.658 3 -10830184.735 5
  15357358.759   -49541125.231 7 -38198244.052 9
  18227372.321   -14722297.201 5 -11240664.553 5
 92  4 15 23  6 59.9810000  0  5 13  6 19  2 15
  16385145.353   -16258027.335 6 -10883133.909 5
  14913905.079   -50423872.619 7 -39147045.858 9
  18411612.509   -13931266.790 3 -10799516.575 4
  15350807.821   -49575548.620 7 -38225067.472 9
  18220193.165   -14760049.667 5 -11270082.024 5
 92  4 15 23  7 29.9810000  0  5 13  6 19  2 15
  16356661.931   -16407697.482 6 -10999759.759 5
  14902864.970   -50481886.695 7 -39192251.624 9
  18419145.173   -13891683.769 3 -10768672.962 4
  15344294.759   -49609771.451 7 -38251734.614 9
  18213112.095   -14797221.031 5 -11299046.683 5
 92  4 15 23  7 59.9810000  0  5 13  6 19  2 15
  16328262.032   -16556948.376 6 -11116058.938 5
  14891904.368   -50539487.895 7 -39237135.683 8
  18426716.337   -13851875.275 3 -10737653.670 4
  15337824.025   -49643775.326 7 -38278231.143 9
  18206147.267   -14833808.353 5 -11327556.260 5
 92  4 15 23  8 29.9810000  0  5 13  6 19  2 15
  16299938.157   -16705792.641 6 -11232041.254 5
  14881019.392   -50596689.520 7 -39281708.381 9
  18434332.384   -13811859.174 3 -10706472.607 4
  15331389.743   -49677584.688 7 -38304576.114 9
  18199299.931   -14869825.022 5 -11355621.151 5
 92  4 15 23  8 59.9810000  0  5 13  6 19  2 15
  16271692.189   -16854218.557 6 -11347697.572 5
  14870212.775   -50653480.706 7 -39325961.256 9
  18441988.884   -13771624.252 3 -10675121.047 5
  15324993.689   -49711202.095 7 -38330771.505 9
  18192556.095   -14905274.100 5 -11383243.782 5
 92  4 15 23  9 29.9810000  0  5 13  6 19  2 15
  16243529.384   -17002213.247 6 -11463017.882 5
  14859485.220   -50709849.074 7 -39369884.658 9
  18449689.056   -13731168.236 3 -10643597.178 4
  15318634.525   -49744616.728 7 -38356808.883 9
  18185913.548   -14940164.080 5 -11410430.747 5
 92  4 15 23  9 59.9810000  0  5 13  6 19  2 15
  16215452.509   -17149762.169 6 -11577990.828 5
  14848841.103   -50765781.507 7 -39413468.376 8
  18457434.845   -13690473.370 2 -10611887.241 5
  15312317.126   -49777812.694 7 -38382675.874 9
  18179384.095   -14974471.927 5 -11437164.093 5
 92  4 15 23 10 29.9810000  0  5 13  6 19  2 15
  16187453.665   -17296883.031 6 -11692630.240 5
  14838276.142   -50821296.515 7 -39456726.827 8
  18465222.501   -13649544.295 3 -10579994.771 3
  15306040.368   -49810802.823 7 -38408382.477 9
  18172963.001   -15008223.529 5 -11463464.034 4
 92  4 15 23 10 59.9810000  0  5 13  6 19  2 15
  16159542.329   -17443575.850 6 -11806936.132 5
  14827793.603   -50876395.469 7 -39499661.083 9
  18473047.626   -13608386.263 2 -10547923.895 4
  15299802.173   -49843576.614 7 -38433920.510 9
  18166636.743   -15041429.630 5 -11489338.890 5
 92  4 15 23 11 29.9810000  0  5 13  6 19  2 15
  16131707.642   -17589846.478 6 -11920913.030 6
  14817384.040   -50931084.212 7 -39542275.693 9
  18480931.493   -13567023.779 3 -10515693.735 5
  15293608.321   -49876136.661 7
  18160427.478   -15074077.812 5
 92  4 15 23 11 59.9810000  0  5 13  6 19  2 15
  16103949.735   -17735708.211 6 -12034571.319 6
  14807053.368   -50985377.183 7 -39584581.907 9
  18488837.962   -13525483.328 3 -10483324.900 5
  15287449.243   -49908507.121 7 -38484515.735 9
  18154321.360   -15106158.487 5 -11539776.887 5
 92  4 15 23 12 29.9800000  0  5 13  6 19  2 15
  16076276.293   -17881138.850 6 -12147893.685 6
  14796801.215   -51039256.119 7 -39626565.506 8
  18496764.520   -13483763.235 2 -10450816.057 5
  15281324.465   -49940680.442 7 -38509585.858 9
  18148334.020   -15137650.616 5 -11564316.161 5
 92  4 15 23 12 59.9800000  0  5 13  6 19  2 15
  16048683.910   -18026136.818 6 -12260878.918 5
  14786626.879   -51092713.883 7 -39668220.907 9
  18504747.715   -13441855.800 3 -10418161.270 5
  15275240.777   -49972659.967 7 -38534504.985 9
  18142453.317   -15168533.046 5 -11588380.342 5
 92  4 15 23 13 29.9800000  0  5 13  6 19  2 15
  16021173.527   -18170700.942 6 -12373526.088 6
  14776535.113   -51145754.217 7 -39709551.040 9
  18512753.738   -13399765.243 3 -10385363.772 5
  15269185.824   -50004465.563 7 -38559288.589 9
  18136693.215   -15198803.438 5 -11611967.600 5
 92  4 15 23 13 59.9800000  0  5 13  6 19  2 15
  15993744.270   -18314835.594 6 -12485838.613 5
  14766519.168   -51198381.898 7 -39750559.621 9
  18520803.270   -13357483.403 2 -10352417.231 4
  15263166.293   -50036104.309 7 -38583942.164 9
  18131046.731   -15228488.802 5 -11635099.021 5
 92  4 15 23 14 29.9800000  0  5 13  6 19  2 15
  15966399.332   -18458539.418 6 -12597815.425 5
  14756585.027   -51250596.198 7 -39791246.088 9
  18528881.840   -13315004.558 2 -10319317.175 4
  15257179.926   -50067572.516 8 -38608462.855 9
  18125498.012   -15257614.939 5 -11657794.640 5
 92  4 15 23 14 59.9800000  0  5 13  6 19  2 15
  15939136.629   -18601805.797 6 -12709451.374 5
  14746727.192   -51302391.457 7 -39831606.039 9
  18537011.082   -13272330.876 2 -10286065.330 5
  15251224.879   -50098856.629 7 -38632840.106 9
  18120063.942   -15286194.122 5 -11680064.076 5
 92  4 15 23 15 29.9800000  0  5 13  6 19  2 15
  15911958.152   -18744627.221 6 -12820740.613 5
  14736953.699   -51353760.860 7 -39871634.143 8
  18545157.192   -13229465.455 1 -10252664.073 4
  15245307.574   -50129947.242 7 -38657066.576 9
  18114729.949   -15314228.666 5 -11701909.109 5
 92  4 15 23 15 59.9800000  0  4 13  6  2 15
  15884862.629   -18887008.894 6 -12931687.180 6
  14727259.082   -51404710.022 7 -39911334.801 8
  15239431.020   -50160833.048 7 -38681133.454 9
  18109492.863   -15341731.928 5 -11723340.168 5
 92  4 15 23 16 29.9800000  0  4 13  6  2 15
  15857856.074   -19028932.852 6 -13042277.094 5
  14717645.785   -51455222.790 7 -39950695.397 8
  15233595.145   -50191498.253 8 -38705028.422 9
  18104369.926   -15368675.011 5 -11744334.730 5
 92  4 15 23 16 59.9800000  0  4 13  6  2 15
  15830931.996   -19170412.427 6 -13152520.725 6
  14708113.090   -51505313.455 7 -39989727.083 8
  15227802.301   -50221952.769 7 -38728759.225 9
  18099345.762   -15395062.781 5 -11764896.579 4
 92  4 15 23 17 29.9800000  0  4 13  6  2 15
  15804098.551   -19311436.621 6 -13262409.519 5
  14698663.957   -51554970.596 7 -40028420.960 8
  15222047.699   -50252184.613 7 -38752316.519 9
  18094437.863   -15420872.210 5 -11785007.793 5
 92  4 15 23 17 59.9800000  0  5 13  6 19  2 15
  15777348.082   -19452005.900 6 -13371943.833 6
  14689295.598   -51604196.146 7 -40066778.536 8
  18586463.785       43762.434 3
  15216337.692   -50282198.331 8 -38775703.845 9
  18089631.543   -15446105.780 5 -11804670.264 4
 92  4 15 23 18 29.9800000  0  5 13  6 19  2 15
  15750685.988   -19592112.832 6 -13481117.896 6
  14680013.223   -51652983.176 7 -40104794.408 8
  18594834.863       87714.971 3        -0.03812
  15210663.942   -50311999.258 7 -38798925.360 9
  18084943.192   -15470751.401 5 -11823874.633 5
 92  4 15 23 18 59.9800000  0  5 13  6 19  2 15
  15724110.824   -19731761.073 6 -13589934.501 6
  14670811.317   -51701336.650 7 -40142472.442 8
  18603221.856      131848.572 3     34389.430 2
  15205033.434   -50341599.415 7 -38821990.434 9
  18080363.902   -15494817.055 5 -11842627.074 5
 92  4 15 23 19 29.9800000  0  5 13  6 19  2 15
  15697624.059   -19870956.935 6 -13698398.632 5
  14661692.152   -51749263.320 7 -40179817.907 8
  18611663.402      176167.932 3     68923.683 1
  15199434.902   -50371021.860 7 -38844917.030 9
  18075895.770   -15518308.233 5 -11860931.860 5
 92  4 15 23 19 59.9800000  0  5 13  6 19  2 15
  15671222.059   -20009691.122 6 -13806503.005 6
  14652655.426   -51796754.152 7 -40216823.758 8
  18620133.738      220686.450 3    103613.066 1
  15193868.324   -50400264.326 7 -38867703.382 9
  18071526.684   -15541224.251 5 -11878788.467 5
 92  4 15 23 20 29.9800000  0  5 13  6 19  2 15
  15644909.215   -20147969.717 6 -13914252.377 6
  14643698.613   -51843816.998 7 -40253496.114 8
  18628638.473      265382.348 3    138440.737 1
  15188339.051   -50429330.489 7 -38890352.358 9
  18067278.621   -15563571.362 5 -11896201.781 4
 92  4 15 23 20 59.9800000  0  5 13  6 19  2 15
  15618685.035   -20285786.630 7 -14021642.000 6
  14634825.160   -51890445.856 7 -40289830.292 8
  18637175.442      310243.601 3    173397.223 1
  15182844.215   -50458204.491 7 -38912851.606 9
  18063136.051   -15585356.316 5 -11913177.023 4
 92  4 15 23 21 29.9800000  0  5 13  6 19  2 15
  15592543.902   -20423141.125 6 -14128671.296 6
  14626034.535   -51936640.818 7 -40325826.377 8
  18645750.652      355269.309 3    208481.830 1
  15177388.168   -50486880.158 7 -38935196.307 9
  18059093.067   -15606584.549 5 -11929718.471 5
 92  4 15 23 21 59.9800000  0  5 13  6 19  2 15
  15566496.832   -20560026.811 6 -14235335.291 6
  14617330.254   -51982396.561 7 -40361480.212 8
  18654333.598      400445.974 2    243684.096 2
  15171970.043   -50515343.215 7 -38957375.338 9
  18055160.582   -15627259.432 5 -11945828.724 4
 92  4 15 23 22 29.9800000  0  4 13  6  2 15
  15540534.715   -20696453.931 6 -14341641.961 6
  14608702.684   -52027723.870 7 -40396800.201 8
  15166591.465   -50543605.231 8 -38979397.720 9
  18051329.309   -15647392.043 5 -11961516.441 4
 92  4 15 23 22 59.9800000  0  4 13  6  2 15
  15514662.152   -20832424.400 6 -14447592.802 6
  14600158.606   -52072625.575 7 -40431788.553 8
  15161249.692   -50571680.529 8 -39001274.606 9
  18047604.543   -15666990.062 5 -11976787.573 5
 92  4 15 23 23 29.9800000  0  4 13  6  2 15
  15488877.629   -20967912.124 6 -14553167.481 6
  14591698.270   -52117076.258 7 -40466425.469 8
  15155944.543   -50599562.367 7 -39023000.739 9
  18043976.934   -15686027.124 5 -11991621.627 5
 92  4 15 23 23 59.9800000  0  4 13  6  2 15
  15463189.465   -21102909.273 7 -14658359.891 6
  14583328.527   -52161068.402 7 -40500705.072 8
  15150676.340   -50627248.285 7 -39044574.211 9
  18040459.012   -15704499.736 5 -12006015.829 5
 92  4 15 23 24 29.9800000  0  4 13  6  2 15
  15437593.856   -21237417.462 7 -14763171.309 6
  14575043.465   -52204604.794 7 -40534629.553 8
  15145443.817   -50654746.089 7 -39066001.103 9
  18037061.520   -15722406.563 5 -12019969.169 5
 92  4 15 23 24 59.9800000  0  4 13  6  2 15
  15412088.824   -21371442.984 7 -14867606.617 6
  14566845.277   -52247692.506 7 -40568204.410 8
  15140243.629   -50682069.293 7 -39087291.940 9
  18033750.692   -15739762.946 5 -12033493.620 5
 92  4 15 23 25 29.9800000  0  4 13  6  2 15
  15386675.668   -21504982.155 6 -14971662.960 6
  14558732.348   -52290328.268 7 -40601427.098 8
  15135076.363   -50709216.401 7 -39108445.560 9
  18030554.934   -15756565.874 5 -12046586.804 5
 92  4 15 23 25 59.9800000  0  4 13  6  2 15
  15361362.387   -21638013.180 7 -15075323.338 6
  14550707.652   -52332491.423 7 -40634281.527 8
  15129951.551   -50736156.844 7 -39129438.136 9
  18027473.277   -15772785.226 5 -12059225.239 5
 92  4 15 23 26 29.9800000  0  4 13  6  2 15
  15336140.168   -21770554.403 7 -15178602.060 6
  14542766.981   -52374200.497 7 -40666782.123 8
  15124861.442   -50762907.387 8 -39150282.735 9
  18024482.043   -15788448.720 5 -12071430.542 5
 92  4 15 23 26 59.9800000  0  4 13  6  2 15
  15311012.340   -21902597.634 7 -15281492.733 6
  14534921.442   -52415448.556 7 -40698923.493 8
  15119806.848   -50789463.698 7 -39170975.993 9
  18021615.590   -15803552.122 5 -12083199.418 5
 92  4 15 23 27 29.9790000  0  4 13  6  2 15
  15285982.374   -22034132.409 7 -15383987.208 6
  14527159.351   -52456228.456 7 -40730700.055 8
  15114794.819   -50815808.917 7 -39191504.754 9
  18018846.124   -15818078.443 5 -12094518.594 5
 92  4 15 23 27 59.9790000  0  4 13  6  2 15
  15261048.757   -22165164.846 7 -15486090.248 6
  14519489.499   -52496540.841 7 -40762112.328 8
  15109824.257   -50841931.950 7 -39211860.378 9
  18016191.187   -15832038.370 5 -12105396.449 5
 92  4 15 23 28 29.9790000  0  4 13  6  2 15
  15236209.530   -22295691.488 7 -15587799.169 6
  14511905.749   -52536386.454 7 -40793160.888 8
  15104895.023   -50867832.725 8 -39232042.811 9
  18013637.968   -15845448.967 5 -12115846.259 5
 92  4 15 23 28 59.9790000  0  4 13  6  2 15
  15211467.226   -22425712.473 7 -15689114.061 6
  14504412.616   -52575765.630 7 -40823845.983 8
  15100008.319   -50893512.090 7 -39252052.721 9
  18011199.898   -15858290.995 5 -12125852.998 5
 92  4 15 23 29 29.9790000  0  4 13  6  2 15
  15186821.523   -22555226.918 7 -15790034.263 6
  14497007.374   -52614678.871 7 -40854168.015 8
  15095166.194   -50918962.573 7 -39271884.280 9
  18008861.546   -15870576.427 5 -12135426.052 5
 92  4 15 23 29 59.9790000  0  4 13  6  2 15
  15162276.913   -22684213.339 7 -15890543.014 6
  14489696.804   -52653105.279 7 -40884110.701 8
  15090366.023   -50944168.261 7 -39291525.088 9
  18006629.452   -15882294.623 5 -12144557.096 5
 92  4 15 23 30 29.9790000  0  4 13  6  2 15
  15137830.968   -22812673.929 7 -15990642.038 6
  14482475.085   -52691047.347 7 -40913675.970 8
  15085617.554   -50969138.708 7 -39310982.589 9
  18004513.312   -15893437.790 5 -12153240.071 5
 92  4 15 23 30 59.9790000  0  4 13  6  2 15
  15113483.812   -22940608.621 7 -16090331.265 6
  14475345.741   -52728505.154 7 -40942863.897 8
  15080908.148   -50993882.124 7 -39330263.191 9
  18002501.655   -15904004.174 5 -12161473.587 5
 92  4 15 23 31 29.9790000  0  4 13  6  2 15
  15089239.679   -23068017.348 7 -16189610.659 6
  14468312.155   -52765480.121 7 -40971675.577 8
  15076239.874   -51018413.914 7 -39349378.875 9
  18000594.968   -15914012.489 5 -12169272.296 5
 92  4 15 23 31 59.9790000  0  4 13  6  2 15
  15065096.999   -23194882.752 7 -16288466.680 6
  14461369.124   -52801955.298 7 -41000097.820 8
  15071613.171   -51042730.813 7 -39368327.118 9
  17998801.351   -15923436.254 5 -12176615.490 5
 92  4 15 23 32 29.9790000  0  4 13  6  2 15
  15041059.741   -23321203.820 7 -16386898.552 6
  14454524.624   -52837930.110 7 -41028130.164 8
  15067023.148   -51066842.513 7 -39387115.473 9
  17997118.257   -15932277.156 5 -12183504.470 5
 92  4 15 23 32 59.9790000  0  4 13  6  2 15
  15017125.882   -23446984.384 7 -16484909.249 6
  14447774.835   -52873409.652 7 -41055776.583 8
  15062471.085   -51090763.676 7 -39405755.356 9
  17995543.562   -15940551.312 5 -12189951.846 5
 92  4 15 23 33 29.9790000  0  4 13  6  2 15
  14993293.913   -23572207.714 7 -16582485.719 6
  14441121.030   -52908377.036 7 -41083023.919 8
  15057959.382   -51114473.617 7 -39424230.646 9
  17994076.085   -15948246.814 5 -12195948.314 5
 92  4 15 23 33 59.9790000  0  4 13  6  2 15
  14969572.976   -23696878.695 7 -16679631.812 6
  14434560.671   -52942838.483 7 -41109877.014 8
  15053490.312   -51137957.824 7 -39442530.047 9
  17992722.273   -15955371.376 5 -12201499.940 5
 92  4 15 23 34 29.9790000  0  4 13  6  2 15
  14945949.710   -23821005.564 7 -16776353.927 6
  14428100.351   -52976802.106 7 -41136342.209 8
  15049064.093   -51161216.410 7 -39460653.651 9
  17991475.187   -15961936.143 5 -12206615.370 5
 92  4 15 23 34 59.9790000  0  4 13  6  2 15
  14922435.312   -23944584.209 7 -16872648.869 6
  14421732.554   -53010264.508 7 -41162416.857 8
  15044683.210   -51184237.913 7 -39478592.524 9
  17990330.460   -15967931.560 5 -12211287.162 4
 92  4 15 23 35 29.9790000  0  4 13  6  2 15
  14899024.382   -24067606.684 7 -16968510.417 6
  14415457.687   -53043218.482 7 -41188095.301 8
  15040353.984   -51207001.517 7 -39496330.423 9
  17989299.859   -15973344.767 5 -12215505.217 5
 92  4 15 23 35 59.9790000  0  4 13  6  2 15
  14875720.765   -24190073.529 7 -17063938.982 6
  14409287.773   -53075665.282 7 -41213378.540 8
  15036066.187   -51229516.434 7 -39513874.526 9
  17988381.890   -15978181.734 4 -12219274.273 5
 92  4 15 23 36 29.9790000  0  4 13  6  2 15
  14852519.171   -24311986.419 7 -17158935.918 6
  14403206.460   -53107607.431 7 -41238268.540 8
  15031828.085   -51251801.061 7 -39531239.180 9
  17987572.640   -15982449.246 5 -12222599.625 4
 92  4 15 23 36 59.9790000  0  4 13  6  2 15
  14829430.788   -24433325.998 7 -17253486.103 6
  14397226.046   -53139025.600 7 -41262750.251 8
  15027634.390   -51273839.452 7 -39548411.975 9
  17986864.319   -15986152.542 5 -12225485.275 3
 92  4 15 23 37 29.9790000  0  4 13  6  2 15
  14806451.187   -24554073.710 7 -17347575.100 6
  14391352.062   -53169902.043 7 -41286809.840 8
  15023490.155   -51295618.625 7 -39565382.767 9
  17986263.663   -15989295.647 5 -12227934.441 3
 92  4 15 23 37 59.9790000  0  4 13  6  2 15
  14783585.304   -24674238.144 7 -17441209.598 6
  14385580.491   -53200246.221 7 -41310454.670 8
  15019389.663   -51317154.845 7 -39582164.248 9
  17985773.835   -15991890.786 4 -12229956.654 3
 92  4 15 23 38 29.9790000  0  4 13  6  2 15
  14760830.515   -24793809.194 7 -17534381.713 6
  14379905.507   -53230048.603 7 -41333677.320 8
  15015345.140   -51338427.954 7 -39598740.714 9
  17985384.984   -15993924.535 5 -12231541.398 3
 92  4 15 23 38 59.9790000  0  4 13  6  2 15
  14738195.140   -24912764.214 7 -17627073.809 6
  14374346.359   -53259286.723 7 -41356460.287 8
  15011348.780   -51359413.230 7 -39615092.882 9
  17985113.015   -15995375.083 5 -12232671.658 3
 92  4 15 23 39 29.9790000  0  4 13  6  2 15
  14715672.171   -25031121.587 7 -17719300.200 7
  14368884.249   -53287979.860 7 -41378818.590 8
  15007407.749   -51380125.099 7 -39631232.016 9
  17984947.265   -15996232.237 5 -12233339.598 2
 92  4 15 23 39 59.9790000  0  4 13  6  2 15
  14693262.288   -25148889.799 7 -17811067.518 7
  14363526.421   -53316136.801 7 -41400759.074 8
  15003515.257   -51400574.171 7 -39647166.377 9
  17984899.187   -15996495.452 5
 92  4 15 23 40 29.9790000  0  4 13  6  2 15
  14670964.429   -25266063.224 7 -17902371.355 7
  14358273.069   -53343752.437 7 -41422277.760 8
  14999673.851   -51420758.012 7 -39662894.061 9
  17984959.507   -15996176.236 5
 92  4 15 23 40 59.9790000  0  4 13  6  2 15
  14648778.749   -25382648.359 7 -17993216.791 7
  14353115.812   -53370834.250 7 -41443380.481 8
  14995885.077   -51440689.506 7 -39678425.117 9
  17985123.984   -15995276.056 5 -12232594.535 1
 92  4 15 23 41 29.9790000  0  4 13  6  2 15
  14626706.210   -25498638.363 7 -18083598.492 7
  14348068.452   -53397375.903 7 -41464062.300 8
  14992137.116   -51460364.834 7 -39693756.562 9
  17985416.780   -15993783.510 5 -12231431.510 2
 92  4 15 23 41 59.9790000  0  4 13  6  2 15
  14604749.007   -25614026.106 7 -18173510.888 7
  14343117.812   -53423370.657 7 -41484317.962 8
  14988444.421   -51479787.748 7 -39708891.321 9
  17985808.116   -15991710.004 5 -12229815.778 2
 92  4 15 23 42 29.9780000  0  4 13  6  2 15
  14582906.057   -25728810.491 7 -18262953.141 7
  14338274.447   -53448820.920 7 -41504149.350 8
  14984797.119   -51498955.740 7 -39723827.438 9
  17986314.229   -15989043.437 5 -12227737.969 1
 92  4 15 23 42 59.9780000  0  4 13  6  2 15
  14561179.096   -25842988.082 7 -18351922.568 7
  14333536.557   -53473718.154 7 -41523549.808 8
  14981199.127   -51517858.787 7 -39738557.110 9
  17986943.611   -15985760.685 6 -12225179.947 1
 92  4 15 23 43 29.9780000  0  4 13  6  2 15
  14539565.026   -25956562.985 7 -18440422.369 7
  14328907.479   -53498069.600 7 -41542524.983 8
  14977648.705   -51536510.367 7 -39753090.834 9
  17987672.385   -15981892.822 5 -12222166.004 1
 92  4 15 23 43 59.9780000  0  4 13  6  2 15
  14518068.455   -26069526.438 7 -18528445.722 7
  14324374.440   -53521866.661 7 -41561068.165 8
  14974151.526   -51554900.363 7 -39767420.727 9
  17988523.705   -15977442.594 5 -12218698.306 1
 92  4 15 23 44 29.9780000  0  4 13  6  2 15
  14496689.260   -26181879.041 7 -18615993.078 7
  14319954.971   -53545111.026 7 -41579180.678 8
  14970700.151   -51573021.802 7 -39781541.359 9
  17989476.119   -15972427.516 5 -12214790.429 2
 92  4 15 23 44 59.9780000  0  4 13  6  2 15
  14475425.260   -26293621.351 7 -18703064.888 7
  14315637.143   -53567803.640 7 -41596863.263 8
  14967302.197   -51590881.357 7 -39795457.924 9
  17990534.072   -15966879.264 5 -12210467.076 3
 92  4 15 23 45 29.9780000  0  4 13  6  2 15
  14454280.174   -26404744.038 7 -18789653.873 7
  14311426.354   -53589935.538 7 -41614108.926 8
  14963955.635   -51608466.372 7 -39809160.551 9
  17991691.213   -15960787.006 5 -12205719.847 2
 92  4 15 23 45 59.9780000  0  4 13  6  2 15
  14433252.932   -26515237.670 7 -18875752.683 7
  14307319.971   -53611497.682 7 -41630910.629 8
  14960666.127   -51625761.934 7 -39822637.640 9
  17992958.158   -15954133.126 5 -12200534.995 3
 92  4 15 23 46 29.9780000  0  4 13  6  2 15
  14412347.690   -26625099.108 7 -18961358.879 7
  14303325.744   -53632487.553 7 -41647266.407 8
  14957430.385   -51642764.244 7 -39835886.216 9
  17994335.651   -15946915.125 5 -12194910.572 3
 92  4 15 23 46 59.9780000  0  4 13  6  2 15
  14391563.197   -26734318.008 7 -19046464.393 7
  14299441.924   -53652895.183 7 -41663168.494 8
  14954251.565   -51659470.426 7 -39848904.043 9
  17995820.065   -15939094.408 5 -12188816.492 2
 92  4 15 23 47 29.9780000  0  4 13  6  2 15
  14370897.432   -26842911.265 7 -19131082.393 7
  14295669.752   -53672738.197 7 -41678630.619 8
  14951124.994   -51675895.664 7 -39861702.950 9
  17997418.166   -15930681.152 5 -12182260.678 2
 92  4 15 23 47 59.9780000  0  4 13  6  2 15
  14350354.338   -26950870.769 7 -19215206.569 7
  14292002.916   -53692008.801 7 -41693646.709 8
  14948053.463   -51692033.218 7 -39874277.686 9
  17999134.010   -15921677.360 5 -12175244.721 4
 92  4 15 23 48 29.9780000  0  4 13  6  2 15
  14329930.119   -27058199.701 7 -19298839.384 7
  14288442.229   -53710710.895 7 -41708219.799 8
  14945036.940   -51707889.454 7 -39886633.216 9
  18000956.463   -15912085.059 5 -12167770.193 4
 92  4 15 23 48 59.9780000  0  4 13  6  2 15
  14309625.861   -27164896.145 7 -19381979.355 7
  14284987.151   -53728843.232 7 -41722348.932 8
  14942075.377   -51723461.036 7 -39898766.933 9
  18002895.682   -15901906.150 5 -12159838.559 4
 92  4 15 23 49 29.9780000  0  4 13  6  2 15
  14289442.479   -27270965.458 7 -19464630.657 7
  14281649.643   -53746411.282 7 -41736038.351 8
  14939162.213   -51738756.240 7 -39910685.291 9
  18004942.736   -15891172.046 5 -12151474.315 4
 92  4 15 23 49 59.9780000  0  4 13  6  2 15
  14269377.065   -27376406.244 7 -19546792.198 7
  14278411.713   -53763413.925 7 -41749287.197 8
  14936305.338   -51753774.842 7 -39922388.112 9
  18007084.049   -15879887.822 5 -12142681.385 5
 92  4 15 23 50 29.9780000  0  4 13  6  2 15
  14249432.346   -27481214.130 7 -19628460.564 7
  14275283.065   -53779847.781 7 -41762092.833 8
  14933500.283   -51768518.437 7 -39933876.643 9
  18009341.674   -15868051.528 4 -12133458.293 5
 92  4 15 23 50 59.9780000  0  4 13  6  2 15
  14229607.572   -27585398.915 7 -19709643.412 7
  14272263.080   -53795722.373 7 -41774462.673 8
  14930743.244   -51782995.819 7 -39945157.731 9
  18011691.807   -15855680.075 4 -12123818.177 5
 92  4 15 23 51 29.9780000  0  4 13  6  2 15
  14209899.690   -27688961.319 7 -19790341.288 7
  14269351.744   -53811038.962 7 -41786397.706 8
  14928040.526   -51797209.861 7 -39956233.618 9
  18014147.111   -15842771.261 3 -12113759.346 5
 92  4 15 23 51 59.9780000  0  4 13  6  2 15
  14190311.299   -27791900.626 7 -19870553.629 7
  14266537.721   -53825797.680 7 -41797898.039 8
  14925386.760   -51811156.789 7 -39967101.371 9
  18016708.604   -15829320.876 3 -12103278.523 5
 92  4 15 23 52 29.9780000  0  4 13  6  2 15
  14170841.455   -27894207.479 7 -19950273.166 7
  14263841.033   -53839989.233 7 -41808956.422 8
  14922783.354   -51824835.489 7 -39977760.112 9
  18019378.494   -15815318.761 3 -12092367.739 5
 92  4 15 23 52 59.9780000  0  4 13  6  2 15
  14151494.158   -27995881.305 7 -20029499.419 7
  14261250.471   -53853613.756 7
  14920230.424   -51838240.823 7
  18022142.713   -15800775.946 3 -12081035.695 5
 92  4 15 23 53 29.9780000  0  3 13  6  2
  14132264.947   -28096928.478 7 -20108237.376 7
  14258763.932   -53866677.745 7 -41829752.728 8
  14917728.768   -51851390.221 7 -39998452.155 9
 92  4 15 23 53 59.9780000  0  3 13  6  2
  14113159.158   -28197331.938 7 -20186473.742 7
  14256384.283   -53879164.910 7 -41839483.020 8
  14915277.643   -51864282.126 7 -40008497.809 9
 92  4 15 23 54 29.9780000  0  3 13  6  2
  14094175.026   -28297091.558 7 -20264208.410 7
  14254119.682   -53891075.446 7 -41848763.990 8
  14912873.432   -51876909.196 7 -40018337.103 9
 92  4 15 23 54 59.9780000  0  3 13  6  2
  14075313.197   -28396205.219 7 -20341439.734 7
  14251959.174   -53902408.085 7 -41857594.643 8
  14910526.611   -51889255.485 7 -40027957.602 9
 92  4 15 23 55 29.9780000  0  3 13  6  2
  14056576.776   -28494677.291 7 -20418171.120 7
  14249912.885   -53913166.702 7 -41865978.012 8
  14908228.229   -51901328.467 7 -40037365.142 9
 92  4 15 23 55 59.9780000  0  3 13  6  2
  14037957.322   -28592520.910 7 -20494412.818 7
  14247972.205   -53923365.141 7 -41873924.880 8
  14905983.471   -51913123.473 7 -40046556.079 9
 92  4 15 23 56 29.9780000  0  3 13  6  2
  14019457.963   -28689729.807 7 -20570159.907 6
  14246138.963   -53932997.533 7 -41881430.665 8
  14903798.229   -51924613.534 7 -40055509.395 9
 92  4 15 23 56 59.9780000  0  3 13  6  2
  14001083.151   -28786303.746 7 -20645412.240 7
  14244417.830   -53942063.706 7 -41888495.244 8
  14901661.682   -51935814.382 7 -40064237.349 9
 92  4 15 23 57 29.9780000  0  3 13  6  2
  13982828.424   -28882231.493 7 -20720161.037 7
  14242797.549   -53950553.262 7 -41895110.510 8
  14899590.807   -51946723.998 7 -40072738.371 9
 92  4 15 23 57 59.9780000  0  4 13 12  6  2
  13964691.822   -28977522.092 7 -20794413.362 7
  17920738.393      -71923.69013
  14241291.377   -53958474.984 7 -41901283.314 8
  14897567.822   -51957348.921 7 -40081017.556 9
 92  4 15 23 58 29.9770000  0  4 13 12  6  2
  13946682.161   -29072173.511 7 -20868167.613 7
  17893377.005     -215721.476 3
  14239892.482   -53965830.948 7 -41907015.263 8
  14895596.310   -51967702.542 7 -40089085.334 8
 92  4 15 23 58 59.9770000  0  4 13 12  6  2
  13928792.396   -29166186.851 7 -20941424.675 7
  17866026.997     -359455.365 3
  14238600.200   -53972616.905 7 -41912303.057 8
  14893679.427   -51977789.666 7 -40096945.458 9
 92  4 15 23 59 29.9770000  0  4 13 12  6  2
  13911019.903   -29259572.562 7 -21014192.671 7
  17838682.247     -503132.663 3
  14237418.068   -53978845.920 7 -41917156.876 8
  14891807.193   -51987613.855 7 -40104600.699 9
 92  4 15 23 59 59.9770000  0  4 13 12  6  2
  13893369.239   -29352328.529 7 -21086469.949 7
  17811352.216     -646750.288 3    -55950.21211
  14236337.075   -53984516.415 7 -41921575.478 8
  14889987.614   -51997181.184 7 -40112055.784 8
 92  4 16  0  0 29.9770000  0  4 13 12  6  2
  13875838.169   -29444456.989 7 -21158258.271 7
  17784033.857     -790309.060 3   -167813.963 2
  14235366.786   -53989630.925 7 -41925560.853 8
  14888212.255   -52006495.774 7 -40119313.933 8
 92  4 16  0  0 59.9770000  0  4 13 12  6  2
  13858425.380   -29535959.442 7 -21229558.797 7
  17756724.935     -933809.664 3   -279632.350 1
  14234498.333   -53994191.512 7 -41929114.596 8
  14886491.739   -52015543.618 7 -40126364.234 8
 92  4 16  0  1 29.9770000  0  4 13 12  6  2
  13841133.388   -29626825.642 7 -21300363.535 7
  17729437.958    -1077240.469 4   -391396.378 2
  14233738.778   -53998188.521 7 -41932229.199 8
  14884820.411   -52024315.885 7 -40133199.795 8
 92  4 16  0  1 59.9770000  0  4 13 12  6  2
  13823961.841   -29717063.562 7 -21370678.706 7
  17702152.513    -1220607.437 3   -503110.658 2
  14233080.396   -54001629.136 7 -41934910.240 8
  14883207.255   -52032816.957 7 -40139824.043 8
 92  4 16  0  2 29.9770000  0  4 13 12  6  2
  13806911.763   -29806671.090 7 -21440502.667 7
  17674877.943    -1363907.740 3   -614772.945 1
  14232531.435   -54004512.416 7 -41937157.007 8
  14881644.310   -52041025.034 7 -40146219.981 8
 92  4 16  0  2 59.9770000  0  4 13 12  6  2
  13789977.474   -29895652.575 7 -21509838.799 7
  17647628.763    -1507143.905 4   -726385.279 2
  14232088.169   -54006842.772 7 -41938972.916 8
  14880137.364   -52048949.959 7 -40152395.286 8
 92  4 16  0  3 29.9770000  0  4 13 12  6  2
  13773163.044   -29984010.505 7 -21578689.038 7
  17620381.943    -1650317.477 3   -837948.854 2
  14231752.544   -54008623.372 7 -41940360.444 8
  14878674.833   -52056623.685 7 -40158374.860 8
 92  4 16  0  3 59.9770000  0  4 13 12  6  2
  13756470.872   -30071734.436 7 -21647045.264 7
  17593147.294    -1793416.466 3   -949454.313 4
  14231517.075   -54009843.942 7 -41941311.588 8
  14877264.193   -52064035.272 7 -40164150.159 8
 92  4 16  0  4 29.9770000  0  4 13 12  6  2
  13739896.482   -30158830.507 7 -21714912.248 7
  17565928.638    -1936445.225 3  -1060905.042 3
  14231390.364   -54010510.741 7 -41941831.226 8
  14875904.052   -52071197.964 7 -40169731.524 8
 92  4 16  0  4 59.9770000  0  4 13 12  6  2
  13723440.372   -30245306.401 7 -21782295.977 7
  17538728.771    -2079410.075 5  -1172305.985 4
  14231369.146   -54010631.801 7
  14874580.130   -52078137.305 7 -40175138.846 8
 92  4 16  0  5 29.9770000  0  4 13 12  6  2
  13707103.630   -30331155.660 7 -21849191.412 7
  17511534.239    -2222302.990 5  -1283650.854 4
  14231447.341   -54010201.064 7
  14873306.825   -52084841.832 7 -40180363.195 8
 92  4 16  0  5 59.9770000  0  4 13 12  6  2
  13690890.513   -30416366.427 7 -21915589.342 7
  17484356.099    -2365110.951 5  -1394929.491 4
  14231637.466   -54009207.187 7 -41940815.616 8
  14872083.653   -52091270.256 7 -40185372.405 8
 92  4 16  0  6 29.9770000  0  4 13 12  6  2
  13674794.536   -30500942.253 7 -21981492.497 7
  17457202.333    -2507835.101 5  -1506142.833 4
  14231935.052   -54007653.413 7 -41939604.934 8
  14870912.325   -52097424.599 7 -40190168.035 8
 92  4 16  0  6 59.9770000  0  4 13 12  6  2
  13658817.325   -30584898.791 7 -22046913.096 7
  17430054.083    -2650489.340 5  -1617301.708 2
  14232332.091   -54005555.599 7 -41937970.326 8
  14869792.153   -52103310.261 7 -40194754.306 8
 92  4 16  0  7 29.9770000  0  4 13 12  6  2
  13642960.216   -30668235.687 7 -22111850.854 7
  17402918.427    -2793071.828 5  -1728404.669 2
  14232837.997   -54002913.892 7 -41935911.905 7
  14868720.380   -52108923.166 7 -40199128.039 8
 92  4 16  0  7 59.9770000  0  4 13 12  6  2
  13627221.841   -30750937.113 7 -22176293.452 7
  17375803.716    -2935565.272 5  -1839438.274 2
  14233443.568   -53999713.169 7 -41933417.893 7
  14867710.575   -52114251.468 7 -40203279.995 8
 92  4 16  0  8 29.9770000  0  4 13 12  6  2
  13611602.646   -30833019.336 7 -22240253.537 7
  17348700.497    -3077984.399 5  -1950413.970 4
  14234160.177   -53995970.165 7 -41930501.315 7
  14866743.255   -52119324.343 7 -40207232.915 8
 92  4 16  0  8 59.9770000  0  4 13 12  6  2
  13596100.153   -30914484.196 7 -22303732.567 7
  17321613.685    -3220329.042 5  -2061331.666 1
  14234975.802   -53991686.501 7 -41927163.453 7
  14865825.333   -52124144.014 7 -40210988.528 8
 92  4 16  0  9 29.9770000  0  4 13 12  6  2
  13580717.435   -30995323.087 7 -22366723.839 7
  17294548.013    -3362588.257 5  -2172182.774 3
  14235894.310   -53986853.613 6 -41923397.614 7
  14864959.075   -52128711.809 7 -40214547.873 8
 92  4 16  0  9 59.9770000  0  4 13 12  6  2
  13565452.193   -31075536.894 7 -22429228.023 7
  17267489.052    -3504761.001 5  -2282966.496 2
  14236915.482   -53981472.746 7 -41919204.786 7
  14864140.216   -52133013.754 7 -40217900.077 8
 92  4 16  0 10 29.9770000  0  4 13 12  6  2
  13550306.950   -31155120.222 7 -22491240.933 7
  17240451.575    -3646840.374 5  -2393677.476 1
  14238049.443   -53975538.627 7 -41914580.844 7
  14863371.810   -52137038.988 7 -40221036.648 8
 92  4 16  0 10 59.9770000  0  4 13 12  6  2
  13535281.513   -31234085.482 7 -22552772.229 7
  17213431.778    -3788836.792 5  -2504323.807 2
  14239277.583   -53969064.167 7 -41909535.870 7
  14862657.364   -52140806.689 7 -40223972.548 8
 92  4 16  0 11 29.9770000  0  4 13 12  6  2
  13520375.130   -31312417.537 7 -22613810.123 7
  17186430.552    -3930732.436 5  -2614891.636 2
  14240614.849   -53962034.133 7 -41904057.973 7
  14861990.482   -52144301.703 7 -40226695.965 8
 92  4 16  0 11 59.9770000  0  4 13 12  6  2
  13505586.677   -31390126.433 7 -22674362.435 7
  17159444.450    -4072535.836 4  -2725387.590 1
  14242057.044   -53954458.908 7 -41898155.244 8
  14861377.997   -52147531.237 7 -40229212.508 8
 92  4 16  0 12 29.9770000  0  4 13 12  6  2
  13490917.943   -31467212.661 7 -22734429.552 7
  17132479.075    -4214245.436 5  -2835810.436 3
  14243601.646   -53946339.106 6 -41891828.172 7
  14860812.044   -52150507.232 7 -40231531.496 8
 92  4 16  0 12 59.9770000  0  4 13 12  6  2
  13476367.083   -31543677.493 7 -22794012.470 7
  17105530.005    -4355860.692 5  -2946159.785 2
  14245254.044   -53937676.896 6 -41885078.451 7
  14860291.677   -52153230.579 7 -40233653.617 8
 92  4 16  0 13 29.9770000  0  4 13 12  6  2
  13461935.950   -31619514.590 7 -22853106.240 7
  17078600.021    -4497373.237 5  -3056429.115 2
  14247001.372   -53928466.134 6 -41877901.276 7
  14859825.036   -52155685.428 7 -40235566.517 8
 92  4 16  0 13 59.9770000  0  4 13 12  6  2
  13447623.325   -31694730.365 7 -22911715.865 7
  17051689.763    -4638787.067 5  -3166621.546 1
  14248859.396   -53918713.122 6 -41870301.572 7
  14859409.833   -52157872.312 7 -40237270.624 8
 92  4 16  0 14 29.9770000  0  4 13 12  6  2
  13433430.060   -31769320.699 7 -22969838.131 7
  17024799.091    -4780095.446 5  -3276731.769 2
  14250820.810   -53908413.519 7 -41862275.950 7
  14859045.568   -52159787.203 7 -40238762.780 8
 92  4 16  0 14 59.9760000  0  4 13 12  6  2
  13419352.695   -31843288.037 7 -23027474.955 7
  16997930.641    -4921296.230 5  -3386758.190 1
  14252882.992   -53897572.910 7 -41853828.769 7
  14858729.383   -52161444.328 7 -40240054.084 8
 92  4 16  0 15 29.9760000  0  4 13 12  6  2
  13405394.813   -31916639.002 7 -23084631.484 7
  16971076.867    -5062398.507 5  -3496707.821 3
  14255049.242   -53886192.548 7 -41844961.003 7
  14858462.555   -52162850.936 7 -40241150.190 8
 92  4 16  0 15 59.9760000  0  4 13 12  6  2
  13391556.360   -31989361.932 7 -23141298.637 7
  16944248.922    -5203385.940 5  -3606567.970 3
  14257318.430   -53874263.773 6 -41835665.907 8
  14858244.258   -52164000.377 7 -40242045.896 8
 92  4 16  0 16 29.9760000  0  4 13 12  6  2
  13377836.789   -32061459.567 7 -23197478.548 7
  16917442.735    -5344259.326 5  -3716339.255 4
  14259692.211   -53861789.881 6 -41825946.039 7
  14858070.727   -52164903.408 7 -40242749.597 8
 92  4 16  0 16 59.9760000  0  4 13 12  6  2
  13364236.516   -32132930.732 7 -23253170.302 7
  16890657.406    -5485015.116 5  -3826018.883 2
  14262170.938   -53848769.725 6 -41815800.516 7
  14857948.555   -52165560.015 7 -40243261.282 8
 92  4 16  0 17 29.9760000  0  4 13 12  6  2
  13350753.539   -32203781.451 7 -23308378.588 7
  16863890.930    -5625656.757 5  -3935609.586 3
  14264750.883   -53835209.503 6 -41805234.166 7
  14857868.102   -52165957.008 7
 92  4 16  0 17 59.9760000  0  4 13 12  6  2
  13337388.860   -32274009.712 7 -23363101.845 7
  16837154.820    -5766179.807 5  -4045107.870 3
  14267436.360   -53821107.521 6 -41794245.668 7
  14857850.539   -52166076.793 7
 92  4 16  0 18 29.9760000  0  4 13 12  6  2
  13324142.125   -32343622.339 7 -23417345.385 7
  16810435.414    -5906588.513 5  -4154517.073 1
  14270218.711   -53806470.287 6 -41782840.087 7
  14857878.664   -52165926.793 7
 92  4 16  0 18 59.9760000  0  4 13 12  6  2
  13311014.344   -32412616.547 7 -23471107.038 7
  16783739.500    -6046877.463 5  -4263832.955 3
  14273108.164   -53791295.428 6 -41771015.587 7
  14857959.727   -52165486.777 7
 92  4 16  0 19 29.9760000  0  4 13 12  6  2
  13298000.813   -32480996.814 7 -23524390.297 7
  16757065.883    -6187048.836 5  -4373057.192 5
  14276095.836   -53775587.698 6 -41758775.857 7
  14858101.031   -52164748.913 7 -40242629.486 8
 92  4 16  0 19 59.9760000  0  5 13 12  6 24  2
  13285105.422   -32548761.380 7 -23577193.793 7
  16730413.969    -6327098.159 5  -4482186.349 4
  14279186.969   -53759345.533 7 -41746119.691 7
  17620442.735      -76654.20014
  14858295.156   -52163724.503 7 -40241831.292 8
 92  4 16  0 20 29.9760000  0  5 13 12  6 24  2
  13272326.805   -32615915.988 7 -23629521.996 7
  16703784.914    -6467028.456 5  -4591222.739 5
  14282378.414   -53742574.699 6 -41733051.570 7
  17591282.211     -229932.681 5
  14858538.797   -52162442.264 7 -40240832.196 8
 92  4 16  0 20 59.9760000  0  5 13 12  6 24  2
  13259666.133   -32682445.257 7 -23681362.923 7
  16677181.086    -6606821.747 5  -4700152.386 5
  14285675.477   -53725259.758 6 -41719559.471 7
  17562119.992     -383169.418 5        -0.07611
  14858836.008   -52160886.008 7 -40239619.572 8
 92  4 16  0 21 29.9760000  0  5 13 12  6 24  2
  13247126.742   -32748347.762 7 -23732715.469 7
  16650607.281    -6746473.940 5  -4808972.079 5
  14289071.617   -53707399.709 6 -41705642.620 7
  17532971.602     -536367.584 5   -119374.735 1
  14859180.110   -52159071.394 7 -40238205.639 7
 92  4 16  0 21 59.9760000  0  5 13 12  6 24  2
  13234702.039   -32813630.726 7 -23783585.250 7
  16624059.461    -6885989.871 5  -4917685.609 4
  14292574.735   -53689001.950 6 -41691306.767 7
  17503816.945     -689526.016 5   -238718.457 1
  14859571.797   -52157012.603 7 -40236601.436 8
 92  4 16  0 22 29.9760000  0  5 13 12  6 24  2
  13222394.625   -32878307.811 7 -23833982.926 7
  16597534.414    -7025379.947 5  -5026301.065 5
  14296172.789   -53670080.384 6 -41676562.763 7
  17474670.945     -842649.831 4   -358035.149 1
  14860012.008   -52154704.962 7 -40234803.321 7
 92  4 16  0 22 59.9760000  0  5 13 12  6 24  2
  13210204.102   -32942371.450 7 -23883902.583 7
  16571032.945    -7164634.228 5  -5134810.698 4
  14299876.594   -53650627.364 6 -41661404.640 7
  17445550.235     -995733.008 5   -477320.153 1
  14860507.656   -52152112.500 7 -40232783.272 8
 92  4 16  0 23 29.9760000  0  5 13 12  6 24  2
  13198129.274   -33005822.156 7 -23933344.647 7
  16544560.235    -7303750.198 5  -5243212.580 4
  14303678.961   -53630643.519 6 -41645832.880 7
  17416427.125    -1148776.361 5   -596574.087 1
  14861054.188   -52149227.687 7 -40230535.417 8
 92  4 16  0 23 59.9760000  0  5 13 12  6 24  2
  13186171.820   -33068660.555 7 -23982309.578 7
  16518113.610    -7442725.686 5  -5351504.988 5
  14307582.961   -53610129.878 6 -41629848.292 7
  17387312.360    -1301771.230 5   -715790.191 1
  14861658.453   -52146046.286 7 -40228056.459 8
 92  4 16  0 24 29.9760000  0  5 13 12  6 24  2
  13174329.594   -33130891.771 7 -24030801.382 7
  16491693.852    -7581563.156 5  -5459689.851 5
  14311587.313   -53589091.516 7 -41613454.833 7
  17358204.453    -1454721.597 5   -834971.610 1
  14862319.094   -52142583.012 7 -40225357.849 7
 92  4 16  0 24 59.9760000  0  5 13 12  6 24  2
  13162605.852   -33192500.080 7 -24078807.809 7
  16465304.313    -7720243.475 5  -5567752.262 4
  14315692.922   -53567512.641 6 -41596640.191 7
  17329104.719    -1607613.297 5   -954107.322 1
  14863030.297   -52138847.871 7 -40222447.402 7
 92  4 16  0 25 29.9760000  0  5 13 12  6 24  2
  13150997.024   -33253503.794 7 -24126343.124 7
  16438941.492    -7858782.214 5  -5675704.333 5
  14319900.024   -53545411.680 6 -41579418.744 7
  17300014.914    -1760454.240 4  -1073203.494 2
  14863782.727   -52134888.724 7 -40219362.400 7
 92  4 16  0 25 59.9760000  0  5 13 12  6 24  2
  13139507.922   -33313881.944 7 -24173390.985 7
  16412609.758    -7997155.749 5  -5783527.701 4
  14324208.399   -53522768.095 6 -41561774.470 7
  17270954.188    -1913204.914 4  -1192229.352 3
  14864581.617   -52130694.049 7 -40216093.861 7
 92  4 16  0 26 29.9760000  0  5 13 12  6 24  2
  13128133.695   -33373653.763 7 -24219966.377 7
  16386307.531    -8135380.340 5  -5891235.012 4
  14328617.352   -53499601.503 6 -41543722.644 7
  17241905.914    -2065881.250 4  -1311197.214 2
  14865418.820   -52126285.182 7 -40212658.429 7
 92  4 16  0 26 59.9760000  0  5 13 12  6 24  2
  13116874.227   -33432819.059 7 -24266069.161 7
  16360032.203    -8273452.211 5  -5998823.331 3
  14333125.203   -53475911.562 6 -41525263.032 7
  17212867.719    -2218481.962 4  -1430106.227 3
  14866305.250   -52121639.424 7 -40209038.406 7
 92  4 16  0 27 29.9760000  0  5 13 12  6 24  2
  13105730.852   -33491379.534 7 -24311700.654 7
  16333785.750    -8411370.076 5  -6106291.670 3
  14337733.031   -53451699.448 6 -41506396.510 7
  17183837.266    -2371006.596 4  -1548955.907 2
  14867238.938   -52116729.474 7 -40205212.513 7
 92  4 16  0 27 59.9760000  0  5 13 12  6 24  2
  13094703.836   -33549327.252 7 -24356854.673 7
  16307574.899    -8549123.303 5  -6213631.709 5
  14342439.570   -53426958.145 6 -41487117.649 7
  17154823.953    -2523448.676 4  -1667741.320 4
  14868231.555   -52111518.858 7 -40201152.337 7
 92  4 16  0 28 29.9760000  0  5 13 12  6 24  2
  13083790.414   -33606677.515 7 -24401543.146 7
  16281389.313    -8686724.191 5  -6320853.031 5
  14347244.891   -53401702.838 6 -41467438.259 7
  17125825.172    -2675828.015 4  -1786477.851 1
  14869279.219   -52106007.620 7 -40196857.906 7
 92  4 16  0 28 59.9760000  0  5 13 12  6 24  2
  13072989.539   -33663432.608 7 -24445767.847 7
  16255235.500    -8824171.508 5  -6427954.680 5
  14352148.805   -53375936.031 6 -41447360.308 7
  17096848.391    -2828145.296 5  -1905166.017 3
  14870387.836   -52100182.231 7 -40192318.697 7
 92  4 16  0 29 29.9760000  0  5 13 12  6 24  2
  13062304.110   -33719589.527 7 -24489526.443 7
  16229108.180    -8961459.222 5  -6534931.976 5
  14357150.274   -53349654.512 6 -41426881.274 7
  17067875.664    -2980391.872 5  -2023799.120 3
  14871553.227   -52094059.108 7 -40187547.480 7
 92  4 16  0 29 59.9760000  0  5 13 12  6 24  2
  13051732.578   -33775143.018 7 -24532814.833 7
  16203016.875    -9098578.333 6  -6641777.900 4
  14362251.610   -53322853.086 6 -41405997.118 7
  17038914.992    -3132549.621 4  -2142362.970 4
  14872770.867   -52087659.715 7 -40182560.990 7
 92  4 16  0 30 29.9760000  0  5 13 12  6 24  2
  13041274.711   -33830096.013 7 -24575635.302 7
  16176957.305    -9235528.605 6  -6748492.267 5
  14367449.727   -53295534.364 6 -41384709.892 7
  17009976.735    -3284621.468 5  -2260859.924 2
  14874037.531   -52081003.539 7 -40177374.397 7
 92  4 16  0 30 59.9760000  0  5 13 12  6 24  2
  13030930.485   -33884456.069 7 -24617993.744 7
  16150927.289    -9372314.652 6  -6855078.667 5
  14372744.414   -53267706.818 6 -41363026.167 7
  16981057.039    -3436619.026 5  -2379298.975 3
  14875346.813   -52074115.263 7 -40172006.954 7
 92  4 16  0 31 29.9760000  0  5 13 12  6 24  2
  13020699.117   -33938221.772 7 -24659889.053 7
  16124928.875    -9508931.688 5  -6961533.352 5
  14378138.117   -53239368.667 6 -41340944.574 7
  16952145.828    -3588541.224 5  -2497679.273 4
  14876704.508   -52067007.492 7 -40166468.487 7
 92  4 16  0 31 59.9760000  0  5 13 12  6 24  2
  13010580.625   -33991396.869 7 -24701324.150 7
  16098963.774    -9645379.968 6  -7067856.535 5
  14383620.258   -53210523.803 6 -41318468.142 7
  16923240.641    -3740397.232 5  -2616007.996 3
  14878096.711   -52059667.210 7 -40160748.838 7
 92  4 16  0 32 29.9750000  0  5 13 12  6 24  2
  13000573.558   -34043981.451 7 -24742299.107 7
  16073032.323    -9781653.512 6  -7174043.560 5
  14389209.284   -53181175.427 6 -41295599.354 7
  16894362.050    -3892194.216 5  -2734290.734 2
  14879545.011   -52052061.132 7 -40154822.079 7
 92  4 16  0 32 59.9750000  0  5 13 12  6 24  2
  12990679.816   -34095975.412 7 -24782813.839 7
  16047132.050    -9917754.424 6  -7280096.078 5
  14394892.816   -53151317.502 6 -41272333.523 6
  16865484.855    -4043933.097 5  -2852528.186 2
  14881044.558   -52044177.238 7 -40148678.844 7
 92  4 16  0 33 29.9750000  0  5 13 12  6 24  2
  12980901.128   -34147362.166 7 -24822855.426 7
  16021271.730   -10053659.686 6  -7385996.144 5
  14400674.628   -53120936.480 6 -41248660.080 7
  16836614.925    -4195574.809 5  -2970689.922 4
  14882606.745   -52035978.694 7 -40142290.430 7
 92  4 16  0 33 59.9750000  0  5 13 12  6 24  2
  12971231.417   -34198171.782 7 -24862447.292 7
  15995439.589   -10189396.348 5  -7491764.827 5
  14406550.027   -53090062.647 6 -41224602.644 7
  16807778.831    -4347137.647 5  -3088790.271 2
  14884223.745   -52027474.510 7 -40135663.854 7
 92  4 16  0 34 29.9750000  0  5 13 12  6 24  2
  12961674.222   -34248395.968 7 -24901582.980 7
  15969644.761   -10324952.200 6  -7597392.630 5
  14412520.487   -53058688.054 6 -41200154.988 7
  16778965.245    -4498594.356 5  -3206807.886 3
  14885899.792   -52018664.383 7 -40128798.881 7
 92  4 16  0 34 59.9750000  0  5 13 12  6 24  2
  12952231.933   -34298019.052 7 -24940250.277 7
  15943889.909   -10460308.454 6  -7702864.884 5
  14418586.441   -53026796.731 6 -41175304.711 7
  16750171.300    -4649911.971 5  -3324717.118 3
  14887632.120   -52009561.189 7 -40121705.547 7
 92  4 16  0 35 29.9750000  0  5 13 12  6 24  2
  12942900.152   -34347052.813 7 -24978458.360 7
  15918167.722   -10595473.307 6  -7808188.008 5
  14424754.698   -52994400.685 6 -41150061.110 6
  16721393.144    -4801106.992 5  -3442530.851 3
  14889420.480   -52000177.602 7 -40114393.718 7
 92  4 16  0 35 59.9750000  0  5 13 12  6 24  2
  12933680.355   -34395502.151 7 -25016211.048 7
  15892481.355   -10730447.775 6  -7913362.786 5
  14431012.300   -52961504.486 6 -41124427.793 7
  16692644.230    -4952189.866 5  -3560257.195 4
  14891253.659   -51990540.876 7 -40106884.644 7
 92  4 16  0 36 29.9750000  0  5 13 12  6 24  2
  12924572.183   -34443371.879 7 -25053512.096 7
  15866830.292   -10865233.077 5  -8018390.154 5
  14437368.144   -52928113.313 6 -41098408.778 6
  16663917.386    -5103163.696 5  -3677898.604 2
  14893129.089   -51980679.027 7 -40099200.155 7
 92  4 16  0 36 59.9750000  0  5 13 12  6 24  2
  12915575.003   -34490649.256 7 -25090351.572 7
  15841220.027   -10999813.112 6  -8123257.604 5
  14443819.581   -52894214.289 6 -41071994.026 6
  16635215.737    -5254012.724 5  -3795442.739 3
  14895051.237   -51970573.359 7 -40091325.670 7
 92  4 16  0 37 29.9750000  0  5 13 12  6 24  2
  12906688.011   -34537350.260 7 -25126741.920 7
  15815649.636   -11134199.861 6  -8227974.421 5
  14450362.847   -52859823.677 6 -41045196.231 6
  16606524.050    -5404755.960 5  -3912904.490 2
  14897021.636   -51960221.190 7 -40083259.114 7
 92  4 16  0 37 59.9750000  0  5 13 12  6 24  2
  12897911.409   -34583470.353 7 -25162679.618 7
  15790115.636   -11268385.023 6  -8332534.158 5
  14457000.855   -52824936.693 6 -41018011.653 7
  16577856.409    -5555373.356 5  -4030268.179 4
  14899041.198   -51949612.797 6 -40074992.890 7
 92  4 16  0 38 29.9750000  0  5 13 12  6 24  2
  12889245.394   -34629012.618 7 -25198167.056 7
  15764619.987   -11402367.683 6  -8436936.110 5
  14463736.316   -52789556.050 6 -40990442.387 6
  16549231.784    -5705866.946 5  -4147535.398 3
  14901111.073   -51938735.217 6 -40066516.930 7
 92  4 16  0 38 59.9750000  0  5 13 12  6 24  2
  12880687.823   -34673982.637 7 -25233208.583 7
  15739159.636   -11536149.979 6  -8541181.923 5
  14470559.167   -52753687.809 6 -40962493.190 6
  16520604.277    -5856254.649 5  -4264720.115 3
  14903233.128   -51927585.992 7 -40057829.278 7
 92  4 16  0 39 29.9750000  0  5 13 12  6 24  2
  12872241.417   -34718373.034 8 -25267798.468 7
  15713741.191   -11669721.344 6  -8645263.381 5
  14477480.925   -52717325.379 6 -40934158.892 6
  16492010.230    -6006537.372 5  -4381823.020 3
  14905406.355   -51916160.323 6 -40048926.231 7
 92  4 16  0 39 59.9750000  0  5 13 12  6 24  2
  12863901.737   -34762194.467 8 -25301944.995 7
  15688364.597   -11803088.011 6  -8749185.332 5
  14484490.402   -52680478.591 6 -40905447.193 6
  16463427.933    -6156714.426 5  -4498843.637 2
  14907629.433   -51904475.657 6 -40039821.350 7
 92  4 16  0 40 29.9750000  0  5 13 12  6 24  2
  12855673.237   -34805435.736 8 -25335639.451 7
  15663026.277   -11936234.730 6  -8852935.918 5
  14491598.566   -52643136.125 6 -40876349.245 6
  16434873.058    -6306764.750 5  -4615765.464 5
  14909904.691   -51892519.531 6 -40030504.947 7
 92  4 16  0 40 59.9750000  0  5 13 12  6 24  2
  12847554.636   -34848099.177 8 -25368883.656 7
  15637729.847   -12069160.064 6  -8956513.979 5
  14498795.933   -52605300.352 6 -40846866.903 6
  16406348.112    -6456673.506 5  -4732576.988 4
  14912232.144   -51880288.755 6 -40020974.540 7
 92  4 16  0 41 29.9750000  0  5 13 12  6 24  2
  12839546.620   -34890182.989 8 -25401676.197 7
  15612478.933   -12201858.835 6  -9059915.471 5
  14506092.925   -52566969.926 6 -40816999.120 6
  16377855.706    -6606412.165 5  -4849255.953 4
  14914613.152   -51867768.459 6 -40011218.532 7
 92  4 16  0 41 59.9750000  0  5 13 12  6 24  2
  12831649.620   -34931681.248 8 -25434012.463 7
  15587271.019   -12334321.230 6  -9163132.785 5
  14513479.527   -52528139.356 6 -40786741.617 6
  16349392.706    -6755962.523 5  -4965788.194 4
  14917055.464   -51854946.698 6 -40001227.610 7
 92  4 16  0 42 29.9750000  0  5 13 12  6 24  2
  12823859.980   -34972614.540 8 -25465908.488 7
  15562108.792   -12466563.747 6  -9266178.773 5
  14520961.230   -52488828.854 6 -40756110.142 6
  16320972.386    -6905355.859 5  -5082198.107 5
  14919549.425   -51841839.973 6 -39991014.639 7
 92  4 16  0 42 59.9750000  0  5 13 12  6 24  2
  12816179.355   -35012975.203 8 -25497358.319 7
  15536988.378   -12598574.841 6  -9369044.432 5
  14528535.105   -52449030.947 6 -40725098.869 6
  16292562.808    -7054595.526 5  -5198488.268 5
  14922101.323   -51828440.165 6 -39980573.290 7
 92  4 16  0 43 29.9750000  0  5 13 12  6 24  2
  12808605.902   -35052772.463 7 -25528369.126 7
  15511909.425   -12730359.970 6  -9471734.007 5
  14536197.097   -52408754.933 6 -40693715.057 6
  16264195.730    -7203703.781 5  -5314676.036 4
  14924704.183   -51814756.265 6 -39969910.571 6
 92  4 16  0 43 59.9750000  0  5 13 12  6 24  2
  12801139.894   -35092007.999 8 -25558942.228 7
  15486872.652   -12861916.209 6  -9574245.235 5
  14543954.527   -52368002.010 6 -40661959.613 6
  16235838.706    -7352696.419 5  -5430773.743 5
  14927360.253   -51800796.852 6 -39959033.174 7
 92  4 16  0 44 29.9750000  0  5 13 12  6 24  2
  12793779.019   -35130688.934 8 -25589083.180 7
  15461883.511   -12993246.810 6  -9676580.629 6
  14551799.417   -52326779.639 6 -40629838.378 6
  16207505.987    -7501576.584 5  -5546783.797 4
  14930065.136   -51786580.896 6 -39947955.879 7
 92  4 16  0 44 59.9750000  0  5 13 12  6 24  2
  12786525.378   -35168809.199 8 -25618787.242 7
  15436937.339   -13124341.286 6  -9778732.037 6
  14559732.612   -52285081.001 6 -40597346.033 6
  16179201.683    -7650312.772 5  -5662681.712 5
  14932819.503   -51772104.087 6 -39936675.323 7
 92  4 16  0 45 29.9750000  0  5 13 12  6 24  2
  12779375.761   -35206375.146 7 -25648059.368 7
  15412034.698   -13255202.711 6  -9880701.850 5
  14567756.972   -52242913.808 6 -40564488.579 6
  16150935.777    -7798891.468 6  -5778456.882 5
  14935621.698   -51757381.272 6 -39925203.074 7
 92  4 16  0 45 59.9750000  0  5 13 12  6 24  2
  12772332.808   -35243389.623 8 -25676901.789 7
  15387175.573   -13385829.191 6  -9982488.599 6
  14575871.191   -52200279.980 6 -40531267.527 6
  16122693.956    -7947293.693 5  -5894094.554 5
  14938468.487   -51742430.299 6 -39913553.039 7
 92  4 16  0 46 29.9750000  0  5 13 12  6 24  2
  12765395.964   -35279842.414 7 -25705306.523 7
  15362365.862   -13516206.799 6 -10084081.438 5
  14584073.941   -52157169.337 6 -40497674.921 6
  16094488.073    -8095492.936 5  -6009574.051 5
  14941359.847   -51727231.960 6 -39901710.247 6
 92  4 16  0 46 59.9750000  0  5 13 12  6 24  2
  12758564.409   -35315743.982 7 -25733281.747 7
  15337603.753   -13646341.288 6 -10185484.829 6
  14592366.855   -52113592.540 6 -40463719.089 6
  16066322.925    -8243505.821 5  -6124908.353 5
  14944302.011   -51711772.925 6 -39889664.310 6
 92  4 16  0 47 29.9750000  0  5 13 12  6 24  2
  12751838.269   -35351088.114 8 -25760822.602 7
  15312886.089   -13776222.555 6 -10286690.908 6
  14600748.144   -52069543.512 6 -40429395.275 6
  16038192.066    -8391344.434 6  -6240106.866 5
  14947297.777   -51696033.050 6 -39877399.552 6
 92  4 16  0 47 59.9750000  0  5 13 12  6 24  2
  12745217.542   -35385880.137 8 -25787933.244 7
  15288219.073   -13905852.211 6 -10387700.923 5
  14609222.253   -52025027.839 6 -40394707.873 6
  16010088.784    -8539023.887 6  -6355181.362 4
  14950348.902   -51679998.106 6 -39864904.856 6
 92  4 16  0 48 29.9750000  0  5 13 12  6 24  2
  12738703.683   -35420112.402 8 -25814607.710 7
  15263600.527   -14035218.330 6 -10488505.592 6
  14617782.011   -51980037.875 6 -40359650.890 6
  15982011.050    -8686540.872 5  -6470129.267 5
  14953460.347   -51663646.040 6 -39852163.036 6
 92  4 16  0 48 59.9750000  0  5 13 12  6 24  2
  12732293.870   -35453795.691 8 -25840854.403 7
  15239034.644   -14164327.142 6 -10589109.777 5
  14626429.511   -51934584.172 6 -40324232.539 6
  15953971.948    -8833900.385 5  -6584954.467 5
  14956628.034   -51646989.047 6 -39839183.623 6
